Wetterdaten: Freitag, 30.01.2026
Datum Zeit Temp. I. Temp. A. Feuchte I. Feuchte A. Luftdruck Regen Wind Richtung Richtung Sonnenschein Solar Taupunkt Windchill Windböen
30.01.2026 00:00 22,2 °C -1,9 °C 48 % 92 % 1003,2 hPa 0,0 l/m² 1,6 km/h (1 Bft) NO 52 ° 0 min 0 W/m² -3,0 °C -1,9 °C 6,4 km/h (2 Bft)
30.01.2026 00:01 22,2 °C -1,9 °C 48 % 92 % 1003,1 hPa 0,0 l/m² 0,9 km/h (0 Bft) NO 52 ° 0 min 0 W/m² -3,0 °C -1,9 °C 3,2 km/h (1 Bft)
30.01.2026 00:02 22,2 °C -1,8 °C 48 % 92 % 1003,1 hPa 0,0 l/m² 2,5 km/h (1 Bft) NO 44 ° 0 min 0 W/m² -2,9 °C -1,8 °C 6,4 km/h (2 Bft)
30.01.2026 00:04 22,2 °C -1,9 °C 48 % 92 % 1003,2 hPa 0,0 l/m² 4,9 km/h (1 Bft) O 80 ° 0 min 0 W/m² -3,0 °C -1,9 °C 12,9 km/h (3 Bft)
30.01.2026 00:06 22,2 °C -1,8 °C 48 % 92 % 1003,2 hPa 0,0 l/m² 3,1 km/h (1 Bft) O 82 ° 0 min 0 W/m² -2,9 °C -1,8 °C 11,3 km/h (2 Bft)
30.01.2026 00:08 22,2 °C -1,9 °C 48 % 92 % 1003,3 hPa 0,0 l/m² 3,1 km/h (1 Bft) O-NO 63 ° 0 min 0 W/m² -3,0 °C -1,9 °C 9,7 km/h (2 Bft)
30.01.2026 00:10 22,2 °C -1,9 °C 48 % 92 % 1003,1 hPa 0,0 l/m² 4,2 km/h (1 Bft) NO 48 ° 0 min 0 W/m² -3,0 °C -1,9 °C 9,7 km/h (2 Bft)
30.01.2026 00:11 22,2 °C -1,9 °C 48 % 92 % 1003,1 hPa 0,0 l/m² 5,1 km/h (1 Bft) O-NO 74 ° 0 min 0 W/m² -3,0 °C -1,9 °C 9,7 km/h (2 Bft)
30.01.2026 00:13 22,3 °C -1,9 °C 48 % 92 % 1003,1 hPa 0,0 l/m² 4,9 km/h (1 Bft) O-NO 58 ° 0 min 0 W/m² -3,0 °C -1,9 °C 12,9 km/h (3 Bft)
30.01.2026 00:14 22,3 °C -1,9 °C 48 % 92 % 1003,1 hPa 0,0 l/m² 5,7 km/h (2 Bft) NO 44 ° 0 min 0 W/m² -3,0 °C -1,9 °C 8,0 km/h (2 Bft)
30.01.2026 00:15 22,2 °C -1,9 °C 48 % 92 % 1003,1 hPa 0,0 l/m² 3,3 km/h (1 Bft) O 81 ° 0 min 0 W/m² -3,0 °C -1,9 °C 9,7 km/h (2 Bft)
30.01.2026 00:17 22,2 °C -1,9 °C 48 % 92 % 1003,1 hPa 0,0 l/m² 4,3 km/h (1 Bft) O-NO 65 ° 0 min 0 W/m² -3,0 °C -1,9 °C 9,7 km/h (2 Bft)
30.01.2026 00:19 22,2 °C -1,9 °C 48 % 92 % 1003,1 hPa 0,0 l/m² 2,8 km/h (1 Bft) O-NO 67 ° 0 min 0 W/m² -3,0 °C -1,9 °C 9,7 km/h (2 Bft)
30.01.2026 00:21 22,2 °C -1,9 °C 48 % 92 % 1003,1 hPa 0,0 l/m² 5,0 km/h (1 Bft) O 84 ° 0 min 0 W/m² -3,0 °C -1,9 °C 9,7 km/h (2 Bft)
30.01.2026 00:22 22,2 °C -1,9 °C 48 % 92 % 1003,1 hPa 0,0 l/m² 6,1 km/h (2 Bft) O-NO 78 ° 0 min 0 W/m² -3,0 °C -1,9 °C 8,0 km/h (2 Bft)
30.01.2026 00:23 22,2 °C -1,9 °C 48 % 92 % 1003,0 hPa 0,0 l/m² 6,4 km/h (2 Bft) O 86 ° 0 min 0 W/m² -3,0 °C -1,9 °C 9,7 km/h (2 Bft)
30.01.2026 00:25 22,2 °C -1,9 °C 48 % 92 % 1003,0 hPa 0,0 l/m² 3,0 km/h (1 Bft) O-NO 73 ° 0 min 0 W/m² -3,0 °C -1,9 °C 11,3 km/h (2 Bft)
30.01.2026 00:27 22,2 °C -1,9 °C 48 % 92 % 1003,0 hPa 0,0 l/m² 5,1 km/h (1 Bft) NO 51 ° 0 min 0 W/m² -3,0 °C -1,9 °C 11,3 km/h (2 Bft)
30.01.2026 00:29 22,2 °C -1,9 °C 48 % 92 % 1003,0 hPa 0,0 l/m² 5,1 km/h (1 Bft) O-NO 74 ° 0 min 0 W/m² -3,0 °C -1,9 °C 12,9 km/h (3 Bft)
30.01.2026 00:31 22,2 °C -1,9 °C 48 % 92 % 1003,1 hPa 0,0 l/m² 9,2 km/h (2 Bft) O 79 ° 0 min 0 W/m² -3,0 °C -4,8 °C 12,9 km/h (3 Bft)
30.01.2026 00:32 22,2 °C -1,9 °C 48 % 92 % 1003,1 hPa 0,0 l/m² 4,8 km/h (1 Bft) O-NO 74 ° 0 min 0 W/m² -3,0 °C -1,9 °C 11,3 km/h (2 Bft)
30.01.2026 00:33 22,2 °C -1,9 °C 48 % 92 % 1003,1 hPa 0,0 l/m² 5,1 km/h (1 Bft) O-NO 70 ° 0 min 0 W/m² -3,0 °C -1,9 °C 11,3 km/h (2 Bft)
30.01.2026 00:35 22,2 °C -1,9 °C 48 % 92 % 1003,1 hPa 0,0 l/m² 9,8 km/h (2 Bft) O-NO 69 ° 0 min 0 W/m² -3,0 °C -5,4 °C 16,1 km/h (3 Bft)
30.01.2026 00:37 22,2 °C -1,9 °C 49 % 92 % 1003,1 hPa 0,0 l/m² 7,9 km/h (2 Bft) O-NO 66 ° 0 min 0 W/m² -3,0 °C -3,5 °C 12,9 km/h (3 Bft)
30.01.2026 00:39 22,2 °C -1,9 °C 49 % 92 % 1003,1 hPa 0,0 l/m² 4,1 km/h (1 Bft) O-NO 72 ° 0 min 0 W/m² -3,0 °C -1,9 °C 12,9 km/h (3 Bft)
30.01.2026 00:41 22,2 °C -1,9 °C 49 % 92 % 1003,1 hPa 0,0 l/m² 7,8 km/h (2 Bft) O-NO 70 ° 0 min 0 W/m² -3,0 °C -3,4 °C 12,9 km/h (3 Bft)
30.01.2026 00:42 22,2 °C -2,0 °C 49 % 92 % 1003,1 hPa 0,0 l/m² 9,6 km/h (2 Bft) O-NO 67 ° 0 min 0 W/m² -3,1 °C -5,3 °C 12,9 km/h (3 Bft)
30.01.2026 00:43 22,2 °C -2,0 °C 49 % 92 % 1003,1 hPa 0,0 l/m² 0,9 km/h (0 Bft) O-NO 67 ° 0 min 0 W/m² -3,1 °C -2,0 °C 3,2 km/h (1 Bft)
30.01.2026 00:46 22,3 °C -1,9 °C 49 % 92 % 1003,0 hPa 0,0 l/m² 5,3 km/h (1 Bft) O-NO 71 ° 0 min 0 W/m² -3,0 °C -1,9 °C 12,9 km/h (3 Bft)
30.01.2026 00:48 22,3 °C -1,9 °C 49 % 92 % 1003,0 hPa 0,0 l/m² 5,2 km/h (1 Bft) O-NO 78 ° 0 min 0 W/m² -3,0 °C -1,9 °C 11,3 km/h (2 Bft)
30.01.2026 00:50 22,2 °C -2,0 °C 49 % 92 % 1002,9 hPa 0,0 l/m² 8,9 km/h (2 Bft) O-NO 77 ° 0 min 0 W/m² -3,1 °C -4,6 °C 14,5 km/h (3 Bft)
30.01.2026 00:52 22,2 °C -2,0 °C 49 % 92 % 1003,0 hPa 0,0 l/m² 5,8 km/h (2 Bft) NO 54 ° 0 min 0 W/m² -3,1 °C -2,0 °C 11,3 km/h (2 Bft)
30.01.2026 00:53 22,2 °C -2,0 °C 49 % 92 % 1003,0 hPa 0,0 l/m² 7,8 km/h (2 Bft) O-NO 59 ° 0 min 0 W/m² -3,1 °C -3,5 °C 9,7 km/h (2 Bft)
30.01.2026 00:54 22,3 °C -2,0 °C 49 % 92 % 1002,9 hPa 0,0 l/m² 7,0 km/h (2 Bft) O 86 ° 0 min 0 W/m² -3,1 °C -2,7 °C 12,9 km/h (3 Bft)
30.01.2026 00:56 22,3 °C -2,0 °C 49 % 92 % 1002,9 hPa 0,0 l/m² 4,2 km/h (1 Bft) O-NO 61 ° 0 min 0 W/m² -3,1 °C -2,0 °C 12,9 km/h (3 Bft)
30.01.2026 00:58 22,2 °C -2,0 °C 49 % 92 % 1002,9 hPa 0,0 l/m² 7,5 km/h (2 Bft) O-NO 60 ° 0 min 0 W/m² -3,1 °C -3,2 °C 14,5 km/h (3 Bft)
30.01.2026 01:00 22,3 °C -2,0 °C 49 % 92 % 1002,9 hPa 0,0 l/m² 6,1 km/h (2 Bft) O 79 ° 0 min 0 W/m² -3,1 °C -2,0 °C 14,5 km/h (3 Bft)
30.01.2026 01:02 22,3 °C -2,0 °C 49 % 92 % 1002,9 hPa 0,0 l/m² 8,1 km/h (2 Bft) O-NO 68 ° 0 min 0 W/m² -3,1 °C -3,8 °C 16,1 km/h (3 Bft)
30.01.2026 01:03 22,3 °C -2,0 °C 49 % 92 % 1002,9 hPa 0,0 l/m² 1,1 km/h (1 Bft) O-NO 74 ° 0 min 0 W/m² -3,1 °C -2,0 °C 6,4 km/h (2 Bft)
30.01.2026 01:05 22,2 °C -2,1 °C 49 % 92 % 1003,0 hPa 0,0 l/m² 5,2 km/h (1 Bft) O-NO 69 ° 0 min 0 W/m² -3,2 °C -2,1 °C 14,5 km/h (3 Bft)
30.01.2026 01:07 22,3 °C -2,0 °C 49 % 92 % 1003,1 hPa 0,0 l/m² 9,8 km/h (2 Bft) O-NO 78 ° 0 min 0 W/m² -3,1 °C -5,5 °C 17,7 km/h (3 Bft)
30.01.2026 01:09 22,3 °C -2,0 °C 49 % 92 % 1003,0 hPa 0,0 l/m² 9,3 km/h (2 Bft) O-NO 76 ° 0 min 0 W/m² -3,1 °C -5,0 °C 14,5 km/h (3 Bft)
30.01.2026 01:11 22,3 °C -2,0 °C 49 % 92 % 1003,0 hPa 0,0 l/m² 9,0 km/h (2 Bft) NO 38 ° 0 min 0 W/m² -3,1 °C -4,7 °C 14,5 km/h (3 Bft)
30.01.2026 01:12 22,3 °C -2,0 °C 49 % 92 % 1002,9 hPa 0,0 l/m² 6,5 km/h (2 Bft) O-NO 76 ° 0 min 0 W/m² -3,1 °C -2,1 °C 12,9 km/h (3 Bft)
30.01.2026 01:13 22,3 °C -2,0 °C 49 % 92 % 1002,9 hPa 0,0 l/m² 7,7 km/h (2 Bft) O 90 ° 0 min 0 W/m² -3,1 °C -3,4 °C 14,5 km/h (3 Bft)
30.01.2026 01:15 22,2 °C -2,0 °C 49 % 92 % 1002,9 hPa 0,0 l/m² 4,8 km/h (1 Bft) O-NO 65 ° 0 min 0 W/m² -3,1 °C -2,0 °C 12,9 km/h (3 Bft)
30.01.2026 01:17 22,3 °C -2,0 °C 49 % 92 % 1002,9 hPa 0,0 l/m² 6,6 km/h (2 Bft) O-NO 70 ° 0 min 0 W/m² -3,1 °C -2,2 °C 12,9 km/h (3 Bft)
30.01.2026 01:19 22,3 °C -2,1 °C 49 % 92 % 1002,9 hPa 0,0 l/m² 7,6 km/h (2 Bft) O-NO 66 ° 0 min 0 W/m² -3,2 °C -3,4 °C 12,9 km/h (3 Bft)
30.01.2026 01:21 22,3 °C -2,0 °C 49 % 92 % 1002,8 hPa 0,0 l/m² 4,3 km/h (1 Bft) O-NO 63 ° 0 min 0 W/m² -3,1 °C -2,0 °C 11,3 km/h (2 Bft)
30.01.2026 01:22 22,3 °C -2,0 °C 49 % 92 % 1002,9 hPa 0,0 l/m² 4,8 km/h (1 Bft) NO 55 ° 0 min 0 W/m² -3,1 °C -2,0 °C 9,7 km/h (2 Bft)
30.01.2026 01:23 22,3 °C -2,0 °C 49 % 92 % 1002,9 hPa 0,0 l/m² 6,2 km/h (2 Bft) O-NO 72 ° 0 min 0 W/m² -3,1 °C -2,0 °C 8,0 km/h (2 Bft)
30.01.2026 01:24 22,3 °C -2,1 °C 49 % 92 % 1002,8 hPa 0,0 l/m² 6,3 km/h (2 Bft) O 86 ° 0 min 0 W/m² -3,2 °C -2,1 °C 11,3 km/h (2 Bft)
30.01.2026 01:26 22,3 °C -2,0 °C 49 % 92 % 1002,8 hPa 0,0 l/m² 7,9 km/h (2 Bft) O-NO 78 ° 0 min 0 W/m² -3,1 °C -3,6 °C 14,5 km/h (3 Bft)
30.01.2026 01:28 22,3 °C -2,0 °C 49 % 92 % 1002,8 hPa 0,0 l/m² 10,4 km/h (2 Bft) NO 39 ° 0 min 0 W/m² -3,1 °C -6,0 °C 17,7 km/h (3 Bft)
30.01.2026 01:30 22,2 °C -2,0 °C 49 % 92 % 1002,8 hPa 0,0 l/m² 13,2 km/h (3 Bft) O 84 ° 0 min 0 W/m² -3,1 °C -8,2 °C 19,3 km/h (3 Bft)
30.01.2026 01:33 22,2 °C -2,1 °C 49 % 92 % 1002,8 hPa 0,0 l/m² 9,4 km/h (2 Bft) O 98 ° 0 min 0 W/m² -3,2 °C -5,2 °C 16,1 km/h (3 Bft)
30.01.2026 01:35 22,3 °C -2,1 °C 49 % 92 % 1002,9 hPa 0,0 l/m² 9,5 km/h (2 Bft) O-NO 71 ° 0 min 0 W/m² -3,2 °C -5,3 °C 17,7 km/h (3 Bft)
30.01.2026 01:37 22,2 °C -2,1 °C 49 % 92 % 1002,9 hPa 0,0 l/m² 5,7 km/h (2 Bft) O-NO 68 ° 0 min 0 W/m² -3,2 °C -2,1 °C 11,3 km/h (2 Bft)
30.01.2026 01:39 22,3 °C -2,1 °C 49 % 92 % 1003,0 hPa 0,0 l/m² 8,7 km/h (2 Bft) O-NO 76 ° 0 min 0 W/m² -3,2 °C -4,6 °C 14,5 km/h (3 Bft)
30.01.2026 01:41 22,3 °C -2,1 °C 49 % 92 % 1002,9 hPa 0,0 l/m² 7,4 km/h (2 Bft) O-NO 67 ° 0 min 0 W/m² -3,2 °C -3,2 °C 14,5 km/h (3 Bft)
30.01.2026 01:42 22,2 °C -2,1 °C 49 % 92 % 1002,9 hPa 0,0 l/m² 5,0 km/h (1 Bft) O-NO 77 ° 0 min 0 W/m² -3,2 °C -2,1 °C 6,4 km/h (2 Bft)
30.01.2026 01:43 22,3 °C -2,1 °C 49 % 92 % 1002,9 hPa 0,0 l/m² 5,0 km/h (1 Bft) O-NO 73 ° 0 min 0 W/m² -3,2 °C -2,1 °C 9,7 km/h (2 Bft)
30.01.2026 01:44 22,3 °C -2,1 °C 49 % 92 % 1002,9 hPa 0,0 l/m² 7,2 km/h (2 Bft) O-NO 59 ° 0 min 0 W/m² -3,2 °C -3,0 °C 12,9 km/h (3 Bft)
30.01.2026 01:46 22,3 °C -2,1 °C 49 % 92 % 1003,0 hPa 0,0 l/m² 8,4 km/h (2 Bft) O-NO 78 ° 0 min 0 W/m² -3,2 °C -4,3 °C 16,1 km/h (3 Bft)
30.01.2026 01:48 22,3 °C -2,1 °C 49 % 91 % 1002,9 hPa 0,0 l/m² 8,5 km/h (2 Bft) O 81 ° 0 min 0 W/m² -3,4 °C -4,4 °C 14,5 km/h (3 Bft)
30.01.2026 01:50 22,3 °C -2,1 °C 49 % 91 % 1002,9 hPa 0,0 l/m² 10,7 km/h (2 Bft) N-NO 31 ° 0 min 0 W/m² -3,4 °C -6,4 °C 17,7 km/h (3 Bft)
30.01.2026 01:53 22,2 °C -2,1 °C 49 % 91 % 1002,9 hPa 0,0 l/m² 9,6 km/h (2 Bft) O-NO 74 ° 0 min 0 W/m² -3,4 °C -5,4 °C 14,5 km/h (3 Bft)
30.01.2026 01:55 22,2 °C -2,1 °C 49 % 91 % 1002,9 hPa 0,0 l/m² 6,7 km/h (2 Bft) O 80 ° 0 min 0 W/m² -3,4 °C -2,4 °C 14,5 km/h (3 Bft)
30.01.2026 01:57 22,3 °C -2,1 °C 49 % 91 % 1002,9 hPa 0,0 l/m² 9,9 km/h (2 Bft) O 84 ° 0 min 0 W/m² -3,4 °C -5,7 °C 16,1 km/h (3 Bft)
30.01.2026 01:59 22,2 °C -2,1 °C 49 % 91 % 1003,0 hPa 0,0 l/m² 9,6 km/h (2 Bft) O-NO 63 ° 0 min 0 W/m² -3,4 °C -5,4 °C 14,5 km/h (3 Bft)
30.01.2026 02:01 22,2 °C -2,1 °C 49 % 91 % 1003,0 hPa 0,0 l/m² 8,1 km/h (2 Bft) NO 54 ° 0 min 0 W/m² -3,4 °C -4,0 °C 16,1 km/h (3 Bft)
30.01.2026 02:02 22,2 °C -2,1 °C 49 % 91 % 1002,9 hPa 0,0 l/m² 10,2 km/h (2 Bft) O 82 ° 0 min 0 W/m² -3,4 °C -5,9 °C 12,9 km/h (3 Bft)
30.01.2026 02:03 22,2 °C -2,1 °C 49 % 91 % 1002,9 hPa 0,0 l/m² 12,9 km/h (3 Bft) O 84 ° 0 min 0 W/m² -3,4 °C -8,1 °C 16,1 km/h (3 Bft)
30.01.2026 02:04 22,3 °C -2,1 °C 49 % 91 % 1003,0 hPa 0,0 l/m² 9,8 km/h (2 Bft) O 86 ° 0 min 0 W/m² -3,4 °C -5,6 °C 16,1 km/h (3 Bft)
30.01.2026 02:06 22,2 °C -2,1 °C 49 % 91 % 1002,9 hPa 0,0 l/m² 8,2 km/h (2 Bft) O-NO 69 ° 0 min 0 W/m² -3,4 °C -4,1 °C 12,9 km/h (3 Bft)
30.01.2026 02:08 22,2 °C -2,0 °C 49 % 91 % 1003,0 hPa 0,0 l/m² 8,4 km/h (2 Bft) O-NO 76 ° 0 min 0 W/m² -3,3 °C -4,2 °C 14,5 km/h (3 Bft)
30.01.2026 02:10 22,2 °C -2,1 °C 49 % 91 % 1003,0 hPa 0,0 l/m² 8,2 km/h (2 Bft) O-NO 76 ° 0 min 0 W/m² -3,4 °C -4,1 °C 12,9 km/h (3 Bft)
30.01.2026 02:13 22,2 °C -2,1 °C 49 % 91 % 1003,1 hPa 0,0 l/m² 8,0 km/h (2 Bft) O-NO 71 ° 0 min 0 W/m² -3,4 °C -3,9 °C 19,3 km/h (3 Bft)
30.01.2026 02:15 22,2 °C -2,1 °C 49 % 91 % 1003,0 hPa 0,0 l/m² 13,5 km/h (3 Bft) O-NO 78 ° 0 min 0 W/m² -3,4 °C -8,5 °C 19,3 km/h (3 Bft)
30.01.2026 02:17 22,2 °C -2,1 °C 49 % 91 % 1003,0 hPa 0,0 l/m² 7,7 km/h (2 Bft) O-NO 59 ° 0 min 0 W/m² -3,4 °C -3,5 °C 16,1 km/h (3 Bft)
30.01.2026 02:19 22,2 °C -2,1 °C 49 % 91 % 1003,1 hPa 0,0 l/m² 7,5 km/h (2 Bft) O-NO 74 ° 0 min 0 W/m² -3,4 °C -3,3 °C 14,5 km/h (3 Bft)
30.01.2026 02:21 22,2 °C -2,1 °C 49 % 91 % 1003,1 hPa 0,0 l/m² 13,1 km/h (3 Bft) O 82 ° 0 min 0 W/m² -3,4 °C -8,2 °C 17,7 km/h (3 Bft)
30.01.2026 02:22 22,2 °C -2,1 °C 49 % 91 % 1003,1 hPa 0,0 l/m² 10,4 km/h (2 Bft) O-NO 59 ° 0 min 0 W/m² -3,4 °C -6,1 °C 14,5 km/h (3 Bft)
30.01.2026 02:23 22,2 °C -2,1 °C 49 % 91 % 1003,1 hPa 0,0 l/m² 8,3 km/h (2 Bft) O-NO 57 ° 0 min 0 W/m² -3,4 °C -4,2 °C 14,5 km/h (3 Bft)
30.01.2026 02:25 22,2 °C -2,1 °C 49 % 91 % 1003,1 hPa 0,0 l/m² 11,6 km/h (2 Bft) O-NO 77 ° 0 min 0 W/m² -3,4 °C -7,1 °C 16,1 km/h (3 Bft)
30.01.2026 02:27 22,2 °C -2,1 °C 49 % 91 % 1003,1 hPa 0,0 l/m² 6,0 km/h (2 Bft) O-NO 78 ° 0 min 0 W/m² -3,4 °C -2,1 °C 12,9 km/h (3 Bft)
30.01.2026 02:29 22,2 °C -2,1 °C 49 % 91 % 1003,0 hPa 0,0 l/m² 10,8 km/h (2 Bft) O-NO 77 ° 0 min 0 W/m² -3,4 °C -6,5 °C 20,9 km/h (4 Bft)
30.01.2026 02:31 22,2 °C -2,1 °C 49 % 91 % 1003,0 hPa 0,0 l/m² 9,7 km/h (2 Bft) O-NO 63 ° 0 min 0 W/m² -3,4 °C -5,5 °C 16,1 km/h (3 Bft)
30.01.2026 02:32 22,2 °C -2,1 °C 49 % 91 % 1003,0 hPa 0,0 l/m² 9,6 km/h (2 Bft) O-NO 64 ° 0 min 0 W/m² -3,4 °C -5,4 °C 16,1 km/h (3 Bft)
30.01.2026 02:33 22,2 °C -2,1 °C 49 % 91 % 1003,0 hPa 0,0 l/m² 8,8 km/h (2 Bft) O 83 ° 0 min 0 W/m² -3,4 °C -4,7 °C 12,9 km/h (3 Bft)
30.01.2026 02:34 22,2 °C -2,1 °C 49 % 91 % 1003,0 hPa 0,0 l/m² 8,3 km/h (2 Bft) O 89 ° 0 min 0 W/m² -3,4 °C -4,2 °C 11,3 km/h (2 Bft)
30.01.2026 02:36 22,2 °C -2,1 °C 49 % 91 % 1003,0 hPa 0,0 l/m² 7,2 km/h (2 Bft) O-NO 65 ° 0 min 0 W/m² -3,4 °C -3,0 °C 12,9 km/h (3 Bft)
30.01.2026 02:38 22,2 °C -2,1 °C 49 % 91 % 1003,0 hPa 0,0 l/m² 5,5 km/h (2 Bft) O 80 ° 0 min 0 W/m² -3,4 °C -2,1 °C 9,7 km/h (2 Bft)
30.01.2026 02:40 22,2 °C -2,1 °C 49 % 91 % 1003,0 hPa 0,0 l/m² 6,2 km/h (2 Bft) O-NO 61 ° 0 min 0 W/m² -3,4 °C -2,1 °C 11,3 km/h (2 Bft)
30.01.2026 02:43 22,2 °C -2,1 °C 49 % 91 % 1003,1 hPa 0,0 l/m² 7,8 km/h (2 Bft) O-NO 67 ° 0 min 0 W/m² -3,4 °C -3,6 °C 16,1 km/h (3 Bft)
30.01.2026 02:45 22,2 °C -2,1 °C 49 % 91 % 1003,1 hPa 0,0 l/m² 8,7 km/h (2 Bft) O-NO 63 ° 0 min 0 W/m² -3,4 °C -4,6 °C 14,5 km/h (3 Bft)
30.01.2026 02:47 22,2 °C -2,1 °C 49 % 91 % 1003,1 hPa 0,0 l/m² 6,4 km/h (2 Bft) O-NO 76 ° 0 min 0 W/m² -3,4 °C -2,1 °C 11,3 km/h (2 Bft)
30.01.2026 02:49 22,2 °C -2,2 °C 49 % 91 % 1003,1 hPa 0,0 l/m² 6,0 km/h (2 Bft) O-NO 75 ° 0 min 0 W/m² -3,5 °C -2,2 °C 11,3 km/h (2 Bft)
30.01.2026 02:51 22,2 °C -2,2 °C 49 % 91 % 1002,9 hPa 0,0 l/m² 8,1 km/h (2 Bft) O 79 ° 0 min 0 W/m² -3,5 °C -4,1 °C 12,9 km/h (3 Bft)
30.01.2026 02:52 22,2 °C -2,2 °C 49 % 91 % 1002,9 hPa 0,0 l/m² 9,3 km/h (2 Bft) O 89 ° 0 min 0 W/m² -3,5 °C -5,2 °C 12,9 km/h (3 Bft)
30.01.2026 02:53 22,2 °C -2,2 °C 49 % 91 % 1002,9 hPa 0,0 l/m² 8,3 km/h (2 Bft) O-NO 62 ° 0 min 0 W/m² -3,5 °C -4,3 °C 12,9 km/h (3 Bft)
30.01.2026 02:55 22,2 °C -2,1 °C 49 % 91 % 1003,0 hPa 0,0 l/m² 7,4 km/h (2 Bft) O-NO 67 ° 0 min 0 W/m² -3,4 °C -3,2 °C 17,7 km/h (3 Bft)
30.01.2026 02:56 22,2 °C -2,2 °C 49 % 91 % 1003,1 hPa 0,0 l/m² 9,1 km/h (2 Bft) O-NO 78 ° 0 min 0 W/m² -3,5 °C -5,1 °C 14,5 km/h (3 Bft)
30.01.2026 02:57 22,2 °C -2,2 °C 49 % 91 % 1003,0 hPa 0,0 l/m² 7,1 km/h (2 Bft) NO 51 ° 0 min 0 W/m² -3,5 °C -3,0 °C 14,5 km/h (3 Bft)
30.01.2026 02:58 22,2 °C -2,2 °C 49 % 91 % 1003,0 hPa 0,0 l/m² 10,3 km/h (2 Bft) O 88 ° 0 min 0 W/m² -3,5 °C -6,1 °C 14,5 km/h (3 Bft)
30.01.2026 03:00 22,2 °C -2,2 °C 49 % 91 % 1003,1 hPa 0,0 l/m² 9,6 km/h (2 Bft) O-NO 78 ° 0 min 0 W/m² -3,5 °C -5,5 °C 16,1 km/h (3 Bft)
30.01.2026 03:02 22,2 °C -2,2 °C 49 % 91 % 1003,0 hPa 0,0 l/m² 9,4 km/h (2 Bft) O-NO 75 ° 0 min 0 W/m² -3,5 °C -5,3 °C 16,1 km/h (3 Bft)
30.01.2026 03:03 22,2 °C -2,2 °C 49 % 91 % 1003,0 hPa 0,0 l/m² 8,0 km/h (2 Bft) O-NO 62 ° 0 min 0 W/m² -3,5 °C -4,0 °C 14,5 km/h (3 Bft)
30.01.2026 03:04 22,2 °C -2,2 °C 49 % 91 % 1003,0 hPa 0,0 l/m² 9,2 km/h (2 Bft) O-NO 78 ° 0 min 0 W/m² -3,5 °C -5,1 °C 14,5 km/h (3 Bft)
30.01.2026 03:05 22,2 °C -2,2 °C 49 % 91 % 1003,2 hPa 0,0 l/m² 9,5 km/h (2 Bft) O 90 ° 0 min 0 W/m² -3,5 °C -5,4 °C 14,5 km/h (3 Bft)
30.01.2026 03:07 22,2 °C -2,2 °C 49 % 91 % 1003,1 hPa 0,0 l/m² 6,3 km/h (2 Bft) O-NO 61 ° 0 min 0 W/m² -3,5 °C -2,2 °C 11,3 km/h (2 Bft)
30.01.2026 03:09 22,2 °C -2,2 °C 49 % 91 % 1003,1 hPa 0,0 l/m² 8,0 km/h (2 Bft) NO 53 ° 0 min 0 W/m² -3,5 °C -4,0 °C 12,9 km/h (3 Bft)
30.01.2026 03:11 22,2 °C -2,2 °C 49 % 91 % 1003,1 hPa 0,0 l/m² 6,5 km/h (2 Bft) O-NO 76 ° 0 min 0 W/m² -3,5 °C -2,3 °C 11,3 km/h (2 Bft)
30.01.2026 03:12 22,2 °C -2,2 °C 49 % 91 % 1003,1 hPa 0,0 l/m² 10,0 km/h (2 Bft) NO 54 ° 0 min 0 W/m² -3,5 °C -5,9 °C 12,9 km/h (3 Bft)
30.01.2026 03:13 22,2 °C -2,2 °C 49 % 91 % 1003,1 hPa 0,0 l/m² 4,4 km/h (1 Bft) O-NO 61 ° 0 min 0 W/m² -3,5 °C -2,2 °C 8,0 km/h (2 Bft)
30.01.2026 03:15 22,2 °C -2,2 °C 49 % 91 % 1003,1 hPa 0,0 l/m² 4,4 km/h (1 Bft) O 85 ° 0 min 0 W/m² -3,5 °C -2,2 °C 8,0 km/h (2 Bft)
30.01.2026 03:17 22,2 °C -2,2 °C 49 % 91 % 1003,1 hPa 0,0 l/m² 11,8 km/h (2 Bft) O-NO 73 ° 0 min 0 W/m² -3,5 °C -7,4 °C 19,3 km/h (3 Bft)
30.01.2026 03:19 22,2 °C -2,2 °C 49 % 91 % 1003,1 hPa 0,0 l/m² 11,4 km/h (2 Bft) O 90 ° 0 min 0 W/m² -3,5 °C -7,1 °C 16,1 km/h (3 Bft)
30.01.2026 03:21 22,2 °C -2,2 °C 49 % 91 % 1003,1 hPa 0,0 l/m² 6,3 km/h (2 Bft) O 89 ° 0 min 0 W/m² -3,5 °C -2,2 °C 14,5 km/h (3 Bft)
30.01.2026 03:22 22,2 °C -2,2 °C 49 % 91 % 1003,1 hPa 0,0 l/m² 5,3 km/h (1 Bft) O-NO 63 ° 0 min 0 W/m² -3,5 °C -2,2 °C 11,3 km/h (2 Bft)
30.01.2026 03:23 22,2 °C -2,2 °C 49 % 91 % 1003,1 hPa 0,0 l/m² 10,6 km/h (2 Bft) O-NO 70 ° 0 min 0 W/m² -3,5 °C -6,4 °C 17,7 km/h (3 Bft)
30.01.2026 03:24 22,2 °C -2,2 °C 49 % 91 % 1003,1 hPa 0,0 l/m² 13,0 km/h (3 Bft) O 81 ° 0 min 0 W/m² -3,5 °C -8,3 °C 16,1 km/h (3 Bft)
30.01.2026 03:26 22,2 °C -2,2 °C 49 % 91 % 1003,2 hPa 0,0 l/m² 10,3 km/h (2 Bft) NO 53 ° 0 min 0 W/m² -3,5 °C -6,1 °C 14,5 km/h (3 Bft)
30.01.2026 03:28 22,2 °C -2,2 °C 49 % 91 % 1003,1 hPa 0,0 l/m² 10,7 km/h (2 Bft) O-NO 57 ° 0 min 0 W/m² -3,5 °C -6,5 °C 16,1 km/h (3 Bft)
30.01.2026 03:30 22,2 °C -2,2 °C 49 % 91 % 1003,0 hPa 0,0 l/m² 8,5 km/h (2 Bft) NO 51 ° 0 min 0 W/m² -3,5 °C -4,5 °C 12,9 km/h (3 Bft)
30.01.2026 03:33 22,2 °C -2,2 °C 49 % 91 % 1003,0 hPa 0,0 l/m² 6,9 km/h (2 Bft) O 86 ° 0 min 0 W/m² -3,5 °C -2,7 °C 14,5 km/h (3 Bft)
30.01.2026 03:35 22,2 °C -2,2 °C 49 % 91 % 1003,0 hPa 0,0 l/m² 8,5 km/h (2 Bft) O 84 ° 0 min 0 W/m² -3,5 °C -4,5 °C 11,3 km/h (2 Bft)
30.01.2026 03:37 22,2 °C -2,2 °C 49 % 91 % 1002,9 hPa 0,0 l/m² 10,7 km/h (2 Bft) O-NO 69 ° 0 min 0 W/m² -3,5 °C -6,5 °C 17,7 km/h (3 Bft)
30.01.2026 03:39 22,2 °C -2,2 °C 49 % 91 % 1002,9 hPa 0,0 l/m² 8,4 km/h (2 Bft) O-NO 77 ° 0 min 0 W/m² -3,5 °C -4,4 °C 12,9 km/h (3 Bft)
30.01.2026 03:41 22,2 °C -2,2 °C 49 % 91 % 1002,8 hPa 0,0 l/m² 8,9 km/h (2 Bft) O 81 ° 0 min 0 W/m² -3,5 °C -4,9 °C 14,5 km/h (3 Bft)
30.01.2026 03:42 22,2 °C -2,2 °C 49 % 91 % 1002,8 hPa 0,0 l/m² 6,1 km/h (2 Bft) O-NO 75 ° 0 min 0 W/m² -3,5 °C -2,2 °C 9,7 km/h (2 Bft)
30.01.2026 03:43 22,2 °C -2,2 °C 49 % 91 % 1002,8 hPa 0,0 l/m² 4,5 km/h (1 Bft) O-NO 63 ° 0 min 0 W/m² -3,5 °C -2,2 °C 8,0 km/h (2 Bft)
30.01.2026 03:45 22,2 °C -2,2 °C 49 % 91 % 1002,8 hPa 0,0 l/m² 5,9 km/h (2 Bft) O-NO 71 ° 0 min 0 W/m² -3,5 °C -2,2 °C 11,3 km/h (2 Bft)
30.01.2026 03:47 22,2 °C -2,2 °C 49 % 91 % 1002,8 hPa 0,0 l/m² 3,1 km/h (1 Bft) O 82 ° 0 min 0 W/m² -3,5 °C -2,2 °C 8,0 km/h (2 Bft)
30.01.2026 03:49 22,2 °C -2,2 °C 49 % 91 % 1002,8 hPa 0,0 l/m² 5,6 km/h (2 Bft) O 80 ° 0 min 0 W/m² -3,5 °C -2,2 °C 11,3 km/h (2 Bft)
30.01.2026 03:51 22,2 °C -2,2 °C 49 % 91 % 1002,8 hPa 0,0 l/m² 8,2 km/h (2 Bft) O-NO 77 ° 0 min 0 W/m² -3,5 °C -4,2 °C 14,5 km/h (3 Bft)
30.01.2026 03:52 22,2 °C -2,2 °C 49 % 91 % 1002,9 hPa 0,0 l/m² 8,5 km/h (2 Bft) O-NO 65 ° 0 min 0 W/m² -3,5 °C -4,5 °C 12,9 km/h (3 Bft)
30.01.2026 03:53 22,2 °C -2,2 °C 49 % 91 % 1002,9 hPa 0,0 l/m² 9,6 km/h (2 Bft) O 80 ° 0 min 0 W/m² -3,5 °C -5,5 °C 12,9 km/h (3 Bft)
30.01.2026 03:55 22,2 °C -2,2 °C 49 % 91 % 1002,9 hPa 0,0 l/m² 6,4 km/h (2 Bft) O-NO 76 ° 0 min 0 W/m² -3,5 °C -2,2 °C 12,9 km/h (3 Bft)
30.01.2026 03:56 22,2 °C -2,2 °C 49 % 91 % 1002,9 hPa 0,0 l/m² 6,3 km/h (2 Bft) NO 52 ° 0 min 0 W/m² -3,5 °C -2,2 °C 8,0 km/h (2 Bft)
30.01.2026 03:57 22,2 °C -2,2 °C 49 % 91 % 1002,9 hPa 0,0 l/m² 6,2 km/h (2 Bft) O-NO 69 ° 0 min 0 W/m² -3,5 °C -2,2 °C 9,7 km/h (2 Bft)
30.01.2026 03:58 22,2 °C -2,2 °C 49 % 91 % 1002,9 hPa 0,0 l/m² 3,2 km/h (1 Bft) O-NO 78 ° 0 min 0 W/m² -3,5 °C -2,2 °C 6,4 km/h (2 Bft)
30.01.2026 04:00 22,2 °C -2,2 °C 49 % 91 % 1002,9 hPa 0,0 l/m² 5,6 km/h (2 Bft) O 81 ° 0 min 0 W/m² -3,5 °C -2,2 °C 9,7 km/h (2 Bft)
30.01.2026 04:03 22,2 °C -2,2 °C 49 % 91 % 1002,8 hPa 0,0 l/m² 5,7 km/h (2 Bft) O-NO 74 ° 0 min 0 W/m² -3,5 °C -2,2 °C 12,9 km/h (3 Bft)
30.01.2026 04:05 22,3 °C -2,2 °C 49 % 91 % 1002,7 hPa 0,0 l/m² 7,2 km/h (2 Bft) NO 54 ° 0 min 0 W/m² -3,5 °C -3,1 °C 14,5 km/h (3 Bft)
30.01.2026 04:07 22,2 °C -2,2 °C 49 % 91 % 1002,8 hPa 0,0 l/m² 9,1 km/h (2 Bft) NO 55 ° 0 min 0 W/m² -3,5 °C -5,1 °C 14,5 km/h (3 Bft)
30.01.2026 04:09 22,2 °C -2,2 °C 49 % 91 % 1002,7 hPa 0,0 l/m² 5,7 km/h (2 Bft) O 92 ° 0 min 0 W/m² -3,5 °C -2,2 °C 9,7 km/h (2 Bft)
30.01.2026 04:11 22,2 °C -2,2 °C 49 % 91 % 1002,8 hPa 0,0 l/m² 5,2 km/h (1 Bft) O-NO 61 ° 0 min 0 W/m² -3,5 °C -2,2 °C 12,9 km/h (3 Bft)
30.01.2026 04:12 22,2 °C -2,2 °C 49 % 91 % 1002,8 hPa 0,0 l/m² 2,3 km/h (1 Bft) O-NO 67 ° 0 min 0 W/m² -3,5 °C -2,2 °C 4,8 km/h (1 Bft)
30.01.2026 04:13 22,2 °C -2,2 °C 49 % 91 % 1002,7 hPa 0,0 l/m² 3,4 km/h (1 Bft) NO 54 ° 0 min 0 W/m² -3,5 °C -2,2 °C 6,4 km/h (2 Bft)
30.01.2026 04:15 22,3 °C -2,2 °C 49 % 91 % 1002,7 hPa 0,0 l/m² 3,2 km/h (1 Bft) O-NO 73 ° 0 min 0 W/m² -3,5 °C -2,2 °C 8,0 km/h (2 Bft)
30.01.2026 04:16 22,3 °C -2,2 °C 49 % 91 % 1002,7 hPa 0,0 l/m² 6,5 km/h (2 Bft) O 81 ° 0 min 0 W/m² -3,5 °C -2,3 °C 11,3 km/h (2 Bft)
30.01.2026 04:17 22,3 °C -2,2 °C 49 % 91 % 1002,8 hPa 0,0 l/m² 7,7 km/h (2 Bft) O-NO 69 ° 0 min 0 W/m² -3,5 °C -3,6 °C 12,9 km/h (3 Bft)
30.01.2026 04:18 22,3 °C -2,2 °C 49 % 91 % 1002,8 hPa 0,0 l/m² 9,2 km/h (2 Bft) O 86 ° 0 min 0 W/m² -3,5 °C -5,1 °C 11,3 km/h (2 Bft)
30.01.2026 04:20 22,3 °C -2,2 °C 49 % 91 % 1002,7 hPa 0,0 l/m² 4,7 km/h (1 Bft) O-NO 66 ° 0 min 0 W/m² -3,5 °C -2,2 °C 9,7 km/h (2 Bft)
30.01.2026 04:23 22,3 °C -2,2 °C 49 % 91 % 1002,6 hPa 0,0 l/m² 4,7 km/h (1 Bft) O-NO 65 ° 0 min 0 W/m² -3,5 °C -2,2 °C 9,7 km/h (2 Bft)
30.01.2026 04:25 22,2 °C -2,2 °C 49 % 91 % 1002,6 hPa 0,0 l/m² 5,7 km/h (2 Bft) O 81 ° 0 min 0 W/m² -3,5 °C -2,2 °C 9,7 km/h (2 Bft)
30.01.2026 04:27 22,3 °C -2,2 °C 49 % 91 % 1002,7 hPa 0,0 l/m² 6,9 km/h (2 Bft) O-NO 58 ° 0 min 0 W/m² -3,5 °C -2,7 °C 11,3 km/h (2 Bft)
30.01.2026 04:29 22,2 °C -2,2 °C 49 % 91 % 1002,6 hPa 0,0 l/m² 5,1 km/h (1 Bft) O-NO 65 ° 0 min 0 W/m² -3,5 °C -2,2 °C 12,9 km/h (3 Bft)
30.01.2026 04:31 22,2 °C -2,2 °C 49 % 91 % 1002,7 hPa 0,0 l/m² 7,3 km/h (2 Bft) O 83 ° 0 min 0 W/m² -3,5 °C -3,2 °C 12,9 km/h (3 Bft)
30.01.2026 04:32 22,3 °C -2,2 °C 49 % 91 % 1002,6 hPa 0,0 l/m² 10,3 km/h (2 Bft) O-NO 69 ° 0 min 0 W/m² -3,5 °C -6,1 °C 14,5 km/h (3 Bft)
30.01.2026 04:33 22,2 °C -2,2 °C 49 % 91 % 1002,6 hPa 0,0 l/m² 7,4 km/h (2 Bft) NO 44 ° 0 min 0 W/m² -3,5 °C -3,3 °C 11,3 km/h (2 Bft)
30.01.2026 04:35 22,2 °C -2,2 °C 49 % 91 % 1002,6 hPa 0,0 l/m² 6,4 km/h (2 Bft) O-NO 59 ° 0 min 0 W/m² -3,5 °C -2,2 °C 12,9 km/h (3 Bft)
30.01.2026 04:37 22,2 °C -2,2 °C 49 % 91 % 1002,6 hPa 0,0 l/m² 5,9 km/h (2 Bft) O-NO 76 ° 0 min 0 W/m² -3,5 °C -2,2 °C 8,0 km/h (2 Bft)
30.01.2026 04:39 22,2 °C -2,2 °C 49 % 91 % 1002,6 hPa 0,0 l/m² 6,0 km/h (2 Bft) O-SO 109 ° 0 min 0 W/m² -3,5 °C -2,2 °C 11,3 km/h (2 Bft)
30.01.2026 04:41 22,3 °C -2,3 °C 49 % 91 % 1002,7 hPa 0,0 l/m² 9,2 km/h (2 Bft) O-NO 78 ° 0 min 0 W/m² -3,6 °C -5,3 °C 12,9 km/h (3 Bft)
30.01.2026 04:42 22,2 °C -2,2 °C 49 % 91 % 1002,6 hPa 0,0 l/m² 7,0 km/h (2 Bft) O-NO 60 ° 0 min 0 W/m² -3,5 °C -2,9 °C 11,3 km/h (2 Bft)
30.01.2026 04:43 22,2 °C -2,2 °C 49 % 91 % 1002,6 hPa 0,0 l/m² 7,2 km/h (2 Bft) O 84 ° 0 min 0 W/m² -3,5 °C -3,1 °C 9,7 km/h (2 Bft)
30.01.2026 04:45 22,2 °C -2,2 °C 49 % 91 % 1002,7 hPa 0,0 l/m² 8,0 km/h (2 Bft) O-NO 59 ° 0 min 0 W/m² -3,5 °C -4,0 °C 16,1 km/h (3 Bft)
30.01.2026 04:47 22,2 °C -2,2 °C 49 % 91 % 1002,7 hPa 0,0 l/m² 4,7 km/h (1 Bft) O-NO 74 ° 0 min 0 W/m² -3,5 °C -2,2 °C 11,3 km/h (2 Bft)
30.01.2026 04:49 22,2 °C -2,2 °C 49 % 91 % 1002,7 hPa 0,0 l/m² 8,0 km/h (2 Bft) O-NO 69 ° 0 min 0 W/m² -3,5 °C -4,0 °C 16,1 km/h (3 Bft)
30.01.2026 04:51 22,2 °C -2,2 °C 49 % 91 % 1002,7 hPa 0,0 l/m² 8,0 km/h (2 Bft) O-NO 63 ° 0 min 0 W/m² -3,5 °C -4,0 °C 14,5 km/h (3 Bft)
30.01.2026 04:52 22,2 °C -2,2 °C 49 % 91 % 1002,7 hPa 0,0 l/m² 6,1 km/h (2 Bft) NO 51 ° 0 min 0 W/m² -3,5 °C -2,2 °C 8,0 km/h (2 Bft)
30.01.2026 04:53 22,2 °C -2,2 °C 49 % 91 % 1002,7 hPa 0,0 l/m² 8,4 km/h (2 Bft) O-NO 65 ° 0 min 0 W/m² -3,5 °C -4,4 °C 11,3 km/h (2 Bft)
30.01.2026 04:55 22,2 °C -2,2 °C 49 % 91 % 1002,7 hPa 0,0 l/m² 6,7 km/h (2 Bft) NO 54 ° 0 min 0 W/m² -3,5 °C -2,5 °C 11,3 km/h (2 Bft)
30.01.2026 04:56 22,2 °C -2,2 °C 49 % 91 % 1002,6 hPa 0,0 l/m² 8,1 km/h (2 Bft) O-NO 75 ° 0 min 0 W/m² -3,5 °C -4,1 °C 12,9 km/h (3 Bft)
30.01.2026 04:57 22,2 °C -2,2 °C 49 % 91 % 1002,6 hPa 0,0 l/m² 7,4 km/h (2 Bft) O 79 ° 0 min 0 W/m² -3,5 °C -3,3 °C 12,9 km/h (3 Bft)
30.01.2026 04:58 22,2 °C -2,2 °C 49 % 91 % 1002,7 hPa 0,0 l/m² 5,6 km/h (2 Bft) O-NO 78 ° 0 min 0 W/m² -3,5 °C -2,2 °C 8,0 km/h (2 Bft)
30.01.2026 05:00 22,2 °C -2,2 °C 49 % 91 % 1002,7 hPa 0,0 l/m² 5,7 km/h (2 Bft) O-NO 69 ° 0 min 0 W/m² -3,5 °C -2,2 °C 11,3 km/h (2 Bft)
30.01.2026 05:02 22,2 °C -2,2 °C 49 % 91 % 1002,7 hPa 0,0 l/m² 6,6 km/h (2 Bft) O 82 ° 0 min 0 W/m² -3,5 °C -2,4 °C 12,9 km/h (3 Bft)
30.01.2026 05:03 22,2 °C -2,2 °C 49 % 91 % 1002,7 hPa 0,0 l/m² 5,3 km/h (1 Bft) O 84 ° 0 min 0 W/m² -3,5 °C -2,2 °C 6,4 km/h (2 Bft)
30.01.2026 05:04 22,2 °C -2,3 °C 49 % 91 % 1002,7 hPa 0,0 l/m² 6,9 km/h (2 Bft) O-NO 77 ° 0 min 0 W/m² -3,6 °C -2,8 °C 14,5 km/h (3 Bft)
30.01.2026 05:05 22,2 °C -2,2 °C 49 % 91 % 1002,8 hPa 0,0 l/m² 8,2 km/h (2 Bft) O-NO 58 ° 0 min 0 W/m² -3,5 °C -4,2 °C 12,9 km/h (3 Bft)
30.01.2026 05:07 22,2 °C -2,3 °C 49 % 91 % 1002,7 hPa 0,0 l/m² 6,7 km/h (2 Bft) O-NO 65 ° 0 min 0 W/m² -3,6 °C -2,6 °C 11,3 km/h (2 Bft)
30.01.2026 05:09 22,2 °C -2,3 °C 49 % 91 % 1002,8 hPa 0,0 l/m² 7,3 km/h (2 Bft) O-NO 69 ° 0 min 0 W/m² -3,6 °C -3,3 °C 14,5 km/h (3 Bft)
30.01.2026 05:11 22,2 °C -2,2 °C 49 % 91 % 1002,8 hPa 0,0 l/m² 5,6 km/h (2 Bft) NO 56 ° 0 min 0 W/m² -3,5 °C -2,2 °C 11,3 km/h (2 Bft)
30.01.2026 05:12 22,2 °C -2,2 °C 49 % 91 % 1002,7 hPa 0,0 l/m² 2,7 km/h (1 Bft) O-NO 61 ° 0 min 0 W/m² -3,5 °C -2,2 °C 4,8 km/h (1 Bft)
30.01.2026 05:13 22,2 °C -2,2 °C 49 % 91 % 1002,7 hPa 0,0 l/m² 4,5 km/h (1 Bft) O-NO 71 ° 0 min 0 W/m² -3,5 °C -2,2 °C 6,4 km/h (2 Bft)
30.01.2026 05:14 22,2 °C -2,2 °C 49 % 91 % 1002,7 hPa 0,0 l/m² 5,7 km/h (2 Bft) O-NO 59 ° 0 min 0 W/m² -3,5 °C -2,2 °C 8,0 km/h (2 Bft)
30.01.2026 05:16 22,2 °C -2,2 °C 49 % 91 % 1002,7 hPa 0,0 l/m² 2,1 km/h (1 Bft) O-NO 65 ° 0 min 0 W/m² -3,5 °C -2,2 °C 6,4 km/h (2 Bft)
30.01.2026 05:18 22,2 °C -2,2 °C 49 % 91 % 1002,7 hPa 0,0 l/m² 7,4 km/h (2 Bft) O-NO 58 ° 0 min 0 W/m² -3,5 °C -3,3 °C 14,5 km/h (3 Bft)
30.01.2026 05:20 22,2 °C -2,2 °C 49 % 91 % 1002,6 hPa 0,0 l/m² 7,2 km/h (2 Bft) O 80 ° 0 min 0 W/m² -3,5 °C -3,1 °C 11,3 km/h (2 Bft)
30.01.2026 05:23 22,2 °C -2,2 °C 49 % 91 % 1002,7 hPa 0,0 l/m² 7,1 km/h (2 Bft) O-NO 61 ° 0 min 0 W/m² -3,5 °C -3,0 °C 12,9 km/h (3 Bft)
30.01.2026 05:25 22,2 °C -2,2 °C 49 % 91 % 1002,7 hPa 0,0 l/m² 6,5 km/h (2 Bft) NO 51 ° 0 min 0 W/m² -3,5 °C -2,3 °C 12,9 km/h (3 Bft)
30.01.2026 05:27 22,2 °C -2,2 °C 49 % 91 % 1002,6 hPa 0,0 l/m² 5,7 km/h (2 Bft) O-NO 60 ° 0 min 0 W/m² -3,5 °C -2,2 °C 9,7 km/h (2 Bft)
30.01.2026 05:29 22,2 °C -2,2 °C 49 % 91 % 1002,6 hPa 0,0 l/m² 3,7 km/h (1 Bft) O-NO 63 ° 0 min 0 W/m² -3,5 °C -2,2 °C 9,7 km/h (2 Bft)
30.01.2026 05:31 22,2 °C -2,2 °C 49 % 91 % 1002,7 hPa 0,0 l/m² 5,3 km/h (1 Bft) O-NO 77 ° 0 min 0 W/m² -3,5 °C -2,2 °C 12,9 km/h (3 Bft)
30.01.2026 05:32 22,2 °C -2,2 °C 49 % 91 % 1002,8 hPa 0,0 l/m² 9,9 km/h (2 Bft) NO 44 ° 0 min 0 W/m² -3,5 °C -5,8 °C 12,9 km/h (3 Bft)
30.01.2026 05:33 22,2 °C -2,2 °C 49 % 91 % 1002,7 hPa 0,0 l/m² 5,3 km/h (1 Bft) O 86 ° 0 min 0 W/m² -3,5 °C -2,2 °C 8,0 km/h (2 Bft)
30.01.2026 05:34 22,2 °C -2,2 °C 49 % 91 % 1002,7 hPa 0,0 l/m² 4,0 km/h (1 Bft) NO 52 ° 0 min 0 W/m² -3,5 °C -2,2 °C 6,4 km/h (2 Bft)
30.01.2026 05:36 22,2 °C -2,2 °C 49 % 91 % 1002,7 hPa 0,0 l/m² 4,0 km/h (1 Bft) O-NO 76 ° 0 min 0 W/m² -3,5 °C -2,2 °C 8,0 km/h (2 Bft)
30.01.2026 05:38 22,2 °C -2,2 °C 48 % 91 % 1002,7 hPa 0,0 l/m² 4,9 km/h (1 Bft) O-NO 71 ° 0 min 0 W/m² -3,5 °C -2,2 °C 9,7 km/h (2 Bft)
30.01.2026 05:40 22,2 °C -2,2 °C 48 % 91 % 1002,7 hPa 0,0 l/m² 6,4 km/h (2 Bft) O-NO 71 ° 0 min 0 W/m² -3,5 °C -2,2 °C 12,9 km/h (3 Bft)
30.01.2026 05:43 22,2 °C -2,2 °C 48 % 91 % 1002,8 hPa 0,0 l/m² 6,7 km/h (2 Bft) O 86 ° 0 min 0 W/m² -3,5 °C -2,5 °C 12,9 km/h (3 Bft)
30.01.2026 05:45 22,2 °C -2,2 °C 49 % 91 % 1002,8 hPa 0,0 l/m² 5,0 km/h (1 Bft) O-NO 74 ° 0 min 0 W/m² -3,5 °C -2,2 °C 11,3 km/h (2 Bft)
30.01.2026 05:47 22,2 °C -2,3 °C 49 % 91 % 1002,8 hPa 0,0 l/m² 3,4 km/h (1 Bft) O-NO 61 ° 0 min 0 W/m² -3,6 °C -2,3 °C 12,9 km/h (3 Bft)
30.01.2026 05:49 22,2 °C -2,2 °C 49 % 91 % 1002,7 hPa 0,0 l/m² 9,4 km/h (2 Bft) NO 55 ° 0 min 0 W/m² -3,5 °C -5,3 °C 14,5 km/h (3 Bft)
30.01.2026 05:51 22,2 °C -2,2 °C 49 % 91 % 1002,8 hPa 0,0 l/m² 8,6 km/h (2 Bft) O-NO 72 ° 0 min 0 W/m² -3,5 °C -4,6 °C 16,1 km/h (3 Bft)
30.01.2026 05:52 22,2 °C -2,2 °C 49 % 91 % 1002,8 hPa 0,0 l/m² 8,1 km/h (2 Bft) O-NO 69 ° 0 min 0 W/m² -3,5 °C -4,1 °C 9,7 km/h (2 Bft)
30.01.2026 05:53 22,2 °C -2,3 °C 49 % 91 % 1002,8 hPa 0,0 l/m² 6,6 km/h (2 Bft) O 80 ° 0 min 0 W/m² -3,6 °C -2,5 °C 8,0 km/h (2 Bft)
30.01.2026 05:54 22,2 °C -2,2 °C 49 % 91 % 1002,9 hPa 0,0 l/m² 6,4 km/h (2 Bft) O 83 ° 0 min 0 W/m² -3,5 °C -2,2 °C 9,7 km/h (2 Bft)
30.01.2026 05:56 22,2 °C -2,2 °C 49 % 91 % 1002,8 hPa 0,0 l/m² 3,7 km/h (1 Bft) NO 55 ° 0 min 0 W/m² -3,5 °C -2,2 °C 11,3 km/h (2 Bft)
30.01.2026 05:58 22,2 °C -2,2 °C 49 % 91 % 1002,8 hPa 0,0 l/m² 5,2 km/h (1 Bft) O-NO 69 ° 0 min 0 W/m² -3,5 °C -2,2 °C 8,0 km/h (2 Bft)
30.01.2026 06:00 22,2 °C -2,2 °C 49 % 91 % 1002,9 hPa 0,0 l/m² 3,9 km/h (1 Bft) O-NO 66 ° 0 min 0 W/m² -3,5 °C -2,2 °C 8,0 km/h (2 Bft)
30.01.2026 06:03 22,2 °C -2,2 °C 49 % 91 % 1002,9 hPa 0,0 l/m² 6,8 km/h (2 Bft) NO 51 ° 0 min 0 W/m² -3,5 °C -2,6 °C 12,9 km/h (3 Bft)
30.01.2026 06:05 22,2 °C -2,3 °C 49 % 91 % 1002,8 hPa 0,0 l/m² 7,5 km/h (2 Bft) O-NO 61 ° 0 min 0 W/m² -3,6 °C -3,5 °C 16,1 km/h (3 Bft)
30.01.2026 06:07 22,2 °C -2,3 °C 49 % 91 % 1002,9 hPa 0,0 l/m² 7,5 km/h (2 Bft) O-NO 61 ° 0 min 0 W/m² -3,6 °C -3,5 °C 12,9 km/h (3 Bft)
30.01.2026 06:09 22,2 °C -2,2 °C 49 % 91 % 1002,8 hPa 0,0 l/m² 8,5 km/h (2 Bft) O-NO 68 ° 0 min 0 W/m² -3,5 °C -4,5 °C 14,5 km/h (3 Bft)
30.01.2026 06:11 22,2 °C -2,3 °C 49 % 91 % 1002,8 hPa 0,0 l/m² 12,5 km/h (2 Bft) O 101 ° 0 min 0 W/m² -3,6 °C -8,0 °C 19,3 km/h (3 Bft)
30.01.2026 06:12 22,2 °C -2,3 °C 49 % 91 % 1002,8 hPa 0,0 l/m² 5,9 km/h (2 Bft) O 80 ° 0 min 0 W/m² -3,6 °C -2,3 °C 8,0 km/h (2 Bft)
30.01.2026 06:13 22,2 °C -2,2 °C 48 % 91 % 1002,8 hPa 0,0 l/m² 5,3 km/h (1 Bft) O 86 ° 0 min 0 W/m² -3,5 °C -2,2 °C 8,0 km/h (2 Bft)
30.01.2026 06:14 22,2 °C -2,2 °C 48 % 91 % 1002,8 hPa 0,0 l/m² 4,1 km/h (1 Bft) O 97 ° 0 min 0 W/m² -3,5 °C -2,2 °C 6,4 km/h (2 Bft)
30.01.2026 06:16 22,2 °C -2,2 °C 48 % 91 % 1002,8 hPa 0,0 l/m² 4,8 km/h (1 Bft) O-NO 66 ° 0 min 0 W/m² -3,5 °C -2,2 °C 9,7 km/h (2 Bft)
30.01.2026 06:18 22,2 °C -2,3 °C 48 % 91 % 1002,8 hPa 0,0 l/m² 7,9 km/h (2 Bft) O-NO 69 ° 0 min 0 W/m² -3,6 °C -4,0 °C 12,9 km/h (3 Bft)
30.01.2026 06:20 22,2 °C -2,3 °C 48 % 91 % 1002,9 hPa 0,0 l/m² 7,4 km/h (2 Bft) O-NO 70 ° 0 min 0 W/m² -3,6 °C -3,4 °C 11,3 km/h (2 Bft)
30.01.2026 06:23 22,2 °C -2,2 °C 48 % 91 % 1002,9 hPa 0,0 l/m² 6,4 km/h (2 Bft) O 96 ° 0 min 0 W/m² -3,5 °C -2,2 °C 12,9 km/h (3 Bft)
30.01.2026 06:26 22,2 °C -2,3 °C 48 % 91 % 1003,0 hPa 0,0 l/m² 10,6 km/h (2 Bft) O-NO 75 ° 0 min 0 W/m² -3,6 °C -6,5 °C 16,1 km/h (3 Bft)
30.01.2026 06:28 22,2 °C -2,3 °C 48 % 91 % 1003,0 hPa 0,0 l/m² 9,0 km/h (2 Bft) O-NO 78 ° 0 min 0 W/m² -3,6 °C -5,1 °C 12,9 km/h (3 Bft)
30.01.2026 06:30 22,2 °C -2,3 °C 48 % 91 % 1002,9 hPa 0,0 l/m² 7,5 km/h (2 Bft) O-NO 63 ° 0 min 0 W/m² -3,6 °C -3,5 °C 12,9 km/h (3 Bft)
30.01.2026 06:33 22,2 °C -2,3 °C 48 % 91 % 1002,9 hPa 0,0 l/m² 3,8 km/h (1 Bft) O-NO 64 ° 0 min 0 W/m² -3,6 °C -2,3 °C 8,0 km/h (2 Bft)
30.01.2026 06:36 22,3 °C -2,2 °C 48 % 91 % 1003,0 hPa 0,0 l/m² 6,9 km/h (2 Bft) N-NO 24 ° 0 min 0 W/m² -3,5 °C -2,7 °C 12,9 km/h (3 Bft)
30.01.2026 06:38 22,2 °C -2,3 °C 48 % 91 % 1003,0 hPa 0,0 l/m² 6,4 km/h (2 Bft) O-NO 76 ° 0 min 0 W/m² -3,6 °C -2,3 °C 11,3 km/h (2 Bft)
30.01.2026 06:40 22,2 °C -2,2 °C 48 % 91 % 1003,0 hPa 0,0 l/m² 6,4 km/h (2 Bft) O-NO 71 ° 0 min 0 W/m² -3,5 °C -2,2 °C 11,3 km/h (2 Bft)
30.01.2026 06:43 22,3 °C -2,3 °C 48 % 91 % 1003,0 hPa 0,0 l/m² 7,8 km/h (2 Bft) O-NO 63 ° 0 min 0 W/m² -3,6 °C -3,8 °C 12,9 km/h (3 Bft)
30.01.2026 06:45 22,3 °C -2,3 °C 48 % 91 % 1003,1 hPa 0,0 l/m² 3,9 km/h (1 Bft) NO 46 ° 0 min 0 W/m² -3,6 °C -2,3 °C 8,0 km/h (2 Bft)
30.01.2026 06:48 22,2 °C -2,3 °C 47 % 91 % 1003,2 hPa 0,0 l/m² 5,2 km/h (1 Bft) O-NO 74 ° 0 min 0 W/m² -3,6 °C -2,3 °C 9,7 km/h (2 Bft)
30.01.2026 06:50 22,2 °C -2,2 °C 47 % 91 % 1003,2 hPa 0,0 l/m² 4,3 km/h (1 Bft) O-NO 78 ° 0 min 0 W/m² -3,5 °C -2,2 °C 12,9 km/h (3 Bft)
30.01.2026 06:53 22,2 °C -2,2 °C 47 % 91 % 1003,1 hPa 0,0 l/m² 8,1 km/h (2 Bft) O-NO 65 ° 0 min 0 W/m² -3,5 °C -4,1 °C 16,1 km/h (3 Bft)
30.01.2026 06:55 22,2 °C -2,2 °C 47 % 91 % 1003,2 hPa 0,0 l/m² 9,8 km/h (2 Bft) O 84 ° 0 min 0 W/m² -3,5 °C -5,7 °C 14,5 km/h (3 Bft)
30.01.2026 06:57 22,2 °C -2,2 °C 47 % 91 % 1003,1 hPa 0,0 l/m² 7,4 km/h (2 Bft) O-NO 78 ° 0 min 0 W/m² -3,5 °C -3,3 °C 14,5 km/h (3 Bft)
30.01.2026 06:59 22,2 °C -2,2 °C 47 % 91 % 1003,2 hPa 0,0 l/m² 6,3 km/h (2 Bft) O-NO 78 ° 0 min 0 W/m² -3,5 °C -2,2 °C 11,3 km/h (2 Bft)
30.01.2026 07:01 22,2 °C -2,2 °C 47 % 91 % 1003,1 hPa 0,0 l/m² 6,2 km/h (2 Bft) O 81 ° 0 min 0 W/m² -3,5 °C -2,2 °C 12,9 km/h (3 Bft)
30.01.2026 07:02 22,2 °C -2,3 °C 47 % 91 % 1003,2 hPa 0,0 l/m² 6,4 km/h (2 Bft) O-NO 65 ° 0 min 0 W/m² -3,6 °C -2,3 °C 12,9 km/h (3 Bft)
30.01.2026 07:03 22,2 °C -2,2 °C 47 % 91 % 1003,2 hPa 0,0 l/m² 6,5 km/h (2 Bft) O 82 ° 0 min 0 W/m² -3,5 °C -2,3 °C 8,0 km/h (2 Bft)
30.01.2026 07:04 22,2 °C -2,2 °C 47 % 91 % 1003,2 hPa 0,0 l/m² 5,8 km/h (2 Bft) O 92 ° 0 min 0 W/m² -3,5 °C -2,2 °C 11,3 km/h (2 Bft)
30.01.2026 07:06 22,2 °C -2,2 °C 47 % 91 % 1003,2 hPa 0,0 l/m² 4,5 km/h (1 Bft) O-NO 78 ° 0 min 0 W/m² -3,5 °C -2,2 °C 11,3 km/h (2 Bft)
30.01.2026 07:08 22,2 °C -2,2 °C 47 % 91 % 1003,1 hPa 0,0 l/m² 5,9 km/h (2 Bft) O-NO 74 ° 0 min 0 W/m² -3,5 °C -2,2 °C 12,9 km/h (3 Bft)
30.01.2026 07:09 22,2 °C -2,2 °C 47 % 91 % 1003,1 hPa 0,0 l/m² 9,7 km/h (2 Bft) O 90 ° 0 min 0 W/m² -3,5 °C -5,6 °C 12,9 km/h (3 Bft)
30.01.2026 07:10 22,2 °C -2,2 °C 47 % 91 % 1003,1 hPa 0,0 l/m² 4,4 km/h (1 Bft) O 84 ° 0 min 0 W/m² -3,5 °C -2,2 °C 6,4 km/h (2 Bft)
30.01.2026 07:11 22,2 °C -2,2 °C 47 % 91 % 1003,1 hPa 0,0 l/m² 4,8 km/h (1 Bft) O-NO 67 ° 0 min 0 W/m² -3,5 °C -2,2 °C 8,0 km/h (2 Bft)
30.01.2026 07:17 22,2 °C -2,2 °C 47 % 91 % 1003,2 hPa 0,0 l/m² 3,1 km/h (1 Bft) NO 36 ° 0 min 0 W/m² -3,5 °C -2,2 °C 6,4 km/h (2 Bft)
30.01.2026 07:18 22,2 °C -2,2 °C 47 % 91 % 1003,1 hPa 0,0 l/m² 5,1 km/h (1 Bft) O-NO 76 ° 0 min 0 W/m² -3,5 °C -2,2 °C 9,7 km/h (2 Bft)
30.01.2026 07:19 22,2 °C -2,2 °C 47 % 91 % 1003,1 hPa 0,0 l/m² 4,1 km/h (1 Bft) O 97 ° 0 min 0 W/m² -3,5 °C -2,2 °C 9,7 km/h (2 Bft)
30.01.2026 07:21 22,2 °C -2,2 °C 47 % 91 % 1003,2 hPa 0,0 l/m² 5,6 km/h (2 Bft) NO 55 ° 0 min 0 W/m² -3,5 °C -2,2 °C 8,0 km/h (2 Bft)
30.01.2026 07:22 22,2 °C -2,2 °C 46 % 91 % 1003,2 hPa 0,0 l/m² 5,3 km/h (1 Bft) NO 36 ° 0 min 0 W/m² -3,5 °C -2,2 °C 8,0 km/h (2 Bft)
30.01.2026 07:23 22,2 °C -2,3 °C 46 % 91 % 1003,1 hPa 0,0 l/m² 8,3 km/h (2 Bft) O 89 ° 0 min 0 W/m² -3,6 °C -4,4 °C 11,3 km/h (2 Bft)
30.01.2026 07:25 22,2 °C -2,3 °C 46 % 91 % 1003,2 hPa 0,0 l/m² 7,3 km/h (2 Bft) O-NO 67 ° 0 min 0 W/m² -3,6 °C -3,3 °C 12,9 km/h (3 Bft)
30.01.2026 07:26 22,2 °C -2,2 °C 46 % 91 % 1003,3 hPa 0,0 l/m² 4,5 km/h (1 Bft) NO 53 ° 0 min 0 W/m² -3,5 °C -2,2 °C 6,4 km/h (2 Bft)
30.01.2026 07:27 22,2 °C -2,2 °C 46 % 91 % 1003,3 hPa 0,0 l/m² 3,1 km/h (1 Bft) N-NO 28 ° 0 min 0 W/m² -3,5 °C -2,2 °C 6,4 km/h (2 Bft)
30.01.2026 07:29 22,2 °C -2,2 °C 46 % 91 % 1003,3 hPa 0,0 l/m² 5,5 km/h (2 Bft) O-NO 73 ° 0 min 0 W/m² -3,5 °C -2,2 °C 9,7 km/h (2 Bft)
30.01.2026 07:30 22,2 °C -2,2 °C 46 % 91 % 1003,2 hPa 0,0 l/m² 6,6 km/h (2 Bft) O-NO 65 ° 0 min 0 W/m² -3,5 °C -2,4 °C 11,3 km/h (2 Bft)
30.01.2026 07:32 22,2 °C -2,2 °C 46 % 91 % 1003,3 hPa 0,0 l/m² 5,6 km/h (2 Bft) O 84 ° 0 min 0 W/m² -3,5 °C -2,2 °C 11,3 km/h (2 Bft)
30.01.2026 07:34 22,2 °C -2,2 °C 46 % 91 % 1003,3 hPa 0,0 l/m² 5,5 km/h (2 Bft) O-NO 69 ° 0 min 0 W/m² -3,5 °C -2,2 °C 8,0 km/h (2 Bft)
30.01.2026 07:36 22,2 °C -2,2 °C 45 % 91 % 1003,3 hPa 0,0 l/m² 7,7 km/h (2 Bft) O-NO 63 ° 0 min 0 W/m² -3,5 °C -3,6 °C 12,9 km/h (3 Bft)
30.01.2026 07:38 22,2 °C -2,2 °C 46 % 91 % 1003,2 hPa 0,0 l/m² 5,9 km/h (2 Bft) O 88 ° 0 min 0 W/m² -3,5 °C -2,2 °C 11,3 km/h (2 Bft)
30.01.2026 07:40 22,2 °C -2,2 °C 46 % 91 % 1003,3 hPa 0,0 l/m² 7,4 km/h (2 Bft) O-NO 78 ° 0 min 0 W/m² -3,5 °C -3,3 °C 11,3 km/h (2 Bft)
30.01.2026 07:41 22,2 °C -2,2 °C 46 % 91 % 1003,3 hPa 0,0 l/m² 9,1 km/h (2 Bft) O-NO 76 ° 0 min 0 W/m² -3,5 °C -5,1 °C 12,9 km/h (3 Bft)
30.01.2026 07:42 22,2 °C -2,2 °C 46 % 91 % 1003,2 hPa 0,0 l/m² 6,7 km/h (2 Bft) O-NO 64 ° 0 min 0 W/m² -3,5 °C -2,5 °C 9,7 km/h (2 Bft)
30.01.2026 07:44 22,2 °C -2,2 °C 46 % 91 % 1003,3 hPa 0,0 l/m² 7,0 km/h (2 Bft) O-NO 67 ° 0 min 0 W/m² -3,5 °C -2,9 °C 12,9 km/h (3 Bft)
30.01.2026 07:46 22,2 °C -2,2 °C 46 % 91 % 1003,3 hPa 0,0 l/m² 5,3 km/h (1 Bft) O-NO 68 ° 0 min 0 W/m² -3,5 °C -2,2 °C 12,9 km/h (3 Bft)
30.01.2026 07:48 22,2 °C -2,2 °C 46 % 91 % 1003,3 hPa 0,0 l/m² 5,9 km/h (2 Bft) NO 53 ° 0 min 0 W/m² -3,5 °C -2,2 °C 11,3 km/h (2 Bft)
30.01.2026 07:50 22,2 °C -2,2 °C 46 % 91 % 1003,3 hPa 0,0 l/m² 8,6 km/h (2 Bft) O 83 ° 0 min 0 W/m² -3,5 °C -4,6 °C 17,7 km/h (3 Bft)
30.01.2026 07:51 22,2 °C -2,2 °C 46 % 91 % 1003,3 hPa 0,0 l/m² 8,0 km/h (2 Bft) O-NO 59 ° 0 min 0 W/m² -3,5 °C -4,0 °C 11,3 km/h (2 Bft)
30.01.2026 07:52 22,2 °C -2,2 °C 46 % 91 % 1003,3 hPa 0,0 l/m² 4,9 km/h (1 Bft) O-NO 74 ° 0 min 0 W/m² -3,5 °C -2,2 °C 8,0 km/h (2 Bft)
30.01.2026 07:54 22,2 °C -2,2 °C 46 % 91 % 1003,4 hPa 0,0 l/m² 8,5 km/h (2 Bft) NO 46 ° 0 min 0 W/m² -3,5 °C -4,5 °C 12,9 km/h (3 Bft)
30.01.2026 07:56 22,1 °C -2,2 °C 46 % 92 % 1003,3 hPa 0,0 l/m² 7,0 km/h (2 Bft) O 87 ° 0 min 0 W/m² -3,3 °C -2,9 °C 12,9 km/h (3 Bft)
30.01.2026 07:58 22,2 °C -2,2 °C 46 % 92 % 1003,3 hPa 0,0 l/m² 5,6 km/h (2 Bft) O-NO 78 ° 0 min 0 W/m² -3,3 °C -2,2 °C 11,3 km/h (2 Bft)
30.01.2026 08:00 22,2 °C -2,2 °C 46 % 91 % 1003,3 hPa 0,0 l/m² 3,8 km/h (1 Bft) O 80 ° 0 min 0 W/m² -3,5 °C -2,2 °C 8,0 km/h (2 Bft)
30.01.2026 08:01 22,2 °C -2,2 °C 46 % 92 % 1003,3 hPa 0,0 l/m² 5,1 km/h (1 Bft) O-NO 64 ° 0 min 0 W/m² -3,3 °C -2,2 °C 11,3 km/h (2 Bft)
30.01.2026 08:02 22,2 °C -2,2 °C 46 % 91 % 1003,3 hPa 0,0 l/m² 6,5 km/h (2 Bft) O 96 ° 0 min 0 W/m² -3,5 °C -2,3 °C 9,7 km/h (2 Bft)
30.01.2026 08:04 22,2 °C -2,2 °C 46 % 92 % 1003,4 hPa 0,0 l/m² 7,3 km/h (2 Bft) O 88 ° 0 min 0 W/m² -3,3 °C -3,2 °C 16,1 km/h (3 Bft)
30.01.2026 08:06 22,1 °C -2,2 °C 46 % 92 % 1003,3 hPa 0,0 l/m² 8,6 km/h (2 Bft) O-NO 59 ° 0 min 0 W/m² -3,3 °C -4,6 °C 14,5 km/h (3 Bft)
30.01.2026 08:08 22,1 °C -2,2 °C 46 % 92 % 1003,4 hPa 0,0 l/m² 8,8 km/h (2 Bft) O-NO 69 ° 0 min 0 W/m² -3,3 °C -4,8 °C 14,5 km/h (3 Bft)
30.01.2026 08:10 22,2 °C -2,2 °C 46 % 92 % 1003,3 hPa 0,0 l/m² 5,3 km/h (1 Bft) O-NO 75 ° 0 min 0 W/m² -3,3 °C -2,2 °C 9,7 km/h (2 Bft)
30.01.2026 08:11 22,2 °C -2,2 °C 46 % 92 % 1003,4 hPa 0,0 l/m² 5,6 km/h (2 Bft) O 80 ° 0 min 0 W/m² -3,3 °C -2,2 °C 12,9 km/h (3 Bft)
30.01.2026 08:12 22,2 °C -2,2 °C 46 % 92 % 1003,4 hPa 0,0 l/m² 10,6 km/h (2 Bft) O 79 ° 0 min 0 W/m² -3,3 °C -6,4 °C 14,5 km/h (3 Bft)
30.01.2026 08:14 22,2 °C -2,1 °C 46 % 92 % 1003,4 hPa 0,0 l/m² 6,5 km/h (2 Bft) O-NO 76 ° 0 min 0 W/m² -3,2 °C -2,2 °C 11,3 km/h (2 Bft)
30.01.2026 08:16 22,2 °C -2,1 °C 46 % 92 % 1003,5 hPa 0,0 l/m² 3,6 km/h (1 Bft) O 82 ° 0 min 0 W/m² -3,2 °C -2,1 °C 8,0 km/h (2 Bft)
30.01.2026 08:18 22,1 °C -2,1 °C 46 % 92 % 1003,5 hPa 0,0 l/m² 8,1 km/h (2 Bft) O-NO 57 ° 0 min 0 W/m² -3,2 °C -4,0 °C 14,5 km/h (3 Bft)
30.01.2026 08:20 22,2 °C -2,1 °C 46 % 92 % 1003,5 hPa 0,0 l/m² 4,7 km/h (1 Bft) O-NO 69 ° 0 min 0 W/m² -3,2 °C -2,1 °C 8,0 km/h (2 Bft)
30.01.2026 08:21 22,1 °C -2,1 °C 46 % 92 % 1003,5 hPa 0,0 l/m² 5,5 km/h (2 Bft) O-NO 67 ° 0 min 5 W/m² -3,2 °C -2,1 °C 8,0 km/h (2 Bft)
30.01.2026 08:22 22,1 °C -2,1 °C 46 % 92 % 1003,5 hPa 0,0 l/m² 8,9 km/h (2 Bft) O 86 ° 0 min 5 W/m² -3,2 °C -4,8 °C 12,9 km/h (3 Bft)
30.01.2026 08:24 22,1 °C -2,1 °C 46 % 92 % 1003,4 hPa 0,0 l/m² 7,0 km/h (2 Bft) O 87 ° 0 min 5 W/m² -3,2 °C -2,8 °C 12,9 km/h (3 Bft)
30.01.2026 08:26 22,1 °C -2,1 °C 46 % 92 % 1003,4 hPa 0,0 l/m² 5,2 km/h (1 Bft) O-NO 78 ° 0 min 5 W/m² -3,2 °C -2,1 °C 11,3 km/h (2 Bft)
30.01.2026 08:28 22,1 °C -2,1 °C 46 % 92 % 1003,4 hPa 0,0 l/m² 7,2 km/h (2 Bft) O 87 ° 0 min 7 W/m² -3,2 °C -3,0 °C 14,5 km/h (3 Bft)
30.01.2026 08:30 22,2 °C -2,1 °C 46 % 91 % 1003,4 hPa 0,0 l/m² 6,5 km/h (2 Bft) O 80 ° 0 min 7 W/m² -3,4 °C -2,2 °C 14,5 km/h (3 Bft)
30.01.2026 08:31 22,2 °C -2,1 °C 46 % 91 % 1003,5 hPa 0,0 l/m² 9,8 km/h (2 Bft) O-NO 72 ° 0 min 7 W/m² -3,4 °C -5,6 °C 14,5 km/h (3 Bft)
30.01.2026 08:32 22,2 °C -2,1 °C 46 % 92 % 1003,5 hPa 0,0 l/m² 8,4 km/h (2 Bft) O-NO 59 ° 0 min 7 W/m² -3,2 °C -4,3 °C 12,9 km/h (3 Bft)
30.01.2026 08:34 22,2 °C -2,1 °C 46 % 92 % 1003,4 hPa 0,0 l/m² 9,6 km/h (2 Bft) NO 51 ° 0 min 7 W/m² -3,2 °C -5,4 °C 16,1 km/h (3 Bft)
30.01.2026 08:36 22,2 °C -2,1 °C 46 % 91 % 1003,4 hPa 0,0 l/m² 6,9 km/h (2 Bft) O-NO 67 ° 0 min 7 W/m² -3,4 °C -2,6 °C 11,3 km/h (2 Bft)
30.01.2026 08:38 22,2 °C -2,1 °C 46 % 92 % 1003,4 hPa 0,0 l/m² 11,1 km/h (2 Bft) O-NO 63 ° 0 min 7 W/m² -3,2 °C -6,7 °C 16,1 km/h (3 Bft)
30.01.2026 08:40 22,2 °C -2,1 °C 47 % 92 % 1003,4 hPa 0,0 l/m² 8,5 km/h (2 Bft) NO 51 ° 0 min 9 W/m² -3,2 °C -4,4 °C 12,9 km/h (3 Bft)
30.01.2026 08:41 22,2 °C -2,0 °C 47 % 92 % 1003,5 hPa 0,0 l/m² 7,9 km/h (2 Bft) O-NO 62 ° 0 min 9 W/m² -3,1 °C -3,6 °C 14,5 km/h (3 Bft)
30.01.2026 08:42 22,2 °C -2,1 °C 47 % 92 % 1003,5 hPa 0,0 l/m² 7,7 km/h (2 Bft) O-NO 67 ° 0 min 9 W/m² -3,2 °C -3,5 °C 16,1 km/h (3 Bft)
30.01.2026 08:44 22,2 °C -2,1 °C 47 % 92 % 1003,5 hPa 0,0 l/m² 8,9 km/h (2 Bft) O-NO 63 ° 0 min 9 W/m² -3,2 °C -4,8 °C 14,5 km/h (3 Bft)
30.01.2026 08:46 22,2 °C -2,1 °C 47 % 92 % 1003,5 hPa 0,0 l/m² 7,6 km/h (2 Bft) O-NO 63 ° 0 min 11 W/m² -3,2 °C -3,4 °C 14,5 km/h (3 Bft)
30.01.2026 08:48 22,2 °C -2,0 °C 47 % 92 % 1003,5 hPa 0,0 l/m² 4,5 km/h (1 Bft) O 84 ° 0 min 11 W/m² -3,1 °C -2,0 °C 14,5 km/h (3 Bft)
30.01.2026 08:50 22,2 °C -2,0 °C 47 % 92 % 1003,5 hPa 0,0 l/m² 8,6 km/h (2 Bft) O 91 ° 0 min 11 W/m² -3,1 °C -4,4 °C 14,5 km/h (3 Bft)
30.01.2026 08:51 22,2 °C -2,0 °C 47 % 92 % 1003,5 hPa 0,0 l/m² 7,5 km/h (2 Bft) O-NO 58 ° 0 min 11 W/m² -3,1 °C -3,2 °C 14,5 km/h (3 Bft)
30.01.2026 08:52 22,2 °C -2,0 °C 47 % 92 % 1003,5 hPa 0,0 l/m² 5,7 km/h (2 Bft) O-NO 61 ° 0 min 11 W/m² -3,1 °C -2,0 °C 9,7 km/h (2 Bft)
30.01.2026 08:54 22,2 °C -2,0 °C 47 % 92 % 1003,5 hPa 0,0 l/m² 6,0 km/h (2 Bft) O-NO 67 ° 0 min 12 W/m² -3,1 °C -2,0 °C 9,7 km/h (2 Bft)
30.01.2026 08:56 22,2 °C -2,0 °C 47 % 92 % 1003,5 hPa 0,0 l/m² 6,4 km/h (2 Bft) O 80 ° 0 min 12 W/m² -3,1 °C -2,0 °C 12,9 km/h (3 Bft)
30.01.2026 08:58 22,2 °C -1,9 °C 47 % 92 % 1003,6 hPa 0,0 l/m² 6,6 km/h (2 Bft) O-NO 67 ° 0 min 12 W/m² -3,0 °C -2,1 °C 12,9 km/h (3 Bft)
30.01.2026 09:00 22,2 °C -2,0 °C 47 % 92 % 1003,6 hPa 0,0 l/m² 7,6 km/h (2 Bft) O-NO 67 ° 0 min 12 W/m² -3,1 °C -3,3 °C 12,9 km/h (3 Bft)
30.01.2026 09:01 22,2 °C -1,9 °C 47 % 92 % 1003,6 hPa 0,0 l/m² 9,2 km/h (2 Bft) O 81 ° 0 min 12 W/m² -3,0 °C -4,8 °C 16,1 km/h (3 Bft)
30.01.2026 09:02 22,2 °C -1,9 °C 47 % 92 % 1003,6 hPa 0,0 l/m² 8,7 km/h (2 Bft) O 81 ° 0 min 12 W/m² -3,0 °C -4,3 °C 14,5 km/h (3 Bft)
30.01.2026 09:04 22,2 °C -1,9 °C 47 % 92 % 1003,6 hPa 0,0 l/m² 8,0 km/h (2 Bft) O 81 ° 0 min 12 W/m² -3,0 °C -3,6 °C 14,5 km/h (3 Bft)
30.01.2026 09:06 22,2 °C -1,9 °C 47 % 92 % 1003,7 hPa 0,0 l/m² 9,1 km/h (2 Bft) O-NO 76 ° 0 min 14 W/m² -3,0 °C -4,7 °C 14,5 km/h (3 Bft)
30.01.2026 09:07 22,2 °C -1,9 °C 47 % 92 % 1003,6 hPa 0,0 l/m² 11,3 km/h (2 Bft) O 83 ° 0 min 14 W/m² -3,0 °C -6,6 °C 16,1 km/h (3 Bft)
30.01.2026 09:10 22,2 °C -1,9 °C 47 % 92 % 1003,7 hPa 0,0 l/m² 7,4 km/h (2 Bft) O-NO 78 ° 0 min 14 W/m² -3,0 °C -3,0 °C 12,9 km/h (3 Bft)
30.01.2026 09:11 22,2 °C -1,9 °C 47 % 92 % 1003,7 hPa 0,0 l/m² 3,9 km/h (1 Bft) NO 55 ° 0 min 16 W/m² -3,0 °C -1,9 °C 8,0 km/h (2 Bft)
30.01.2026 09:12 22,2 °C -1,9 °C 47 % 92 % 1003,7 hPa 0,0 l/m² 3,6 km/h (1 Bft) O-NO 74 ° 0 min 16 W/m² -3,0 °C -1,9 °C 8,0 km/h (2 Bft)
30.01.2026 09:14 22,2 °C -1,9 °C 47 % 92 % 1003,6 hPa 0,0 l/m² 7,8 km/h (2 Bft) O-NO 76 ° 0 min 16 W/m² -3,0 °C -3,4 °C 12,9 km/h (3 Bft)
30.01.2026 09:16 22,2 °C -1,9 °C 47 % 92 % 1003,7 hPa 0,0 l/m² 8,8 km/h (2 Bft) O-NO 76 ° 0 min 18 W/m² -3,0 °C -4,4 °C 14,5 km/h (3 Bft)
30.01.2026 09:18 22,2 °C -1,9 °C 47 % 92 % 1003,6 hPa 0,0 l/m² 7,8 km/h (2 Bft) O-NO 74 ° 0 min 19 W/m² -3,0 °C -3,4 °C 14,5 km/h (3 Bft)
30.01.2026 09:20 22,2 °C -1,8 °C 47 % 92 % 1003,7 hPa 0,0 l/m² 7,3 km/h (2 Bft) NO 52 ° 0 min 21 W/m² -2,9 °C -2,8 °C 14,5 km/h (3 Bft)
30.01.2026 09:21 22,2 °C -1,8 °C 47 % 92 % 1003,7 hPa 0,0 l/m² 5,7 km/h (2 Bft) O-NO 73 ° 0 min 21 W/m² -2,9 °C -1,8 °C 9,7 km/h (2 Bft)
30.01.2026 09:22 22,2 °C -1,8 °C 47 % 92 % 1003,7 hPa 0,0 l/m² 5,1 km/h (1 Bft) O 84 ° 0 min 21 W/m² -2,9 °C -1,8 °C 8,0 km/h (2 Bft)
30.01.2026 09:24 22,2 °C -1,8 °C 47 % 92 % 1003,8 hPa 0,0 l/m² 2,5 km/h (1 Bft) O-NO 71 ° 0 min 23 W/m² -2,9 °C -1,8 °C 4,8 km/h (1 Bft)
30.01.2026 09:26 22,2 °C -1,8 °C 47 % 92 % 1003,7 hPa 0,0 l/m² 7,2 km/h (2 Bft) O 82 ° 0 min 21 W/m² -2,9 °C -2,7 °C 12,9 km/h (3 Bft)
30.01.2026 09:28 22,2 °C -1,8 °C 47 % 92 % 1003,7 hPa 0,0 l/m² 7,2 km/h (2 Bft) O 82 ° 0 min 21 W/m² -2,9 °C -2,7 °C 12,9 km/h (3 Bft)
30.01.2026 09:30 22,2 °C -1,8 °C 47 % 92 % 1003,7 hPa 0,0 l/m² 7,9 km/h (2 Bft) O-NO 73 ° 0 min 21 W/m² -2,9 °C -3,4 °C 12,9 km/h (3 Bft)
30.01.2026 09:31 22,2 °C -1,8 °C 47 % 92 % 1003,7 hPa 0,0 l/m² 6,4 km/h (2 Bft) O-NO 61 ° 0 min 23 W/m² -2,9 °C -1,8 °C 11,3 km/h (2 Bft)
30.01.2026 09:32 22,2 °C -1,7 °C 47 % 92 % 1003,7 hPa 0,0 l/m² 5,9 km/h (2 Bft) NO 49 ° 0 min 23 W/m² -2,8 °C -1,7 °C 8,0 km/h (2 Bft)
30.01.2026 09:34 22,2 °C -1,7 °C 47 % 92 % 1003,7 hPa 0,0 l/m² 6,1 km/h (2 Bft) O 79 ° 0 min 25 W/m² -2,8 °C -1,7 °C 11,3 km/h (2 Bft)
30.01.2026 09:36 22,2 °C -1,7 °C 47 % 92 % 1003,8 hPa 0,0 l/m² 6,6 km/h (2 Bft) NO 43 ° 0 min 26 W/m² -2,8 °C -1,9 °C 11,3 km/h (2 Bft)
30.01.2026 09:38 22,3 °C -1,7 °C 47 % 92 % 1003,8 hPa 0,0 l/m² 7,1 km/h (2 Bft) O 82 ° 0 min 28 W/m² -2,8 °C -2,5 °C 11,3 km/h (2 Bft)
30.01.2026 09:40 22,2 °C -1,7 °C 47 % 92 % 1003,8 hPa 0,0 l/m² 7,9 km/h (2 Bft) O-NO 74 ° 0 min 30 W/m² -2,8 °C -3,3 °C 12,9 km/h (3 Bft)
30.01.2026 09:41 22,3 °C -1,7 °C 47 % 92 % 1003,6 hPa 0,0 l/m² 6,3 km/h (2 Bft) O 90 ° 0 min 32 W/m² -2,8 °C -1,7 °C 8,0 km/h (2 Bft)
30.01.2026 09:42 22,3 °C -1,7 °C 47 % 92 % 1003,6 hPa 0,0 l/m² 10,8 km/h (2 Bft) O-NO 73 ° 0 min 32 W/m² -2,8 °C -6,0 °C 14,5 km/h (3 Bft)
30.01.2026 09:44 22,3 °C -1,7 °C 47 % 92 % 1003,8 hPa 0,0 l/m² 7,3 km/h (2 Bft) O 87 ° 0 min 33 W/m² -2,8 °C -2,7 °C 11,3 km/h (2 Bft)
30.01.2026 09:46 22,3 °C -1,7 °C 47 % 92 % 1003,7 hPa 0,0 l/m² 7,7 km/h (2 Bft) O-NO 68 ° 0 min 35 W/m² -2,8 °C -3,1 °C 11,3 km/h (2 Bft)
30.01.2026 09:48 22,2 °C -1,6 °C 47 % 92 % 1003,7 hPa 0,0 l/m² 4,6 km/h (1 Bft) O-NO 70 ° 0 min 37 W/m² -2,7 °C -1,6 °C 9,7 km/h (2 Bft)
30.01.2026 09:50 22,3 °C -1,6 °C 47 % 92 % 1003,7 hPa 0,0 l/m² 7,6 km/h (2 Bft) O-NO 77 ° 0 min 39 W/m² -2,7 °C -2,9 °C 12,9 km/h (3 Bft)
30.01.2026 09:51 22,3 °C -1,6 °C 47 % 92 % 1003,8 hPa 0,0 l/m² 6,0 km/h (2 Bft) O 86 ° 0 min 39 W/m² -2,7 °C -1,6 °C 11,3 km/h (2 Bft)
30.01.2026 09:52 22,3 °C -1,6 °C 47 % 92 % 1003,8 hPa 0,0 l/m² 8,8 km/h (2 Bft) NO 51 ° 0 min 40 W/m² -2,7 °C -4,1 °C 12,9 km/h (3 Bft)
30.01.2026 09:54 22,3 °C -1,6 °C 47 % 92 % 1003,8 hPa 0,0 l/m² 10,6 km/h (2 Bft) O-NO 78 ° 0 min 42 W/m² -2,7 °C -5,7 °C 16,1 km/h (3 Bft)
30.01.2026 09:56 22,3 °C -1,6 °C 47 % 92 % 1003,7 hPa 0,0 l/m² 9,0 km/h (2 Bft) O-NO 72 ° 0 min 44 W/m² -2,7 °C -4,3 °C 16,1 km/h (3 Bft)
30.01.2026 09:58 22,3 °C -1,6 °C 47 % 92 % 1003,8 hPa 0,0 l/m² 7,4 km/h (2 Bft) O 87 ° 0 min 44 W/m² -2,7 °C -2,7 °C 12,9 km/h (3 Bft)
30.01.2026 10:00 22,3 °C -1,6 °C 47 % 92 % 1003,8 hPa 0,0 l/m² 8,7 km/h (2 Bft) O-NO 64 ° 0 min 44 W/m² -2,7 °C -4,0 °C 16,1 km/h (3 Bft)
30.01.2026 10:01 22,3 °C -1,5 °C 47 % 91 % 1003,8 hPa 0,0 l/m² 13,8 km/h (3 Bft) O-NO 73 ° 0 min 44 W/m² -2,8 °C -8,0 °C 19,3 km/h (3 Bft)
30.01.2026 10:02 22,3 °C -1,5 °C 47 % 91 % 1003,8 hPa 0,0 l/m² 10,3 km/h (2 Bft) NO 44 ° 0 min 42 W/m² -2,8 °C -5,4 °C 14,5 km/h (3 Bft)
30.01.2026 10:04 22,3 °C -1,5 °C 47 % 91 % 1003,8 hPa 0,0 l/m² 6,8 km/h (2 Bft) O 95 ° 0 min 42 W/m² -2,8 °C -1,9 °C 11,3 km/h (2 Bft)
30.01.2026 10:06 22,3 °C -1,5 °C 47 % 91 % 1003,8 hPa 0,0 l/m² 8,5 km/h (2 Bft) O-NO 72 ° 0 min 42 W/m² -2,8 °C -3,7 °C 12,9 km/h (3 Bft)
30.01.2026 10:08 22,3 °C -1,5 °C 47 % 91 % 1003,8 hPa 0,0 l/m² 11,1 km/h (2 Bft) O-NO 74 ° 0 min 40 W/m² -2,8 °C -6,0 °C 17,7 km/h (3 Bft)
30.01.2026 10:10 22,3 °C -1,5 °C 47 % 91 % 1003,8 hPa 0,0 l/m² 6,7 km/h (2 Bft) O 81 ° 0 min 42 W/m² -2,8 °C -1,8 °C 12,9 km/h (3 Bft)
30.01.2026 10:11 22,3 °C -1,4 °C 47 % 91 % 1003,8 hPa 0,0 l/m² 5,2 km/h (1 Bft) NO 56 ° 0 min 44 W/m² -2,7 °C -1,4 °C 8,0 km/h (2 Bft)
30.01.2026 10:12 22,3 °C -1,5 °C 47 % 92 % 1003,8 hPa 0,0 l/m² 6,7 km/h (2 Bft) O-NO 64 ° 0 min 42 W/m² -2,6 °C -1,8 °C 14,5 km/h (3 Bft)
30.01.2026 10:14 22,3 °C -1,4 °C 47 % 91 % 1003,8 hPa 0,0 l/m² 9,0 km/h (2 Bft) O 80 ° 0 min 42 W/m² -2,7 °C -4,1 °C 14,5 km/h (3 Bft)
30.01.2026 10:16 22,3 °C -1,4 °C 47 % 91 % 1003,8 hPa 0,0 l/m² 8,8 km/h (2 Bft) O 86 ° 0 min 42 W/m² -2,7 °C -3,9 °C 14,5 km/h (3 Bft)
30.01.2026 10:18 22,3 °C -1,4 °C 47 % 91 % 1003,8 hPa 0,0 l/m² 8,5 km/h (2 Bft) O-NO 77 ° 0 min 40 W/m² -2,7 °C -3,6 °C 14,5 km/h (3 Bft)
30.01.2026 10:20 22,3 °C -1,4 °C 47 % 91 % 1003,7 hPa 0,0 l/m² 11,9 km/h (2 Bft) NO 46 ° 0 min 39 W/m² -2,7 °C -6,5 °C 17,7 km/h (3 Bft)
30.01.2026 10:21 22,3 °C -1,4 °C 47 % 91 % 1003,8 hPa 0,0 l/m² 8,7 km/h (2 Bft) O 80 ° 0 min 39 W/m² -2,7 °C -3,8 °C 12,9 km/h (3 Bft)
30.01.2026 10:22 22,3 °C -1,4 °C 47 % 91 % 1003,8 hPa 0,0 l/m² 5,3 km/h (1 Bft) O 80 ° 0 min 40 W/m² -2,7 °C -1,4 °C 9,7 km/h (2 Bft)
30.01.2026 10:24 22,3 °C -1,4 °C 47 % 91 % 1003,8 hPa 0,0 l/m² 9,0 km/h (2 Bft) O 94 ° 0 min 42 W/m² -2,7 °C -4,1 °C 14,5 km/h (3 Bft)
30.01.2026 10:26 22,3 °C -1,4 °C 47 % 91 % 1003,7 hPa 0,0 l/m² 11,3 km/h (2 Bft) O-NO 66 ° 0 min 46 W/m² -2,7 °C -6,1 °C 16,1 km/h (3 Bft)
30.01.2026 10:28 22,3 °C -1,4 °C 47 % 91 % 1003,8 hPa 0,0 l/m² 10,2 km/h (2 Bft) O 86 ° 0 min 47 W/m² -2,7 °C -5,2 °C 14,5 km/h (3 Bft)
30.01.2026 10:30 22,3 °C -1,3 °C 47 % 91 % 1003,8 hPa 0,0 l/m² 7,4 km/h (2 Bft) O-NO 59 ° 0 min 49 W/m² -2,6 °C -2,4 °C 12,9 km/h (3 Bft)
30.01.2026 10:31 22,3 °C -1,3 °C 47 % 91 % 1003,8 hPa 0,0 l/m² 6,9 km/h (2 Bft) O-NO 70 ° 0 min 51 W/m² -2,6 °C -1,8 °C 14,5 km/h (3 Bft)
30.01.2026 10:32 22,3 °C -1,3 °C 47 % 91 % 1003,8 hPa 0,0 l/m² 10,1 km/h (2 Bft) O-NO 72 ° 0 min 51 W/m² -2,6 °C -5,0 °C 14,5 km/h (3 Bft)
30.01.2026 10:34 22,3 °C -1,3 °C 47 % 91 % 1003,7 hPa 0,0 l/m² 7,5 km/h (2 Bft) O-NO 74 ° 2 min 53 W/m² -2,6 °C -2,5 °C 12,9 km/h (3 Bft)
30.01.2026 10:36 22,3 °C -1,3 °C 47 % 91 % 1003,8 hPa 0,0 l/m² 10,8 km/h (2 Bft) O-NO 76 ° 2 min 53 W/m² -2,6 °C -5,6 °C 16,1 km/h (3 Bft)
30.01.2026 10:38 22,3 °C -1,2 °C 47 % 91 % 1003,8 hPa 0,0 l/m² 9,5 km/h (2 Bft) O 84 ° 2 min 53 W/m² -2,5 °C -4,3 °C 14,5 km/h (3 Bft)
30.01.2026 10:40 22,3 °C -1,2 °C 47 % 91 % 1003,8 hPa 0,0 l/m² 9,6 km/h (2 Bft) O-NO 78 ° 2 min 53 W/m² -2,5 °C -4,4 °C 16,1 km/h (3 Bft)
30.01.2026 10:41 22,3 °C -1,2 °C 47 % 91 % 1003,8 hPa 0,0 l/m² 9,2 km/h (2 Bft) O-NO 69 ° 1 min 54 W/m² -2,5 °C -4,1 °C 12,9 km/h (3 Bft)
30.01.2026 10:42 22,3 °C -1,2 °C 47 % 91 % 1003,9 hPa 0,0 l/m² 8,4 km/h (2 Bft) O-NO 66 ° 1 min 54 W/m² -2,5 °C -3,3 °C 12,9 km/h (3 Bft)
30.01.2026 10:44 22,3 °C -1,2 °C 47 % 91 % 1003,8 hPa 0,0 l/m² 9,2 km/h (2 Bft) O-NO 67 ° 2 min 54 W/m² -2,5 °C -4,1 °C 14,5 km/h (3 Bft)
30.01.2026 10:46 22,3 °C -1,2 °C 47 % 91 % 1003,9 hPa 0,0 l/m² 9,1 km/h (2 Bft) O-NO 76 ° 2 min 54 W/m² -2,5 °C -4,0 °C 17,7 km/h (3 Bft)
30.01.2026 10:48 22,3 °C -1,2 °C 47 % 91 % 1004,0 hPa 0,0 l/m² 7,6 km/h (2 Bft) O 84 ° 0 min 51 W/m² -2,5 °C -2,5 °C 12,9 km/h (3 Bft)
30.01.2026 10:50 22,3 °C -1,2 °C 47 % 91 % 1003,9 hPa 0,0 l/m² 7,7 km/h (2 Bft) O-NO 71 ° 0 min 51 W/m² -2,5 °C -2,6 °C 12,9 km/h (3 Bft)
30.01.2026 10:51 22,3 °C -1,2 °C 47 % 91 % 1004,0 hPa 0,0 l/m² 7,3 km/h (2 Bft) O-NO 77 ° 0 min 51 W/m² -2,5 °C -2,2 °C 11,3 km/h (2 Bft)
30.01.2026 10:52 22,3 °C -1,1 °C 47 % 91 % 1004,0 hPa 0,0 l/m² 10,3 km/h (2 Bft) O-NO 71 ° 0 min 51 W/m² -2,4 °C -4,9 °C 12,9 km/h (3 Bft)
30.01.2026 10:54 22,3 °C -1,2 °C 47 % 91 % 1003,9 hPa 0,0 l/m² 8,2 km/h (2 Bft) O 87 ° 0 min 49 W/m² -2,5 °C -3,1 °C 11,3 km/h (2 Bft)
30.01.2026 10:56 22,3 °C -1,2 °C 47 % 91 % 1003,9 hPa 0,0 l/m² 9,1 km/h (2 Bft) O 88 ° 0 min 49 W/m² -2,5 °C -4,0 °C 14,5 km/h (3 Bft)
30.01.2026 10:58 22,3 °C -1,2 °C 47 % 91 % 1004,0 hPa 0,0 l/m² 11,8 km/h (2 Bft) O-NO 67 ° 0 min 47 W/m² -2,5 °C -6,2 °C 14,5 km/h (3 Bft)
30.01.2026 11:00 22,3 °C -1,2 °C 47 % 91 % 1003,9 hPa 0,0 l/m² 7,4 km/h (2 Bft) O-NO 77 ° 0 min 46 W/m² -2,5 °C -2,3 °C 14,5 km/h (3 Bft)
30.01.2026 11:01 22,3 °C -1,2 °C 47 % 91 % 1003,9 hPa 0,0 l/m² 10,7 km/h (2 Bft) O 84 ° 0 min 46 W/m² -2,5 °C -5,4 °C 14,5 km/h (3 Bft)
30.01.2026 11:02 22,3 °C -1,2 °C 47 % 91 % 1003,9 hPa 0,0 l/m² 10,5 km/h (2 Bft) O-NO 76 ° 0 min 46 W/m² -2,5 °C -5,2 °C 14,5 km/h (3 Bft)
30.01.2026 11:03 22,3 °C -1,2 °C 47 % 91 % 1003,9 hPa 0,0 l/m² 8,2 km/h (2 Bft) O 82 ° 0 min 47 W/m² -2,5 °C -3,1 °C 12,9 km/h (3 Bft)
30.01.2026 11:04 22,3 °C -1,1 °C 47 % 91 % 1003,9 hPa 0,0 l/m² 9,7 km/h (2 Bft) O 82 ° 0 min 47 W/m² -2,4 °C -4,4 °C 14,5 km/h (3 Bft)
30.01.2026 11:05 22,3 °C -1,1 °C 47 % 91 % 1003,9 hPa 0,0 l/m² 8,6 km/h (2 Bft) O 84 ° 0 min 47 W/m² -2,4 °C -3,4 °C 12,9 km/h (3 Bft)
30.01.2026 11:06 22,3 °C -1,1 °C 47 % 91 % 1004,0 hPa 0,0 l/m² 11,3 km/h (2 Bft) O-NO 72 ° 0 min 47 W/m² -2,4 °C -5,7 °C 16,1 km/h (3 Bft)
30.01.2026 11:07 22,3 °C -1,1 °C 47 % 91 % 1004,0 hPa 0,0 l/m² 7,6 km/h (2 Bft) NO 49 ° 0 min 47 W/m² -2,4 °C -2,4 °C 11,3 km/h (2 Bft)
30.01.2026 11:08 22,3 °C -1,1 °C 47 % 91 % 1003,9 hPa 0,0 l/m² 4,9 km/h (1 Bft) O-NO 65 ° 0 min 47 W/m² -2,4 °C -1,1 °C 8,0 km/h (2 Bft)
30.01.2026 11:09 22,3 °C -1,1 °C 47 % 91 % 1003,9 hPa 0,0 l/m² 7,2 km/h (2 Bft) NO 51 ° 0 min 47 W/m² -2,4 °C -2,0 °C 16,1 km/h (3 Bft)
30.01.2026 11:10 22,3 °C -1,1 °C 47 % 91 % 1003,9 hPa 0,0 l/m² 4,8 km/h (1 Bft) O 80 ° 0 min 47 W/m² -2,4 °C -1,1 °C 8,0 km/h (2 Bft)
30.01.2026 11:11 22,3 °C -1,1 °C 47 % 91 % 1003,9 hPa 0,0 l/m² 5,5 km/h (2 Bft) O 82 ° 0 min 47 W/m² -2,4 °C -1,1 °C 9,7 km/h (2 Bft)
30.01.2026 11:12 22,3 °C -1,1 °C 47 % 91 % 1003,9 hPa 0,0 l/m² 3,8 km/h (1 Bft) O 86 ° 0 min 47 W/m² -2,4 °C -1,1 °C 8,0 km/h (2 Bft)
30.01.2026 11:13 22,3 °C -1,0 °C 47 % 91 % 1003,9 hPa 0,0 l/m² 7,0 km/h (2 Bft) O-NO 72 ° 0 min 47 W/m² -2,3 °C -1,6 °C 12,9 km/h (3 Bft)
30.01.2026 11:14 22,3 °C -1,0 °C 47 % 91 % 1004,0 hPa 0,0 l/m² 6,4 km/h (2 Bft) O-NO 74 ° 0 min 49 W/m² -2,3 °C -1,0 °C 11,3 km/h (2 Bft)
30.01.2026 11:15 22,3 °C -1,0 °C 47 % 91 % 1003,9 hPa 0,0 l/m² 7,8 km/h (2 Bft) O-NO 60 ° 0 min 49 W/m² -2,3 °C -2,5 °C 11,3 km/h (2 Bft)
30.01.2026 11:16 22,3 °C -1,0 °C 47 % 91 % 1004,0 hPa 0,0 l/m² 13,5 km/h (3 Bft) O 88 ° 0 min 49 W/m² -2,3 °C -7,2 °C 16,1 km/h (3 Bft)
30.01.2026 11:17 22,3 °C -1,0 °C 47 % 91 % 1003,9 hPa 0,0 l/m² 10,3 km/h (2 Bft) O 84 ° 0 min 49 W/m² -2,3 °C -4,8 °C 12,9 km/h (3 Bft)
30.01.2026 11:18 22,3 °C -1,0 °C 47 % 91 % 1004,0 hPa 0,0 l/m² 11,7 km/h (2 Bft) O 81 ° 0 min 49 W/m² -2,3 °C -5,9 °C 14,5 km/h (3 Bft)
30.01.2026 11:19 22,3 °C -0,9 °C 47 % 91 % 1004,0 hPa 0,0 l/m² 7,6 km/h (2 Bft) O 83 ° 0 min 49 W/m² -2,2 °C -2,2 °C 14,5 km/h (3 Bft)
30.01.2026 11:20 22,3 °C -1,0 °C 47 % 91 % 1003,9 hPa 0,0 l/m² 10,4 km/h (2 Bft) O 84 ° 0 min 49 W/m² -2,3 °C -4,9 °C 14,5 km/h (3 Bft)
30.01.2026 11:21 22,3 °C -1,0 °C 47 % 91 % 1003,9 hPa 0,0 l/m² 8,7 km/h (2 Bft) O 83 ° 0 min 47 W/m² -2,3 °C -3,4 °C 14,5 km/h (3 Bft)
30.01.2026 11:22 22,3 °C -1,0 °C 47 % 90 % 1004,0 hPa 0,0 l/m² 7,5 km/h (2 Bft) O 83 ° 0 min 47 W/m² -2,4 °C -2,2 °C 12,9 km/h (3 Bft)
30.01.2026 11:23 22,3 °C -1,0 °C 47 % 91 % 1003,9 hPa 0,0 l/m² 10,5 km/h (2 Bft) O 88 ° 0 min 47 W/m² -2,3 °C -5,0 °C 12,9 km/h (3 Bft)
30.01.2026 11:24 22,3 °C -1,0 °C 47 % 90 % 1004,0 hPa 0,0 l/m² 12,7 km/h (3 Bft) O 88 ° 0 min 49 W/m² -2,4 °C -6,7 °C 14,5 km/h (3 Bft)
30.01.2026 11:25 22,3 °C -1,0 °C 47 % 90 % 1004,0 hPa 0,0 l/m² 8,6 km/h (2 Bft) O-NO 69 ° 0 min 51 W/m² -2,4 °C -3,3 °C 12,9 km/h (3 Bft)
30.01.2026 11:26 22,3 °C -1,0 °C 47 % 90 % 1003,9 hPa 0,0 l/m² 7,7 km/h (2 Bft) O-NO 66 ° 1 min 53 W/m² -2,4 °C -2,4 °C 12,9 km/h (3 Bft)
30.01.2026 11:27 22,3 °C -1,0 °C 47 % 90 % 1004,0 hPa 0,0 l/m² 4,1 km/h (1 Bft) O 88 ° 1 min 54 W/m² -2,4 °C -1,0 °C 8,0 km/h (2 Bft)
30.01.2026 11:28 22,3 °C -1,0 °C 47 % 90 % 1003,9 hPa 0,0 l/m² 7,1 km/h (2 Bft) O 80 ° 1 min 56 W/m² -2,4 °C -1,7 °C 12,9 km/h (3 Bft)
30.01.2026 11:29 22,3 °C -1,0 °C 47 % 90 % 1003,9 hPa 0,0 l/m² 9,9 km/h (2 Bft) O-NO 75 ° 1 min 56 W/m² -2,4 °C -4,5 °C 12,9 km/h (3 Bft)
30.01.2026 11:30 22,3 °C -1,0 °C 47 % 90 % 1003,9 hPa 0,0 l/m² 7,2 km/h (2 Bft) O 91 ° 1 min 58 W/m² -2,4 °C -1,9 °C 9,7 km/h (2 Bft)
30.01.2026 11:31 22,3 °C -1,0 °C 47 % 90 % 1003,9 hPa 0,0 l/m² 7,2 km/h (2 Bft) O-NO 78 ° 1 min 58 W/m² -2,4 °C -1,9 °C 12,9 km/h (3 Bft)
30.01.2026 11:32 22,3 °C -1,0 °C 47 % 90 % 1003,9 hPa 0,0 l/m² 10,3 km/h (2 Bft) O 80 ° 1 min 60 W/m² -2,4 °C -4,8 °C 14,5 km/h (3 Bft)
30.01.2026 11:33 22,3 °C -1,0 °C 47 % 90 % 1003,9 hPa 0,0 l/m² 11,1 km/h (2 Bft) O-NO 73 ° 1 min 62 W/m² -2,4 °C -5,5 °C 14,5 km/h (3 Bft)
30.01.2026 11:34 22,3 °C -0,9 °C 47 % 90 % 1003,9 hPa 0,0 l/m² 9,7 km/h (2 Bft) O-NO 68 ° 1 min 65 W/m² -2,3 °C -4,2 °C 12,9 km/h (3 Bft)
30.01.2026 11:35 22,3 °C -0,9 °C 47 % 90 % 1003,9 hPa 0,0 l/m² 9,5 km/h (2 Bft) O 90 ° 1 min 69 W/m² -2,3 °C -4,0 °C 16,1 km/h (3 Bft)
30.01.2026 11:36 22,3 °C -0,9 °C 47 % 90 % 1003,9 hPa 0,0 l/m² 12,5 km/h (2 Bft) O 81 ° 1 min 69 W/m² -2,3 °C -6,4 °C 16,1 km/h (3 Bft)
30.01.2026 11:37 22,3 °C -0,9 °C 47 % 90 % 1003,9 hPa 0,0 l/m² 14,0 km/h (3 Bft) O 98 ° 1 min 70 W/m² -2,3 °C -7,4 °C 17,7 km/h (3 Bft)
30.01.2026 11:38 22,3 °C -0,9 °C 47 % 90 % 1003,9 hPa 0,0 l/m² 16,4 km/h (3 Bft) O 85 ° 1 min 70 W/m² -2,3 °C -8,9 °C 19,3 km/h (3 Bft)
30.01.2026 11:39 22,3 °C -0,9 °C 47 % 90 % 1003,9 hPa 0,0 l/m² 10,7 km/h (2 Bft) O-NO 75 ° 1 min 70 W/m² -2,3 °C -5,0 °C 12,9 km/h (3 Bft)
30.01.2026 11:40 22,3 °C -1,0 °C 47 % 90 % 1003,9 hPa 0,0 l/m² 9,6 km/h (2 Bft) O 92 ° 1 min 69 W/m² -2,4 °C -4,2 °C 17,7 km/h (3 Bft)
30.01.2026 11:41 22,3 °C -0,9 °C 47 % 90 % 1003,9 hPa 0,0 l/m² 11,3 km/h (2 Bft) O 84 ° 1 min 67 W/m² -2,3 °C -5,5 °C 14,5 km/h (3 Bft)
30.01.2026 11:42 22,3 °C -0,9 °C 47 % 90 % 1003,9 hPa 0,0 l/m² 10,8 km/h (2 Bft) O-NO 69 ° 1 min 67 W/m² -2,3 °C -5,1 °C 14,5 km/h (3 Bft)
30.01.2026 11:43 22,3 °C -0,9 °C 47 % 90 % 1003,9 hPa 0,0 l/m² 11,1 km/h (2 Bft) O 88 ° 1 min 67 W/m² -2,3 °C -5,3 °C 14,5 km/h (3 Bft)
30.01.2026 11:44 22,3 °C -0,9 °C 47 % 90 % 1003,8 hPa 0,0 l/m² 8,4 km/h (2 Bft) O-NO 78 ° 1 min 67 W/m² -2,3 °C -3,0 °C 11,3 km/h (2 Bft)
30.01.2026 11:45 22,3 °C -0,9 °C 47 % 90 % 1003,8 hPa 0,0 l/m² 5,3 km/h (1 Bft) O-NO 59 ° 1 min 67 W/m² -2,3 °C -0,9 °C 8,0 km/h (2 Bft)
30.01.2026 11:46 22,3 °C -0,9 °C 47 % 90 % 1003,7 hPa 0,0 l/m² 5,1 km/h (1 Bft) O 82 ° 1 min 69 W/m² -2,3 °C -0,9 °C 11,3 km/h (2 Bft)
30.01.2026 11:47 22,3 °C -0,9 °C 47 % 90 % 1003,8 hPa 0,0 l/m² 9,2 km/h (2 Bft) O 92 ° 1 min 69 W/m² -2,3 °C -3,7 °C 11,3 km/h (2 Bft)
30.01.2026 11:48 22,3 °C -0,9 °C 47 % 90 % 1003,8 hPa 0,0 l/m² 9,5 km/h (2 Bft) O 82 ° 1 min 67 W/m² -2,3 °C -4,0 °C 14,5 km/h (3 Bft)
30.01.2026 11:49 22,3 °C -0,9 °C 47 % 90 % 1003,8 hPa 0,0 l/m² 8,9 km/h (2 Bft) O-NO 78 ° 1 min 67 W/m² -2,3 °C -3,5 °C 12,9 km/h (3 Bft)
30.01.2026 11:50 22,3 °C -0,9 °C 47 % 90 % 1003,7 hPa 0,0 l/m² 6,6 km/h (2 Bft) O 84 ° 1 min 65 W/m² -2,3 °C -1,1 °C 14,5 km/h (3 Bft)
30.01.2026 11:51 22,3 °C -0,9 °C 47 % 90 % 1003,8 hPa 0,0 l/m² 12,3 km/h (2 Bft) O 96 ° 1 min 65 W/m² -2,3 °C -6,3 °C 14,5 km/h (3 Bft)
30.01.2026 11:52 22,3 °C -0,9 °C 47 % 90 % 1003,8 hPa 0,0 l/m² 14,6 km/h (3 Bft) O 85 ° 1 min 65 W/m² -2,3 °C -7,8 °C 17,7 km/h (3 Bft)
30.01.2026 11:53 22,3 °C -0,9 °C 47 % 90 % 1003,8 hPa 0,0 l/m² 10,9 km/h (2 Bft) O-NO 66 ° 1 min 65 W/m² -2,3 °C -5,2 °C 16,1 km/h (3 Bft)
30.01.2026 11:54 22,3 °C -0,8 °C 47 % 90 % 1003,8 hPa 0,0 l/m² 5,4 km/h (2 Bft) O 83 ° 1 min 65 W/m² -2,2 °C -0,8 °C 8,0 km/h (2 Bft)
30.01.2026 11:55 22,3 °C -0,8 °C 47 % 90 % 1003,7 hPa 0,0 l/m² 9,3 km/h (2 Bft) O-NO 78 ° 1 min 65 W/m² -2,2 °C -3,7 °C 14,5 km/h (3 Bft)
30.01.2026 11:56 22,3 °C -0,8 °C 47 % 91 % 1003,8 hPa 0,0 l/m² 10,1 km/h (2 Bft) O-NO 72 ° 1 min 65 W/m² -2,1 °C -4,4 °C 14,5 km/h (3 Bft)
30.01.2026 11:57 22,3 °C -0,8 °C 47 % 90 % 1003,8 hPa 0,0 l/m² 10,1 km/h (2 Bft) O-NO 78 ° 1 min 67 W/m² -2,2 °C -4,4 °C 17,7 km/h (3 Bft)
30.01.2026 11:58 22,3 °C -0,8 °C 47 % 90 % 1003,8 hPa 0,0 l/m² 10,4 km/h (2 Bft) O-NO 78 ° 1 min 65 W/m² -2,2 °C -4,7 °C 14,5 km/h (3 Bft)
30.01.2026 11:59 22,3 °C -0,8 °C 47 % 90 % 1003,8 hPa 0,0 l/m² 12,4 km/h (2 Bft) O 89 ° 1 min 65 W/m² -2,2 °C -6,2 °C 16,1 km/h (3 Bft)
30.01.2026 12:00 22,3 °C -0,8 °C 47 % 90 % 1003,8 hPa 0,0 l/m² 13,5 km/h (3 Bft) O-NO 68 ° 1 min 63 W/m² -2,2 °C -7,0 °C 17,7 km/h (3 Bft)
30.01.2026 12:01 22,3 °C -0,8 °C 47 % 90 % 1003,8 hPa 0,0 l/m² 11,3 km/h (2 Bft) O-NO 67 ° 1 min 63 W/m² -2,2 °C -5,4 °C 16,1 km/h (3 Bft)
30.01.2026 12:06 22,3 °C -0,7 °C 47 % 90 % 1003,8 hPa 0,0 l/m² 6,7 km/h (2 Bft) O-NO 59 ° 5 min 56 W/m² -2,1 °C -1,0 °C 12,9 km/h (3 Bft)
30.01.2026 12:08 22,3 °C -0,7 °C 47 % 90 % 1003,9 hPa 0,0 l/m² 8,9 km/h (2 Bft) O-NO 66 ° 2 min 54 W/m² -2,1 °C -3,2 °C 14,5 km/h (3 Bft)
30.01.2026 12:09 22,3 °C -0,7 °C 47 % 90 % 1003,9 hPa 0,0 l/m² 8,6 km/h (2 Bft) O 85 ° 1 min 54 W/m² -2,1 °C -3,0 °C 12,9 km/h (3 Bft)
30.01.2026 12:11 22,3 °C -0,7 °C 47 % 90 % 1003,8 hPa 0,0 l/m² 9,7 km/h (2 Bft) O 92 ° 2 min 56 W/m² -2,1 °C -4,0 °C 17,7 km/h (3 Bft)
30.01.2026 12:12 22,3 °C -0,7 °C 47 % 90 % 1003,8 hPa 0,0 l/m² 8,2 km/h (2 Bft) O 79 ° 1 min 58 W/m² -2,1 °C -2,6 °C 11,3 km/h (2 Bft)
30.01.2026 12:14 22,3 °C -0,7 °C 47 % 90 % 1003,8 hPa 0,0 l/m² 6,6 km/h (2 Bft) O-NO 76 ° 2 min 58 W/m² -2,1 °C -0,9 °C 11,3 km/h (2 Bft)
30.01.2026 12:15 22,3 °C -0,7 °C 47 % 90 % 1003,8 hPa 0,0 l/m² 6,8 km/h (2 Bft) O 80 ° 1 min 58 W/m² -2,1 °C -1,1 °C 9,7 km/h (2 Bft)
30.01.2026 12:16 22,3 °C -0,7 °C 47 % 90 % 1003,8 hPa 0,0 l/m² 6,8 km/h (2 Bft) O-NO 70 ° 1 min 60 W/m² -2,1 °C -1,1 °C 9,7 km/h (2 Bft)
30.01.2026 12:18 22,3 °C -0,7 °C 47 % 90 % 1003,8 hPa 0,0 l/m² 9,0 km/h (2 Bft) O-SO 105 ° 2 min 62 W/m² -2,1 °C -3,3 °C 14,5 km/h (3 Bft)
30.01.2026 12:20 22,3 °C -0,7 °C 47 % 90 % 1003,8 hPa 0,0 l/m² 10,9 km/h (2 Bft) O-NO 63 ° 2 min 65 W/m² -2,1 °C -5,0 °C 14,5 km/h (3 Bft)
30.01.2026 12:22 22,3 °C -0,7 °C 47 % 90 % 1003,7 hPa 0,0 l/m² 9,0 km/h (2 Bft) O-NO 78 ° 2 min 76 W/m² -2,1 °C -3,3 °C 14,5 km/h (3 Bft)
30.01.2026 12:23 22,3 °C -0,7 °C 47 % 90 % 1003,7 hPa 0,0 l/m² 10,2 km/h (2 Bft) O-NO 76 ° 1 min 83 W/m² -2,1 °C -4,4 °C 14,5 km/h (3 Bft)
30.01.2026 12:24 22,3 °C -0,7 °C 47 % 90 % 1003,8 hPa 0,0 l/m² 11,6 km/h (2 Bft) O-NO 78 ° 1 min 88 W/m² -2,1 °C -5,5 °C 14,5 km/h (3 Bft)
30.01.2026 12:26 22,3 °C -0,7 °C 47 % 90 % 1003,7 hPa 0,0 l/m² 10,7 km/h (2 Bft) O-NO 78 ° 2 min 100 W/m² -2,1 °C -4,8 °C 14,5 km/h (3 Bft)
30.01.2026 12:28 22,3 °C -0,7 °C 47 % 90 % 1003,7 hPa 0,0 l/m² 11,4 km/h (2 Bft) O-NO 68 ° 2 min 105 W/m² -2,1 °C -5,4 °C 16,1 km/h (3 Bft)
30.01.2026 12:30 22,3 °C -0,6 °C 47 % 90 % 1003,8 hPa 0,0 l/m² 13,2 km/h (3 Bft) O 96 ° 2 min 98 W/m² -2,0 °C -6,5 °C 16,1 km/h (3 Bft)
30.01.2026 12:32 22,3 °C -0,6 °C 47 % 90 % 1003,7 hPa 0,0 l/m² 11,2 km/h (2 Bft) O 84 ° 2 min 93 W/m² -2,0 °C -5,1 °C 14,5 km/h (3 Bft)
30.01.2026 12:33 22,3 °C -0,7 °C 47 % 90 % 1003,7 hPa 0,0 l/m² 7,6 km/h (2 Bft) O-NO 76 ° 1 min 90 W/m² -2,1 °C -2,0 °C 11,3 km/h (2 Bft)
30.01.2026 12:34 22,3 °C -0,6 °C 47 % 90 % 1003,7 hPa 0,0 l/m² 4,0 km/h (1 Bft) O-NO 78 ° 1 min 88 W/m² -2,0 °C -0,6 °C 4,8 km/h (1 Bft)
30.01.2026 12:36 22,3 °C -0,6 °C 46 % 90 % 1003,8 hPa 0,0 l/m² 12,3 km/h (2 Bft) O 87 ° 2 min 86 W/m² -2,0 °C -5,9 °C 17,7 km/h (3 Bft)
30.01.2026 12:38 22,3 °C -0,6 °C 46 % 90 % 1003,7 hPa 0,0 l/m² 10,8 km/h (2 Bft) O 89 ° 2 min 88 W/m² -2,0 °C -4,8 °C 16,1 km/h (3 Bft)
30.01.2026 12:40 22,3 °C -0,6 °C 47 % 90 % 1003,7 hPa 0,0 l/m² 8,5 km/h (2 Bft) O 93 ° 2 min 100 W/m² -2,0 °C -2,8 °C 14,5 km/h (3 Bft)
30.01.2026 12:42 22,3 °C -0,6 °C 47 % 90 % 1003,6 hPa 0,0 l/m² 11,3 km/h (2 Bft) O-NO 71 ° 2 min 114 W/m² -2,0 °C -5,2 °C 16,1 km/h (3 Bft)
30.01.2026 12:43 22,3 °C -0,6 °C 47 % 90 % 1003,6 hPa 0,0 l/m² 7,6 km/h (2 Bft) O-NO 77 ° 1 min 121 W/m² -2,0 °C -1,9 °C 16,1 km/h (3 Bft)
30.01.2026 12:44 22,3 °C -0,5 °C 47 % 90 % 1003,6 hPa 0,0 l/m² 12,9 km/h (3 Bft) O 90 ° 1 min 130 W/m² -1,9 °C -6,2 °C 16,1 km/h (3 Bft)
30.01.2026 12:46 22,3 °C -0,5 °C 47 % 90 % 1003,6 hPa 0,0 l/m² 14,4 km/h (3 Bft) O-NO 77 ° 2 min 148 W/m² -1,9 °C -7,2 °C 20,9 km/h (4 Bft)
30.01.2026 12:47 22,3 °C -0,5 °C 47 % 90 % 1003,6 hPa 0,0 l/m² 13,8 km/h (3 Bft) O 82 ° 1 min 149 W/m² -1,9 °C -6,8 °C 17,7 km/h (3 Bft)
30.01.2026 12:48 22,3 °C -0,5 °C 47 % 90 % 1003,6 hPa 0,0 l/m² 14,6 km/h (3 Bft) O-NO 71 ° 1 min 149 W/m² -1,9 °C -7,3 °C 16,1 km/h (3 Bft)
30.01.2026 12:49 22,3 °C -0,5 °C 47 % 90 % 1003,6 hPa 0,0 l/m² 11,9 km/h (2 Bft) O-NO 69 ° 1 min 148 W/m² -1,9 °C -5,5 °C 14,5 km/h (3 Bft)
30.01.2026 12:51 22,3 °C -0,5 °C 47 % 90 % 1003,6 hPa 0,0 l/m² 11,3 km/h (2 Bft) O 83 ° 2 min 153 W/m² -1,9 °C -5,1 °C 14,5 km/h (3 Bft)
30.01.2026 12:52 22,3 °C -0,5 °C 47 % 90 % 1003,6 hPa 0,0 l/m² 4,4 km/h (1 Bft) O-NO 76 ° 1 min 153 W/m² -1,9 °C -0,5 °C 8,0 km/h (2 Bft)
30.01.2026 12:53 22,3 °C -0,4 °C 47 % 90 % 1003,6 hPa 0,0 l/m² 6,2 km/h (2 Bft) O 80 ° 1 min 151 W/m² -1,8 °C -0,4 °C 11,3 km/h (2 Bft)
30.01.2026 12:55 22,3 °C -0,4 °C 47 % 90 % 1003,5 hPa 0,0 l/m² 7,8 km/h (2 Bft) O-NO 59 ° 2 min 162 W/m² -1,8 °C -1,9 °C 14,5 km/h (3 Bft)
30.01.2026 12:57 22,3 °C -0,4 °C 47 % 90 % 1003,6 hPa 0,0 l/m² 7,2 km/h (2 Bft) O 100 ° 2 min 162 W/m² -1,8 °C -1,2 °C 12,9 km/h (3 Bft)
30.01.2026 12:59 22,3 °C -0,4 °C 47 % 90 % 1003,6 hPa 0,0 l/m² 13,1 km/h (3 Bft) O 98 ° 2 min 167 W/m² -1,8 °C -6,2 °C 16,1 km/h (3 Bft)
30.01.2026 13:01 22,4 °C -0,3 °C 47 % 90 % 1003,5 hPa 0,0 l/m² 10,3 km/h (2 Bft) O 88 ° 2 min 178 W/m² -1,7 °C -4,0 °C 16,1 km/h (3 Bft)
30.01.2026 13:02 22,4 °C -0,4 °C 47 % 90 % 1003,5 hPa 0,0 l/m² 11,6 km/h (2 Bft) O-NO 78 ° 1 min 185 W/m² -1,8 °C -5,2 °C 14,5 km/h (3 Bft)
30.01.2026 13:03 22,4 °C -0,3 °C 47 % 90 % 1003,5 hPa 0,0 l/m² 8,8 km/h (2 Bft) O-NO 76 ° 1 min 190 W/m² -1,7 °C -2,7 °C 12,9 km/h (3 Bft)
30.01.2026 13:04 22,4 °C -0,4 °C 46 % 90 % 1003,5 hPa 0,0 l/m² 10,3 km/h (2 Bft) O-SO 102 ° 1 min 188 W/m² -1,8 °C -4,1 °C 16,1 km/h (3 Bft)
30.01.2026 13:05 22,3 °C -0,3 °C 46 % 90 % 1003,5 hPa 0,0 l/m² 14,6 km/h (3 Bft) O 82 ° 1 min 183 W/m² -1,7 °C -7,1 °C 17,7 km/h (3 Bft)
30.01.2026 13:06 22,3 °C -0,3 °C 46 % 90 % 1003,5 hPa 0,0 l/m² 13,8 km/h (3 Bft) O 90 ° 1 min 178 W/m² -1,7 °C -6,6 °C 16,1 km/h (3 Bft)
30.01.2026 13:08 22,3 °C -0,3 °C 46 % 89 % 1003,4 hPa 0,0 l/m² 13,0 km/h (3 Bft) O-NO 78 ° 2 min 167 W/m² -1,9 °C -6,1 °C 17,7 km/h (3 Bft)
30.01.2026 13:09 22,3 °C -0,3 °C 46 % 89 % 1003,4 hPa 0,0 l/m² 9,7 km/h (2 Bft) O-NO 69 ° 1 min 158 W/m² -1,9 °C -3,5 °C 12,9 km/h (3 Bft)
30.01.2026 13:11 22,3 °C -0,4 °C 46 % 89 % 1003,6 hPa 0,0 l/m² 5,7 km/h (2 Bft) O-NO 70 ° 2 min 153 W/m² -2,0 °C -0,4 °C 9,7 km/h (2 Bft)
30.01.2026 13:12 22,3 °C -0,3 °C 45 % 90 % 1003,5 hPa 0,0 l/m² 8,4 km/h (2 Bft) O 92 ° 1 min 151 W/m² -1,7 °C -2,4 °C 12,9 km/h (3 Bft)
30.01.2026 13:13 22,3 °C -0,3 °C 45 % 90 % 1003,5 hPa 0,2 l/m² 6,7 km/h (2 Bft) O-NO 74 ° 1 min 148 W/m² -1,7 °C -0,6 °C 9,7 km/h (2 Bft)
30.01.2026 13:15 22,3 °C -0,3 °C 45 % 90 % 1003,5 hPa 0,0 l/m² 9,5 km/h (2 Bft) O 84 ° 2 min 137 W/m² -1,7 °C -3,4 °C 16,1 km/h (3 Bft)
30.01.2026 13:16 22,3 °C -0,3 °C 45 % 89 % 1003,5 hPa 0,0 l/m² 6,8 km/h (2 Bft) O 82 ° 1 min 135 W/m² -1,9 °C -0,7 °C 11,3 km/h (2 Bft)
30.01.2026 13:17 22,3 °C -0,3 °C 45 % 89 % 1003,5 hPa 0,0 l/m² 4,3 km/h (1 Bft) O 81 ° 1 min 135 W/m² -1,9 °C -0,3 °C 4,8 km/h (1 Bft)
30.01.2026 13:18 22,3 °C -0,3 °C 45 % 89 % 1003,5 hPa 0,0 l/m² 4,7 km/h (1 Bft) O-NO 62 ° 1 min 135 W/m² -1,9 °C -0,3 °C 8,0 km/h (2 Bft)
30.01.2026 13:19 22,3 °C -0,3 °C 45 % 89 % 1003,5 hPa 0,0 l/m² 6,2 km/h (2 Bft) O 87 ° 1 min 137 W/m² -1,9 °C -0,3 °C 11,3 km/h (2 Bft)
30.01.2026 13:21 22,3 °C -0,3 °C 45 % 89 % 1003,5 hPa 0,0 l/m² 4,5 km/h (1 Bft) O 82 ° 2 min 135 W/m² -1,9 °C -0,3 °C 11,3 km/h (2 Bft)
30.01.2026 13:22 22,3 °C -0,3 °C 45 % 89 % 1003,5 hPa 0,0 l/m² 8,5 km/h (2 Bft) NO 55 ° 1 min 132 W/m² -1,9 °C -2,4 °C 16,1 km/h (3 Bft)
30.01.2026 13:23 22,3 °C -0,2 °C 45 % 89 % 1003,5 hPa 0,0 l/m² 5,7 km/h (2 Bft) NO 37 ° 1 min 137 W/m² -1,8 °C -0,2 °C 16,1 km/h (3 Bft)
30.01.2026 13:25 22,3 °C -0,2 °C 45 % 89 % 1003,5 hPa 0,0 l/m² 7,8 km/h (2 Bft) O 84 ° 2 min 139 W/m² -1,8 °C -1,7 °C 12,9 km/h (3 Bft)
30.01.2026 13:26 22,3 °C -0,2 °C 45 % 89 % 1003,5 hPa 0,0 l/m² 9,1 km/h (2 Bft) O-NO 71 ° 1 min 137 W/m² -1,8 °C -2,9 °C 14,5 km/h (3 Bft)
30.01.2026 13:27 22,3 °C -0,2 °C 45 % 89 % 1003,5 hPa 0,0 l/m² 9,8 km/h (2 Bft) O-NO 65 ° 1 min 137 W/m² -1,8 °C -3,5 °C 12,9 km/h (3 Bft)
30.01.2026 13:28 22,3 °C -0,1 °C 45 % 89 % 1003,5 hPa 0,0 l/m² 10,8 km/h (2 Bft) NO 54 ° 1 min 142 W/m² -1,7 °C -4,2 °C 16,1 km/h (3 Bft)
30.01.2026 13:29 22,3 °C -0,1 °C 45 % 89 % 1003,6 hPa 0,0 l/m² 11,1 km/h (2 Bft) O 80 ° 1 min 144 W/m² -1,7 °C -4,4 °C 16,1 km/h (3 Bft)
30.01.2026 13:31 22,3 °C -0,1 °C 45 % 89 % 1003,5 hPa 0,0 l/m² 7,9 km/h (2 Bft) NO 50 ° 2 min 144 W/m² -1,7 °C -1,7 °C 14,5 km/h (3 Bft)
30.01.2026 13:32 22,3 °C -0,1 °C 45 % 89 % 1003,4 hPa 0,0 l/m² 8,5 km/h (2 Bft) NO 56 ° 1 min 148 W/m² -1,7 °C -2,2 °C 12,9 km/h (3 Bft)
30.01.2026 13:33 22,3 °C -0,1 °C 45 % 89 % 1003,4 hPa 0,0 l/m² 6,6 km/h (2 Bft) O-NO 70 ° 1 min 149 W/m² -1,7 °C -0,3 °C 14,5 km/h (3 Bft)
30.01.2026 13:35 22,3 °C -0,1 °C 45 % 89 % 1003,5 hPa 0,0 l/m² 13,0 km/h (3 Bft) O-NO 65 ° 2 min 149 W/m² -1,7 °C -5,8 °C 19,3 km/h (3 Bft)
30.01.2026 13:36 22,3 °C -0,1 °C 45 % 89 % 1003,5 hPa 0,0 l/m² 8,4 km/h (2 Bft) NO 53 ° 1 min 148 W/m² -1,7 °C -2,1 °C 12,9 km/h (3 Bft)
30.01.2026 13:37 22,3 °C -0,1 °C 45 % 89 % 1003,4 hPa 0,0 l/m² 7,1 km/h (2 Bft) O 79 ° 1 min 146 W/m² -1,7 °C -0,8 °C 11,3 km/h (2 Bft)
30.01.2026 13:38 22,3 °C 0,0 °C 45 % 89 % 1003,4 hPa 0,0 l/m² 6,9 km/h (2 Bft) NO 53 ° 1 min 149 W/m² -1,6 °C -0,5 °C 14,5 km/h (3 Bft)
30.01.2026 13:39 22,4 °C 0,1 °C 45 % 89 % 1003,5 hPa 0,0 l/m² 8,3 km/h (2 Bft) O 90 ° 1 min 151 W/m² -1,5 °C -1,8 °C 14,5 km/h (3 Bft)
30.01.2026 13:41 22,3 °C 0,1 °C 45 % 89 % 1003,4 hPa 0,0 l/m² 10,6 km/h (2 Bft) O-NO 77 ° 2 min 153 W/m² -1,5 °C -3,8 °C 16,1 km/h (3 Bft)
30.01.2026 13:42 22,3 °C 0,1 °C 45 % 89 % 1003,3 hPa 0,0 l/m² 11,8 km/h (2 Bft) O 101 ° 1 min 149 W/m² -1,5 °C -4,7 °C 16,1 km/h (3 Bft)
30.01.2026 13:43 22,3 °C 0,1 °C 45 % 89 % 1003,3 hPa 0,0 l/m² 15,4 km/h (3 Bft) O-NO 69 ° 1 min 146 W/m² -1,5 °C -7,1 °C 20,9 km/h (4 Bft)
30.01.2026 13:45 22,3 °C 0,1 °C 45 % 89 % 1003,3 hPa 0,2 l/m² 12,7 km/h (3 Bft) O 90 ° 2 min 160 W/m² -1,5 °C -5,4 °C 20,9 km/h (4 Bft)
30.01.2026 13:46 22,3 °C 0,1 °C 45 % 89 % 1003,4 hPa 0,0 l/m² 11,3 km/h (2 Bft) O-NO 58 ° 1 min 162 W/m² -1,5 °C -4,4 °C 16,1 km/h (3 Bft)
30.01.2026 13:47 22,3 °C 0,0 °C 45 % 89 % 1003,4 hPa 0,0 l/m² 9,7 km/h (2 Bft) O 84 ° 1 min 162 W/m² -1,6 °C -3,2 °C 14,5 km/h (3 Bft)
30.01.2026 13:48 22,3 °C 0,0 °C 45 % 89 % 1003,4 hPa 0,0 l/m² 10,3 km/h (2 Bft) O-NO 73 ° 1 min 158 W/m² -1,6 °C -3,7 °C 12,9 km/h (3 Bft)
30.01.2026 13:49 22,3 °C 0,0 °C 45 % 88 % 1003,4 hPa 0,0 l/m² 12,6 km/h (3 Bft) O-NO 64 ° 1 min 156 W/m² -1,7 °C -5,4 °C 19,3 km/h (3 Bft)
30.01.2026 13:51 22,4 °C 0,0 °C 45 % 89 % 1003,4 hPa 0,0 l/m² 13,1 km/h (3 Bft) O-NO 65 ° 2 min 158 W/m² -1,6 °C -5,8 °C 20,9 km/h (4 Bft)
30.01.2026 13:52 22,3 °C -0,1 °C 45 % 89 % 1003,4 hPa 0,0 l/m² 13,7 km/h (3 Bft) O 80 ° 1 min 156 W/m² -1,7 °C -6,3 °C 17,7 km/h (3 Bft)
30.01.2026 13:53 22,3 °C 0,0 °C 45 % 88 % 1003,4 hPa 0,0 l/m² 14,1 km/h (3 Bft) O 80 ° 1 min 155 W/m² -1,7 °C -6,4 °C 16,1 km/h (3 Bft)
30.01.2026 13:55 22,4 °C -0,1 °C 45 % 89 % 1003,2 hPa 0,0 l/m² 11,5 km/h (2 Bft) O-NO 61 ° 2 min 156 W/m² -1,7 °C -4,7 °C 16,1 km/h (3 Bft)
30.01.2026 13:56 22,4 °C -0,1 °C 45 % 89 % 1003,4 hPa 0,0 l/m² 9,2 km/h (2 Bft) O 82 ° 1 min 153 W/m² -1,7 °C -2,9 °C 14,5 km/h (3 Bft)
30.01.2026 13:57 22,3 °C -0,1 °C 45 % 89 % 1003,3 hPa 0,0 l/m² 8,9 km/h (2 Bft) O 79 ° 1 min 149 W/m² -1,7 °C -2,6 °C 12,9 km/h (3 Bft)
30.01.2026 13:58 22,3 °C 0,0 °C 45 % 89 % 1003,4 hPa 0,0 l/m² 7,4 km/h (2 Bft) O 82 ° 1 min 146 W/m² -1,6 °C -1,0 °C 12,9 km/h (3 Bft)
30.01.2026 13:59 22,4 °C 0,0 °C 45 % 89 % 1003,3 hPa 0,0 l/m² 13,1 km/h (3 Bft) O 98 ° 1 min 141 W/m² -1,6 °C -5,8 °C 16,1 km/h (3 Bft)
30.01.2026 14:01 22,4 °C 0,0 °C 45 % 89 % 1003,4 hPa 0,0 l/m² 10,5 km/h (2 Bft) O 94 ° 2 min 139 W/m² -1,6 °C -3,9 °C 17,7 km/h (3 Bft)
30.01.2026 14:02 22,4 °C 0,0 °C 45 % 89 % 1003,4 hPa 0,0 l/m² 10,8 km/h (2 Bft) O-NO 76 ° 1 min 137 W/m² -1,6 °C -4,1 °C 14,5 km/h (3 Bft)
30.01.2026 14:03 22,4 °C 0,0 °C 45 % 89 % 1003,4 hPa 0,0 l/m² 8,5 km/h (2 Bft) O 83 ° 1 min 141 W/m² -1,6 °C -2,1 °C 14,5 km/h (3 Bft)
30.01.2026 14:05 22,4 °C 0,0 °C 45 % 89 % 1003,5 hPa 0,0 l/m² 10,7 km/h (2 Bft) O 81 ° 2 min 146 W/m² -1,6 °C -4,0 °C 16,1 km/h (3 Bft)
30.01.2026 14:06 22,4 °C 0,1 °C 45 % 89 % 1003,4 hPa 0,0 l/m² 7,5 km/h (2 Bft) O-NO 69 ° 1 min 144 W/m² -1,5 °C -1,0 °C 14,5 km/h (3 Bft)
30.01.2026 14:07 22,4 °C 0,1 °C 45 % 89 % 1003,4 hPa 0,0 l/m² 8,0 km/h (2 Bft) O 85 ° 1 min 139 W/m² -1,5 °C -1,5 °C 11,3 km/h (2 Bft)
30.01.2026 14:08 22,4 °C 0,0 °C 45 % 88 % 1003,3 hPa 0,0 l/m² 10,2 km/h (2 Bft) O-NO 75 ° 1 min 134 W/m² -1,7 °C -3,6 °C 12,9 km/h (3 Bft)
30.01.2026 14:09 22,4 °C 0,0 °C 45 % 88 % 1003,3 hPa 0,0 l/m² 6,2 km/h (2 Bft) O 86 ° 1 min 134 W/m² -1,7 °C 0,0 °C 11,3 km/h (2 Bft)
30.01.2026 14:11 22,3 °C 0,0 °C 45 % 88 % 1003,3 hPa 0,0 l/m² 10,4 km/h (2 Bft) O-NO 65 ° 2 min 128 W/m² -1,7 °C -3,8 °C 14,5 km/h (3 Bft)
30.01.2026 14:12 22,4 °C 0,0 °C 45 % 88 % 1003,4 hPa 0,0 l/m² 12,8 km/h (3 Bft) O-NO 75 ° 1 min 128 W/m² -1,7 °C -5,6 °C 17,7 km/h (3 Bft)
30.01.2026 14:13 22,4 °C 0,0 °C 45 % 88 % 1003,4 hPa 0,0 l/m² 9,3 km/h (2 Bft) O-SO 103 ° 1 min 125 W/m² -1,7 °C -2,9 °C 12,9 km/h (3 Bft)
30.01.2026 14:15 22,3 °C 0,0 °C 45 % 88 % 1003,3 hPa 0,0 l/m² 8,5 km/h (2 Bft) O-NO 69 ° 2 min 127 W/m² -1,7 °C -2,1 °C 12,9 km/h (3 Bft)
30.01.2026 14:16 22,3 °C 0,0 °C 45 % 88 % 1003,3 hPa 0,0 l/m² 11,7 km/h (2 Bft) O 85 ° 1 min 127 W/m² -1,7 °C -4,8 °C 16,1 km/h (3 Bft)
30.01.2026 14:17 22,3 °C 0,0 °C 45 % 88 % 1003,3 hPa 0,0 l/m² 11,3 km/h (2 Bft) O-NO 76 ° 1 min 125 W/m² -1,7 °C -4,5 °C 14,5 km/h (3 Bft)
30.01.2026 14:18 22,3 °C 0,0 °C 45 % 88 % 1003,3 hPa 0,0 l/m² 7,9 km/h (2 Bft) O 84 ° 1 min 121 W/m² -1,7 °C -1,5 °C 12,9 km/h (3 Bft)
30.01.2026 14:19 22,3 °C -0,1 °C 45 % 88 % 1003,2 hPa 0,0 l/m² 13,1 km/h (3 Bft) O-NO 67 ° 1 min 118 W/m² -1,8 °C -5,9 °C 17,7 km/h (3 Bft)
30.01.2026 14:21 22,4 °C 0,0 °C 45 % 88 % 1003,3 hPa 0,0 l/m² 6,5 km/h (2 Bft) O 101 ° 2 min 123 W/m² -1,7 °C -0,1 °C 12,9 km/h (3 Bft)
30.01.2026 14:22 22,3 °C -0,1 °C 45 % 88 % 1003,2 hPa 0,0 l/m² 9,7 km/h (2 Bft) NO 46 ° 1 min 127 W/m² -1,8 °C -3,3 °C 14,5 km/h (3 Bft)
30.01.2026 14:23 22,3 °C -0,1 °C 45 % 88 % 1003,2 hPa 0,0 l/m² 9,3 km/h (2 Bft) O 89 ° 1 min 132 W/m² -1,8 °C -3,0 °C 14,5 km/h (3 Bft)
30.01.2026 14:25 22,3 °C 0,0 °C 45 % 88 % 1003,3 hPa 0,0 l/m² 11,2 km/h (2 Bft) O 96 ° 2 min 148 W/m² -1,7 °C -4,4 °C 17,7 km/h (3 Bft)
30.01.2026 14:26 22,3 °C 0,0 °C 45 % 88 % 1003,2 hPa 0,0 l/m² 13,0 km/h (3 Bft) O-NO 69 ° 1 min 144 W/m² -1,7 °C -5,7 °C 19,3 km/h (3 Bft)
30.01.2026 14:27 22,3 °C 0,0 °C 45 % 89 % 1003,3 hPa 0,0 l/m² 12,9 km/h (3 Bft) O-NO 68 ° 1 min 144 W/m² -1,6 °C -5,6 °C 16,1 km/h (3 Bft)
30.01.2026 14:28 22,3 °C 0,1 °C 45 % 88 % 1003,3 hPa 0,0 l/m² 12,5 km/h (2 Bft) NO 46 ° 1 min 139 W/m² -1,6 °C -5,2 °C 16,1 km/h (3 Bft)
30.01.2026 14:29 22,4 °C 0,1 °C 45 % 89 % 1003,3 hPa 0,0 l/m² 8,8 km/h (2 Bft) O-NO 67 ° 1 min 130 W/m² -1,5 °C -2,3 °C 17,7 km/h (3 Bft)
30.01.2026 14:31 22,3 °C 0,1 °C 45 % 88 % 1003,3 hPa 0,0 l/m² 11,0 km/h (2 Bft) O-NO 71 ° 2 min 114 W/m² -1,6 °C -4,1 °C 20,9 km/h (4 Bft)
30.01.2026 14:32 22,4 °C 0,1 °C 45 % 88 % 1003,2 hPa 0,0 l/m² 13,3 km/h (3 Bft) O-NO 64 ° 1 min 114 W/m² -1,6 °C -5,8 °C 17,7 km/h (3 Bft)
30.01.2026 14:33 22,4 °C 0,1 °C 45 % 88 % 1003,2 hPa 0,0 l/m² 12,7 km/h (3 Bft) O-NO 75 ° 1 min 114 W/m² -1,6 °C -5,4 °C 17,7 km/h (3 Bft)
30.01.2026 14:35 22,4 °C 0,1 °C 45 % 88 % 1003,4 hPa 0,0 l/m² 10,4 km/h (2 Bft) O 96 ° 2 min 123 W/m² -1,6 °C -3,7 °C 19,3 km/h (3 Bft)
30.01.2026 14:36 22,3 °C 0,1 °C 45 % 88 % 1003,3 hPa 0,0 l/m² 16,1 km/h (3 Bft) O-NO 77 ° 1 min 127 W/m² -1,6 °C -7,5 °C 19,3 km/h (3 Bft)
30.01.2026 14:37 22,3 °C 0,1 °C 45 % 88 % 1003,4 hPa 0,0 l/m² 10,6 km/h (2 Bft) O-NO 76 ° 1 min 132 W/m² -1,6 °C -3,8 °C 17,7 km/h (3 Bft)
30.01.2026 14:38 22,3 °C 0,1 °C 45 % 88 % 1003,5 hPa 0,0 l/m² 12,9 km/h (3 Bft) O 83 ° 1 min 134 W/m² -1,6 °C -5,5 °C 16,1 km/h (3 Bft)
30.01.2026 14:39 22,4 °C 0,1 °C 45 % 88 % 1003,4 hPa 0,0 l/m² 9,6 km/h (2 Bft) O-NO 76 ° 1 min 141 W/m² -1,6 °C -3,0 °C 16,1 km/h (3 Bft)
30.01.2026 14:41 22,4 °C 0,1 °C 45 % 88 % 1003,5 hPa 0,0 l/m² 7,8 km/h (2 Bft) O-NO 76 ° 2 min 146 W/m² -1,6 °C -1,3 °C 14,5 km/h (3 Bft)
30.01.2026 14:42 22,4 °C 0,1 °C 45 % 88 % 1003,6 hPa 0,0 l/m² 8,8 km/h (2 Bft) O-NO 65 ° 1 min 165 W/m² -1,6 °C -2,3 °C 12,9 km/h (3 Bft)
30.01.2026 14:43 22,4 °C 0,1 °C 45 % 88 % 1003,6 hPa 0,0 l/m² 16,4 km/h (3 Bft) O 89 ° 1 min 172 W/m² -1,6 °C -7,7 °C 20,9 km/h (4 Bft)
30.01.2026 14:45 22,4 °C 0,1 °C 45 % 88 % 1003,5 hPa 0,0 l/m² 14,9 km/h (3 Bft) O 85 ° 2 min 172 W/m² -1,6 °C -6,8 °C 19,3 km/h (3 Bft)
30.01.2026 14:46 22,4 °C 0,1 °C 45 % 88 % 1003,5 hPa 0,2 l/m² 12,9 km/h (3 Bft) O-NO 76 ° 1 min 167 W/m² -1,6 °C -5,5 °C 14,5 km/h (3 Bft)
30.01.2026 14:47 22,4 °C 0,1 °C 45 % 88 % 1003,5 hPa 0,0 l/m² 9,1 km/h (2 Bft) O-NO 77 ° 1 min 165 W/m² -1,6 °C -2,6 °C 12,9 km/h (3 Bft)
30.01.2026 14:48 22,4 °C 0,2 °C 45 % 88 % 1003,6 hPa 0,0 l/m² 7,3 km/h (2 Bft) O 92 ° 1 min 160 W/m² -1,5 °C -0,7 °C 12,9 km/h (3 Bft)
30.01.2026 14:49 22,4 °C 0,2 °C 45 % 88 % 1003,6 hPa 0,0 l/m² 8,3 km/h (2 Bft) O 98 ° 1 min 153 W/m² -1,5 °C -1,7 °C 14,5 km/h (3 Bft)
30.01.2026 14:51 22,4 °C 0,2 °C 45 % 88 % 1003,5 hPa 0,0 l/m² 9,9 km/h (2 Bft) O-NO 78 ° 2 min 139 W/m² -1,5 °C -3,1 °C 14,5 km/h (3 Bft)
30.01.2026 14:52 22,4 °C 0,2 °C 45 % 88 % 1003,6 hPa 0,0 l/m² 5,6 km/h (2 Bft) O-NO 67 ° 1 min 135 W/m² -1,5 °C 0,2 °C 9,7 km/h (2 Bft)
30.01.2026 14:53 22,4 °C 0,2 °C 45 % 88 % 1003,6 hPa 0,0 l/m² 11,1 km/h (2 Bft) O 85 ° 1 min 132 W/m² -1,5 °C -4,1 °C 16,1 km/h (3 Bft)
30.01.2026 14:55 22,4 °C 0,1 °C 45 % 88 % 1003,6 hPa 0,0 l/m² 13,4 km/h (3 Bft) O-NO 73 ° 2 min 125 W/m² -1,6 °C -5,9 °C 19,3 km/h (3 Bft)
30.01.2026 14:56 22,4 °C 0,2 °C 45 % 88 % 1003,6 hPa 0,0 l/m² 11,8 km/h (2 Bft) O-NO 70 ° 1 min 123 W/m² -1,5 °C -4,6 °C 16,1 km/h (3 Bft)
30.01.2026 14:57 22,4 °C 0,2 °C 45 % 88 % 1003,7 hPa 0,0 l/m² 9,3 km/h (2 Bft) O-NO 62 ° 1 min 125 W/m² -1,5 °C -2,6 °C 14,5 km/h (3 Bft)
30.01.2026 14:58 22,4 °C 0,2 °C 45 % 88 % 1003,6 hPa 0,0 l/m² 7,2 km/h (2 Bft) O-NO 69 ° 1 min 127 W/m² -1,5 °C -0,6 °C 9,7 km/h (2 Bft)
30.01.2026 14:59 22,4 °C 0,2 °C 45 % 88 % 1003,6 hPa 0,0 l/m² 13,0 km/h (3 Bft) O-NO 74 ° 1 min 127 W/m² -1,5 °C -5,5 °C 17,7 km/h (3 Bft)
30.01.2026 15:01 22,3 °C 0,2 °C 45 % 88 % 1003,6 hPa 0,0 l/m² 13,2 km/h (3 Bft) O 84 ° 2 min 123 W/m² -1,5 °C -5,6 °C 16,1 km/h (3 Bft)
30.01.2026 15:02 22,3 °C 0,2 °C 45 % 88 % 1003,7 hPa 0,0 l/m² 10,7 km/h (2 Bft) O-NO 67 ° 1 min 123 W/m² -1,5 °C -3,8 °C 14,5 km/h (3 Bft)
30.01.2026 15:03 22,3 °C 0,2 °C 45 % 88 % 1003,7 hPa 0,0 l/m² 7,2 km/h (2 Bft) O 80 ° 1 min 121 W/m² -1,5 °C -0,6 °C 11,3 km/h (2 Bft)
30.01.2026 15:05 22,3 °C 0,2 °C 45 % 88 % 1003,6 hPa 0,0 l/m² 13,8 km/h (3 Bft) O-NO 69 ° 2 min 118 W/m² -1,5 °C -6,0 °C 17,7 km/h (3 Bft)
30.01.2026 15:06 22,3 °C 0,2 °C 45 % 88 % 1003,5 hPa 0,0 l/m² 12,9 km/h (3 Bft) O-NO 74 ° 1 min 113 W/m² -1,5 °C -5,4 °C 16,1 km/h (3 Bft)
30.01.2026 15:08 22,3 °C 0,2 °C 45 % 88 % 1003,6 hPa 0,0 l/m² 12,9 km/h (3 Bft) O-NO 63 ° 2 min 111 W/m² -1,5 °C -5,4 °C 17,7 km/h (3 Bft)
30.01.2026 15:09 22,3 °C 0,2 °C 45 % 88 % 1003,6 hPa 0,0 l/m² 9,5 km/h (2 Bft) NO 51 ° 1 min 113 W/m² -1,5 °C -2,8 °C 14,5 km/h (3 Bft)
30.01.2026 15:11 22,3 °C 0,2 °C 45 % 88 % 1003,6 hPa 0,0 l/m² 13,8 km/h (3 Bft) O 87 ° 2 min 116 W/m² -1,5 °C -6,0 °C 20,9 km/h (4 Bft)
30.01.2026 15:12 22,3 °C 0,2 °C 45 % 88 % 1003,6 hPa 0,0 l/m² 14,5 km/h (3 Bft) O-NO 74 ° 1 min 114 W/m² -1,5 °C -6,4 °C 16,1 km/h (3 Bft)
30.01.2026 15:13 22,3 °C 0,1 °C 45 % 88 % 1003,6 hPa 0,0 l/m² 10,5 km/h (2 Bft) O-NO 67 ° 1 min 114 W/m² -1,6 °C -3,7 °C 14,5 km/h (3 Bft)
30.01.2026 15:15 22,3 °C 0,1 °C 46 % 88 % 1003,5 hPa 0,0 l/m² 11,7 km/h (2 Bft) O-NO 67 ° 2 min 97 W/m² -1,6 °C -4,7 °C 17,7 km/h (3 Bft)
30.01.2026 15:16 22,3 °C 0,1 °C 46 % 88 % 1003,5 hPa 0,0 l/m² 12,3 km/h (2 Bft) O-NO 74 ° 1 min 91 W/m² -1,6 °C -5,1 °C 17,7 km/h (3 Bft)
30.01.2026 15:17 22,3 °C 0,1 °C 46 % 88 % 1003,6 hPa 0,0 l/m² 15,4 km/h (3 Bft) O-SO 102 ° 1 min 88 W/m² -1,6 °C -7,1 °C 20,9 km/h (4 Bft)
30.01.2026 15:18 22,3 °C 0,1 °C 46 % 88 % 1003,6 hPa 0,0 l/m² 15,4 km/h (3 Bft) O-NO 73 ° 1 min 83 W/m² -1,6 °C -7,1 °C 17,7 km/h (3 Bft)
30.01.2026 15:19 22,3 °C 0,1 °C 46 % 88 % 1003,6 hPa 0,0 l/m² 13,3 km/h (3 Bft) N-NO 33 ° 1 min 86 W/m² -1,6 °C -5,8 °C 17,7 km/h (3 Bft)
30.01.2026 15:21 22,3 °C 0,1 °C 42 % 88 % 1003,5 hPa 0,0 l/m² 12,9 km/h (3 Bft) O-NO 77 ° 2 min 77 W/m² -1,6 °C -5,5 °C 17,7 km/h (3 Bft)
30.01.2026 15:22 22,2 °C 0,1 °C 41 % 88 % 1003,5 hPa 0,0 l/m² 15,0 km/h (3 Bft) O 88 ° 1 min 77 W/m² -1,6 °C -6,9 °C 19,3 km/h (3 Bft)
30.01.2026 15:23 22,2 °C 0,1 °C 41 % 88 % 1003,5 hPa 0,0 l/m² 14,2 km/h (3 Bft) O-NO 77 ° 1 min 77 W/m² -1,6 °C -6,4 °C 22,5 km/h (4 Bft)
30.01.2026 15:25 22,1 °C 0,1 °C 39 % 88 % 1003,5 hPa 0,0 l/m² 15,2 km/h (3 Bft) O-NO 71 ° 2 min 74 W/m² -1,6 °C -7,0 °C 22,5 km/h (4 Bft)
30.01.2026 15:26 22,1 °C 0,1 °C 38 % 88 % 1003,4 hPa 0,0 l/m² 15,6 km/h (3 Bft) O-NO 72 ° 1 min 72 W/m² -1,6 °C -7,2 °C 17,7 km/h (3 Bft)
30.01.2026 15:27 22,0 °C 0,1 °C 38 % 88 % 1003,5 hPa 0,2 l/m² 12,9 km/h (3 Bft) O-NO 71 ° 1 min 70 W/m² -1,6 °C -5,5 °C 17,7 km/h (3 Bft)
30.01.2026 15:28 21,9 °C 0,1 °C 37 % 88 % 1003,4 hPa 0,0 l/m² 14,4 km/h (3 Bft) O-NO 73 ° 1 min 70 W/m² -1,6 °C -6,5 °C 20,9 km/h (4 Bft)
30.01.2026 15:29 21,9 °C 0,1 °C 37 % 88 % 1003,4 hPa 0,0 l/m² 13,1 km/h (3 Bft) O-NO 76 ° 1 min 67 W/m² -1,6 °C -5,7 °C 17,7 km/h (3 Bft)
30.01.2026 15:31 21,8 °C 0,0 °C 37 % 88 % 1003,4 hPa 0,0 l/m² 15,1 km/h (3 Bft) O 80 ° 2 min 60 W/m² -1,7 °C -7,0 °C 19,3 km/h (3 Bft)
30.01.2026 15:32 21,8 °C 0,0 °C 37 % 88 % 1003,4 hPa 0,0 l/m² 13,2 km/h (3 Bft) O-NO 78 ° 1 min 58 W/m² -1,7 °C -5,8 °C 17,7 km/h (3 Bft)
30.01.2026 15:33 21,8 °C 0,0 °C 37 % 88 % 1003,4 hPa 0,0 l/m² 11,0 km/h (2 Bft) O-NO 69 ° 1 min 58 W/m² -1,7 °C -4,3 °C 14,5 km/h (3 Bft)
30.01.2026 15:35 21,7 °C -0,1 °C 37 % 88 % 1003,3 hPa 0,0 l/m² 10,7 km/h (2 Bft) O 90 ° 2 min 54 W/m² -1,8 °C -4,1 °C 16,1 km/h (3 Bft)
30.01.2026 15:36 21,7 °C -0,1 °C 37 % 88 % 1003,4 hPa 0,0 l/m² 8,9 km/h (2 Bft) O-NO 78 ° 1 min 58 W/m² -1,8 °C -2,6 °C 11,3 km/h (2 Bft)
30.01.2026 15:37 21,7 °C -0,1 °C 37 % 88 % 1003,4 hPa 0,0 l/m² 5,2 km/h (1 Bft) O-NO 59 ° 1 min 58 W/m² -1,8 °C -0,1 °C 8,0 km/h (2 Bft)
30.01.2026 15:38 21,7 °C 0,0 °C 37 % 88 % 1003,3 hPa 0,0 l/m² 9,8 km/h (2 Bft) O-NO 69 ° 1 min 58 W/m² -1,7 °C -3,3 °C 14,5 km/h (3 Bft)
30.01.2026 15:39 21,7 °C -0,1 °C 38 % 88 % 1003,4 hPa 0,0 l/m² 9,7 km/h (2 Bft) O-NO 74 ° 1 min 58 W/m² -1,8 °C -3,3 °C 16,1 km/h (3 Bft)
30.01.2026 15:41 21,7 °C 0,0 °C 38 % 88 % 1003,3 hPa 0,0 l/m² 10,7 km/h (2 Bft) NO 52 ° 2 min 58 W/m² -1,7 °C -4,0 °C 16,1 km/h (3 Bft)
30.01.2026 15:42 21,6 °C 0,0 °C 38 % 88 % 1003,3 hPa 0,0 l/m² 8,0 km/h (2 Bft) O-NO 63 ° 1 min 54 W/m² -1,7 °C -1,6 °C 14,5 km/h (3 Bft)
30.01.2026 15:43 21,6 °C 0,0 °C 38 % 88 % 1003,3 hPa 0,0 l/m² 13,0 km/h (3 Bft) O-NO 64 ° 1 min 54 W/m² -1,7 °C -5,7 °C 19,3 km/h (3 Bft)
30.01.2026 15:46 21,6 °C 0,0 °C 38 % 88 % 1003,4 hPa 0,0 l/m² 12,2 km/h (2 Bft) O-NO 66 ° 0 min 47 W/m² -1,7 °C -5,1 °C 16,1 km/h (3 Bft)
30.01.2026 15:47 21,6 °C 0,0 °C 37 % 88 % 1003,4 hPa 0,0 l/m² 10,5 km/h (2 Bft) O 79 ° 0 min 44 W/m² -1,7 °C -3,9 °C 16,1 km/h (3 Bft)
30.01.2026 15:48 21,6 °C 0,0 °C 37 % 88 % 1003,4 hPa 0,0 l/m² 8,1 km/h (2 Bft) O 84 ° 0 min 44 W/m² -1,7 °C -1,7 °C 16,1 km/h (3 Bft)
30.01.2026 15:49 21,6 °C -0,1 °C 37 % 88 % 1003,3 hPa 0,0 l/m² 11,1 km/h (2 Bft) O-NO 72 ° 0 min 42 W/m² -1,8 °C -4,4 °C 16,1 km/h (3 Bft)
30.01.2026 15:51 21,6 °C 0,0 °C 38 % 88 % 1003,4 hPa 0,0 l/m² 7,1 km/h (2 Bft) O-NO 78 ° 0 min 39 W/m² -1,7 °C -0,7 °C 11,3 km/h (2 Bft)
30.01.2026 15:52 21,6 °C 0,0 °C 38 % 88 % 1003,4 hPa 0,0 l/m² 7,1 km/h (2 Bft) NO 55 ° 0 min 39 W/m² -1,7 °C -0,7 °C 11,3 km/h (2 Bft)
30.01.2026 15:53 21,6 °C 0,0 °C 38 % 88 % 1003,4 hPa 0,0 l/m² 7,1 km/h (2 Bft) NO 55 ° 0 min 39 W/m² -1,7 °C -0,7 °C 12,9 km/h (3 Bft)
30.01.2026 15:55 21,6 °C 0,0 °C 38 % 88 % 1003,4 hPa 0,0 l/m² 6,6 km/h (2 Bft) O-NO 68 ° 0 min 37 W/m² -1,7 °C -0,2 °C 12,9 km/h (3 Bft)
30.01.2026 15:56 21,6 °C 0,0 °C 38 % 88 % 1003,4 hPa 0,0 l/m² 7,3 km/h (2 Bft) O 82 ° 0 min 37 W/m² -1,7 °C -0,9 °C 9,7 km/h (2 Bft)
30.01.2026 15:57 21,6 °C 0,0 °C 39 % 88 % 1003,5 hPa 0,0 l/m² 7,4 km/h (2 Bft) O 85 ° 0 min 37 W/m² -1,7 °C -1,0 °C 9,7 km/h (2 Bft)
30.01.2026 15:58 21,6 °C 0,0 °C 39 % 88 % 1003,5 hPa 0,0 l/m² 3,6 km/h (1 Bft) O 81 ° 0 min 37 W/m² -1,7 °C 0,0 °C 8,0 km/h (2 Bft)
30.01.2026 15:59 21,6 °C 0,0 °C 39 % 88 % 1003,5 hPa 0,0 l/m² 4,2 km/h (1 Bft) O-NO 68 ° 0 min 33 W/m² -1,7 °C 0,0 °C 8,0 km/h (2 Bft)
30.01.2026 16:01 21,6 °C 0,0 °C 39 % 88 % 1003,5 hPa 0,0 l/m² 5,2 km/h (1 Bft) NO 40 ° 0 min 33 W/m² -1,7 °C 0,0 °C 11,3 km/h (2 Bft)
30.01.2026 16:02 21,6 °C 0,0 °C 39 % 89 % 1003,5 hPa 0,0 l/m² 9,4 km/h (2 Bft) O 85 ° 0 min 32 W/m² -1,6 °C -2,9 °C 12,9 km/h (3 Bft)
30.01.2026 16:03 21,6 °C -0,1 °C 39 % 89 % 1003,5 hPa 0,0 l/m² 4,8 km/h (1 Bft) O-NO 68 ° 0 min 32 W/m² -1,7 °C -0,1 °C 9,7 km/h (2 Bft)
30.01.2026 16:05 21,6 °C 0,0 °C 39 % 89 % 1003,5 hPa 0,0 l/m² 7,2 km/h (2 Bft) O-NO 57 ° 0 min 30 W/m² -1,6 °C -0,8 °C 12,9 km/h (3 Bft)
30.01.2026 16:06 21,6 °C 0,0 °C 40 % 89 % 1003,5 hPa 0,0 l/m² 9,4 km/h (2 Bft) O 92 ° 0 min 28 W/m² -1,6 °C -2,9 °C 12,9 km/h (3 Bft)
30.01.2026 16:07 21,6 °C 0,0 °C 40 % 89 % 1003,6 hPa 0,0 l/m² 8,6 km/h (2 Bft) O-NO 69 ° 0 min 28 W/m² -1,6 °C -2,2 °C 11,3 km/h (2 Bft)
30.01.2026 16:08 21,7 °C -0,1 °C 40 % 89 % 1003,5 hPa 0,0 l/m² 8,4 km/h (2 Bft) O-NO 71 ° 0 min 26 W/m² -1,7 °C -2,1 °C 11,3 km/h (2 Bft)
30.01.2026 16:09 21,7 °C 0,0 °C 40 % 89 % 1003,6 hPa 0,0 l/m² 7,7 km/h (2 Bft) O 84 ° 0 min 26 W/m² -1,6 °C -1,3 °C 12,9 km/h (3 Bft)
30.01.2026 16:11 21,7 °C 0,0 °C 40 % 89 % 1003,6 hPa 0,0 l/m² 5,6 km/h (2 Bft) O-NO 78 ° 0 min 21 W/m² -1,6 °C 0,0 °C 9,7 km/h (2 Bft)
30.01.2026 16:12 21,7 °C 0,0 °C 40 % 89 % 1003,6 hPa 0,0 l/m² 7,6 km/h (2 Bft) O-NO 59 ° 0 min 19 W/m² -1,6 °C -1,2 °C 11,3 km/h (2 Bft)
30.01.2026 16:13 21,7 °C 0,0 °C 40 % 89 % 1003,6 hPa 0,0 l/m² 6,0 km/h (2 Bft) O-NO 77 ° 0 min 19 W/m² -1,6 °C 0,0 °C 8,0 km/h (2 Bft)
30.01.2026 16:15 21,7 °C 0,0 °C 40 % 89 % 1003,6 hPa 0,0 l/m² 6,2 km/h (2 Bft) O-NO 71 ° 0 min 19 W/m² -1,6 °C 0,0 °C 11,3 km/h (2 Bft)
30.01.2026 16:16 21,7 °C 0,0 °C 40 % 89 % 1003,6 hPa 0,0 l/m² 6,0 km/h (2 Bft) O-NO 69 ° 0 min 19 W/m² -1,6 °C 0,0 °C 9,7 km/h (2 Bft)
30.01.2026 16:17 21,7 °C 0,0 °C 41 % 89 % 1003,6 hPa 0,0 l/m² 4,7 km/h (1 Bft) O-NO 59 ° 0 min 19 W/m² -1,6 °C 0,0 °C 8,0 km/h (2 Bft)
30.01.2026 16:18 21,7 °C 0,0 °C 41 % 89 % 1003,6 hPa 0,0 l/m² 2,6 km/h (1 Bft) O-NO 77 ° 0 min 19 W/m² -1,6 °C 0,0 °C 8,0 km/h (2 Bft)
30.01.2026 16:19 21,7 °C 0,0 °C 41 % 89 % 1003,6 hPa 0,0 l/m² 5,7 km/h (2 Bft) O-NO 78 ° 0 min 19 W/m² -1,6 °C 0,0 °C 8,0 km/h (2 Bft)
30.01.2026 16:21 21,7 °C 0,1 °C 41 % 88 % 1003,6 hPa 0,0 l/m² 5,9 km/h (2 Bft) O-NO 72 ° 0 min 18 W/m² -1,6 °C 0,1 °C 9,7 km/h (2 Bft)
30.01.2026 16:22 21,7 °C 0,0 °C 41 % 89 % 1003,6 hPa 0,0 l/m² 4,7 km/h (1 Bft) NO 48 ° 0 min 18 W/m² -1,6 °C 0,0 °C 6,4 km/h (2 Bft)
30.01.2026 16:23 21,7 °C 0,0 °C 41 % 88 % 1003,6 hPa 0,0 l/m² 5,5 km/h (2 Bft) O 81 ° 0 min 16 W/m² -1,7 °C 0,0 °C 8,0 km/h (2 Bft)
30.01.2026 16:25 21,7 °C 0,0 °C 41 % 89 % 1003,5 hPa 0,0 l/m² 5,8 km/h (2 Bft) O-NO 69 ° 0 min 16 W/m² -1,6 °C 0,0 °C 12,9 km/h (3 Bft)
30.01.2026 16:26 21,7 °C 0,0 °C 41 % 89 % 1003,6 hPa 0,0 l/m² 8,0 km/h (2 Bft) O-NO 60 ° 0 min 16 W/m² -1,6 °C -1,6 °C 11,3 km/h (2 Bft)
30.01.2026 16:27 21,7 °C 0,0 °C 41 % 89 % 1003,6 hPa 0,0 l/m² 7,7 km/h (2 Bft) O-NO 63 ° 0 min 16 W/m² -1,6 °C -1,3 °C 14,5 km/h (3 Bft)
30.01.2026 16:28 21,7 °C -0,1 °C 41 % 89 % 1003,5 hPa 0,0 l/m² 5,7 km/h (2 Bft) O-NO 75 ° 0 min 14 W/m² -1,7 °C -0,1 °C 8,0 km/h (2 Bft)
30.01.2026 16:29 21,7 °C -0,1 °C 41 % 89 % 1003,6 hPa 0,0 l/m² 9,1 km/h (2 Bft) O-NO 77 ° 0 min 14 W/m² -1,7 °C -2,8 °C 12,9 km/h (3 Bft)
30.01.2026 16:31 21,7 °C -0,1 °C 41 % 89 % 1003,6 hPa 0,0 l/m² 6,0 km/h (2 Bft) O-NO 74 ° 0 min 14 W/m² -1,7 °C -0,1 °C 8,0 km/h (2 Bft)
30.01.2026 16:32 21,7 °C -0,1 °C 41 % 89 % 1003,6 hPa 0,0 l/m² 7,4 km/h (2 Bft) O-NO 76 ° 0 min 12 W/m² -1,7 °C -1,1 °C 12,9 km/h (3 Bft)
30.01.2026 16:33 21,7 °C -0,1 °C 41 % 89 % 1003,6 hPa 0,0 l/m² 6,9 km/h (2 Bft) O-NO 65 ° 0 min 12 W/m² -1,7 °C -0,6 °C 12,9 km/h (3 Bft)
30.01.2026 16:35 21,7 °C -0,1 °C 41 % 89 % 1003,6 hPa 0,0 l/m² 7,1 km/h (2 Bft) O-NO 59 ° 0 min 12 W/m² -1,7 °C -0,8 °C 14,5 km/h (3 Bft)
30.01.2026 16:36 21,7 °C -0,1 °C 41 % 89 % 1003,6 hPa 0,0 l/m² 10,5 km/h (2 Bft) O-NO 59 ° 0 min 12 W/m² -1,7 °C -4,0 °C 14,5 km/h (3 Bft)
30.01.2026 16:37 21,7 °C -0,1 °C 41 % 89 % 1003,6 hPa 0,0 l/m² 9,1 km/h (2 Bft) O-NO 65 ° 0 min 11 W/m² -1,7 °C -2,8 °C 16,1 km/h (3 Bft)
30.01.2026 16:38 21,7 °C -0,1 °C 41 % 89 % 1003,6 hPa 0,0 l/m² 4,8 km/h (1 Bft) O 89 ° 0 min 11 W/m² -1,7 °C -0,1 °C 8,0 km/h (2 Bft)
30.01.2026 16:39 21,7 °C -0,1 °C 42 % 89 % 1003,6 hPa 0,0 l/m² 5,3 km/h (1 Bft) O-NO 65 ° 0 min 11 W/m² -1,7 °C -0,1 °C 9,7 km/h (2 Bft)
30.01.2026 16:41 21,7 °C -0,1 °C 42 % 89 % 1003,7 hPa 0,0 l/m² 5,9 km/h (2 Bft) O-NO 74 ° 0 min 11 W/m² -1,7 °C -0,1 °C 11,3 km/h (2 Bft)
30.01.2026 16:42 21,7 °C -0,1 °C 42 % 89 % 1003,7 hPa 0,0 l/m² 7,5 km/h (2 Bft) O 83 ° 0 min 9 W/m² -1,7 °C -1,2 °C 11,3 km/h (2 Bft)
30.01.2026 16:43 21,7 °C -0,1 °C 42 % 89 % 1003,7 hPa 0,0 l/m² 6,4 km/h (2 Bft) O-NO 57 ° 0 min 9 W/m² -1,7 °C -0,1 °C 9,7 km/h (2 Bft)
30.01.2026 16:45 21,7 °C -0,1 °C 42 % 89 % 1003,7 hPa 0,0 l/m² 5,8 km/h (2 Bft) O 89 ° 0 min 9 W/m² -1,7 °C -0,1 °C 11,3 km/h (2 Bft)
30.01.2026 16:46 21,7 °C -0,1 °C 42 % 89 % 1003,6 hPa 0,0 l/m² 4,4 km/h (1 Bft) O-NO 66 ° 0 min 7 W/m² -1,7 °C -0,1 °C 8,0 km/h (2 Bft)
30.01.2026 16:47 21,8 °C -0,1 °C 42 % 89 % 1003,7 hPa 0,0 l/m² 6,8 km/h (2 Bft) NO 43 ° 0 min 7 W/m² -1,7 °C -0,5 °C 11,3 km/h (2 Bft)
30.01.2026 16:48 21,7 °C -0,1 °C 42 % 89 % 1003,7 hPa 0,0 l/m² 10,5 km/h (2 Bft) O-NO 76 ° 0 min 7 W/m² -1,7 °C -4,0 °C 14,5 km/h (3 Bft)
30.01.2026 16:49 21,7 °C -0,1 °C 42 % 89 % 1003,7 hPa 0,0 l/m² 7,3 km/h (2 Bft) O 79 ° 0 min 7 W/m² -1,7 °C -1,0 °C 12,9 km/h (3 Bft)
30.01.2026 16:51 21,8 °C -0,1 °C 42 % 89 % 1003,7 hPa 0,0 l/m² 7,3 km/h (2 Bft) O-NO 67 ° 0 min 7 W/m² -1,7 °C -1,0 °C 12,9 km/h (3 Bft)
30.01.2026 16:52 21,8 °C -0,1 °C 42 % 89 % 1003,7 hPa 0,0 l/m² 6,6 km/h (2 Bft) O-NO 69 ° 0 min 7 W/m² -1,7 °C -0,3 °C 11,3 km/h (2 Bft)
30.01.2026 16:53 21,8 °C -0,1 °C 42 % 89 % 1003,7 hPa 0,0 l/m² 3,1 km/h (1 Bft) O-NO 61 ° 0 min 5 W/m² -1,7 °C -0,1 °C 4,8 km/h (1 Bft)
30.01.2026 16:55 21,8 °C -0,1 °C 43 % 89 % 1003,7 hPa 0,0 l/m² 5,9 km/h (2 Bft) O 95 ° 0 min 5 W/m² -1,7 °C -0,1 °C 9,7 km/h (2 Bft)
30.01.2026 16:56 21,8 °C -0,1 °C 43 % 89 % 1003,7 hPa 0,0 l/m² 6,1 km/h (2 Bft) O-NO 69 ° 0 min 5 W/m² -1,7 °C -0,1 °C 8,0 km/h (2 Bft)
30.01.2026 16:57 21,8 °C -0,2 °C 43 % 89 % 1003,7 hPa 0,0 l/m² 4,6 km/h (1 Bft) O 86 ° 0 min 5 W/m² -1,8 °C -0,2 °C 6,4 km/h (2 Bft)
30.01.2026 16:58 21,8 °C -0,2 °C 43 % 89 % 1003,7 hPa 0,0 l/m² 7,1 km/h (2 Bft) O 92 ° 0 min 5 W/m² -1,8 °C -0,9 °C 8,0 km/h (2 Bft)
30.01.2026 16:59 21,8 °C -0,2 °C 43 % 89 % 1003,7 hPa 0,0 l/m² 8,0 km/h (2 Bft) O 88 ° 0 min 5 W/m² -1,8 °C -1,9 °C 12,9 km/h (3 Bft)
30.01.2026 17:01 21,8 °C -0,2 °C 43 % 89 % 1003,7 hPa 0,0 l/m² 5,2 km/h (1 Bft) O 84 ° 0 min 0 W/m² -1,8 °C -0,2 °C 8,0 km/h (2 Bft)
30.01.2026 17:02 21,8 °C -0,2 °C 43 % 89 % 1003,7 hPa 0,0 l/m² 5,1 km/h (1 Bft) O-NO 72 ° 0 min 0 W/m² -1,8 °C -0,2 °C 8,0 km/h (2 Bft)
30.01.2026 17:03 21,8 °C -0,2 °C 43 % 89 % 1003,7 hPa 0,0 l/m² 5,5 km/h (2 Bft) O-NO 72 ° 0 min 0 W/m² -1,8 °C -0,2 °C 6,4 km/h (2 Bft)
30.01.2026 17:05 21,8 °C -0,2 °C 43 % 89 % 1003,8 hPa 0,0 l/m² 5,1 km/h (1 Bft) O 79 ° 0 min 0 W/m² -1,8 °C -0,2 °C 6,4 km/h (2 Bft)
30.01.2026 17:06 21,7 °C -0,2 °C 43 % 89 % 1003,8 hPa 0,0 l/m² 5,0 km/h (1 Bft) O 91 ° 0 min 0 W/m² -1,8 °C -0,2 °C 6,4 km/h (2 Bft)
30.01.2026 17:08 21,7 °C -0,2 °C 43 % 89 % 1003,8 hPa 0,0 l/m² 5,7 km/h (2 Bft) O-NO 78 ° 0 min 0 W/m² -1,8 °C -0,2 °C 11,3 km/h (2 Bft)
30.01.2026 17:09 21,7 °C -0,2 °C 43 % 89 % 1003,8 hPa 0,0 l/m² 6,0 km/h (2 Bft) O-NO 78 ° 0 min 0 W/m² -1,8 °C -0,2 °C 11,3 km/h (2 Bft)
30.01.2026 17:11 21,7 °C -0,2 °C 43 % 89 % 1003,7 hPa 0,0 l/m² 5,0 km/h (1 Bft) O 80 ° 0 min 0 W/m² -1,8 °C -0,2 °C 8,0 km/h (2 Bft)
30.01.2026 17:12 21,7 °C -0,2 °C 43 % 89 % 1003,8 hPa 0,0 l/m² 4,3 km/h (1 Bft) O 86 ° 0 min 0 W/m² -1,8 °C -0,2 °C 6,4 km/h (2 Bft)
30.01.2026 17:13 21,7 °C -0,2 °C 43 % 89 % 1003,8 hPa 0,0 l/m² 4,3 km/h (1 Bft) O-NO 72 ° 0 min 0 W/m² -1,8 °C -0,2 °C 6,4 km/h (2 Bft)
30.01.2026 17:15 21,7 °C -0,2 °C 43 % 89 % 1003,8 hPa 0,0 l/m² 3,7 km/h (1 Bft) O-NO 61 ° 0 min 0 W/m² -1,8 °C -0,2 °C 6,4 km/h (2 Bft)
30.01.2026 17:16 21,7 °C -0,2 °C 43 % 89 % 1003,8 hPa 0,0 l/m² 4,1 km/h (1 Bft) NO 50 ° 0 min 0 W/m² -1,8 °C -0,2 °C 6,4 km/h (2 Bft)
30.01.2026 17:17 21,8 °C -0,2 °C 43 % 89 % 1003,8 hPa 0,0 l/m² 3,5 km/h (1 Bft) O 88 ° 0 min 0 W/m² -1,8 °C -0,2 °C 4,8 km/h (1 Bft)
30.01.2026 17:18 21,7 °C -0,2 °C 43 % 89 % 1003,8 hPa 0,0 l/m² 5,1 km/h (1 Bft) O-NO 63 ° 0 min 0 W/m² -1,8 °C -0,2 °C 9,7 km/h (2 Bft)
30.01.2026 17:19 21,7 °C -0,2 °C 43 % 89 % 1003,8 hPa 0,0 l/m² 6,0 km/h (2 Bft) O-NO 69 ° 0 min 0 W/m² -1,8 °C -0,2 °C 8,0 km/h (2 Bft)
30.01.2026 17:21 21,7 °C -0,2 °C 43 % 89 % 1003,8 hPa 0,0 l/m² 5,4 km/h (2 Bft) O-NO 61 ° 0 min 0 W/m² -1,8 °C -0,2 °C 11,3 km/h (2 Bft)
30.01.2026 17:22 21,7 °C -0,2 °C 43 % 89 % 1003,8 hPa 0,0 l/m² 4,5 km/h (1 Bft) O 84 ° 0 min 0 W/m² -1,8 °C -0,2 °C 6,4 km/h (2 Bft)
30.01.2026 17:23 21,7 °C -0,2 °C 43 % 89 % 1003,8 hPa 0,0 l/m² 5,7 km/h (2 Bft) O-NO 72 ° 0 min 0 W/m² -1,8 °C -0,2 °C 6,4 km/h (2 Bft)
30.01.2026 17:25 21,7 °C -0,2 °C 43 % 89 % 1003,8 hPa 0,0 l/m² 6,2 km/h (2 Bft) O-NO 65 ° 0 min 0 W/m² -1,8 °C -0,2 °C 11,3 km/h (2 Bft)
30.01.2026 17:26 21,7 °C -0,2 °C 43 % 89 % 1003,8 hPa 0,0 l/m² 6,0 km/h (2 Bft) O-NO 75 ° 0 min 0 W/m² -1,8 °C -0,2 °C 8,0 km/h (2 Bft)
30.01.2026 17:27 21,7 °C -0,2 °C 43 % 89 % 1003,8 hPa 0,0 l/m² 6,4 km/h (2 Bft) NO 56 ° 0 min 0 W/m² -1,8 °C -0,2 °C 9,7 km/h (2 Bft)
30.01.2026 17:28 21,7 °C -0,2 °C 43 % 89 % 1003,9 hPa 0,0 l/m² 4,2 km/h (1 Bft) O-NO 69 ° 0 min 0 W/m² -1,8 °C -0,2 °C 6,4 km/h (2 Bft)
30.01.2026 17:29 21,7 °C -0,2 °C 43 % 89 % 1003,8 hPa 0,0 l/m² 1,9 km/h (1 Bft) O-NO 60 ° 0 min 0 W/m² -1,8 °C -0,2 °C 3,2 km/h (1 Bft)
30.01.2026 17:31 21,7 °C -0,2 °C 43 % 89 % 1003,9 hPa 0,0 l/m² 4,5 km/h (1 Bft) O 83 ° 0 min 0 W/m² -1,8 °C -0,2 °C 11,3 km/h (2 Bft)
30.01.2026 17:32 21,7 °C -0,2 °C 43 % 89 % 1003,8 hPa 0,0 l/m² 5,9 km/h (2 Bft) O-NO 74 ° 0 min 0 W/m² -1,8 °C -0,2 °C 8,0 km/h (2 Bft)
30.01.2026 17:33 21,7 °C -0,2 °C 43 % 89 % 1003,8 hPa 0,0 l/m² 5,6 km/h (2 Bft) O 84 ° 0 min 0 W/m² -1,8 °C -0,2 °C 8,0 km/h (2 Bft)
30.01.2026 17:35 21,7 °C -0,3 °C 43 % 89 % 1003,9 hPa 0,0 l/m² 3,9 km/h (1 Bft) O-NO 68 ° 0 min 0 W/m² -1,9 °C -0,3 °C 9,7 km/h (2 Bft)
30.01.2026 17:36 21,7 °C -0,2 °C 43 % 89 % 1003,9 hPa 0,0 l/m² 5,4 km/h (2 Bft) O-NO 64 ° 0 min 0 W/m² -1,8 °C -0,2 °C 9,7 km/h (2 Bft)
30.01.2026 17:37 21,7 °C -0,3 °C 43 % 89 % 1003,9 hPa 0,0 l/m² 5,5 km/h (2 Bft) O-NO 78 ° 0 min 0 W/m² -1,9 °C -0,3 °C 8,0 km/h (2 Bft)
30.01.2026 17:38 21,7 °C -0,3 °C 43 % 89 % 1003,9 hPa 0,0 l/m² 6,9 km/h (2 Bft) O-NO 76 ° 0 min 0 W/m² -1,9 °C -0,8 °C 12,9 km/h (3 Bft)
30.01.2026 17:39 21,7 °C -0,2 °C 43 % 89 % 1003,9 hPa 0,0 l/m² 6,8 km/h (2 Bft) O-NO 70 ° 0 min 0 W/m² -1,8 °C -0,6 °C 9,7 km/h (2 Bft)
30.01.2026 17:41 21,7 °C -0,3 °C 43 % 89 % 1003,9 hPa 0,0 l/m² 4,3 km/h (1 Bft) O 83 ° 0 min 0 W/m² -1,9 °C -0,3 °C 8,0 km/h (2 Bft)
30.01.2026 17:42 21,7 °C -0,3 °C 43 % 89 % 1004,0 hPa 0,0 l/m² 6,1 km/h (2 Bft) O 80 ° 0 min 0 W/m² -1,9 °C -0,3 °C 8,0 km/h (2 Bft)
30.01.2026 17:43 21,7 °C -0,3 °C 43 % 89 % 1004,0 hPa 0,0 l/m² 3,8 km/h (1 Bft) O-NO 69 ° 0 min 0 W/m² -1,9 °C -0,3 °C 6,4 km/h (2 Bft)
30.01.2026 17:45 21,7 °C -0,3 °C 43 % 89 % 1004,0 hPa 0,0 l/m² 3,9 km/h (1 Bft) O-NO 76 ° 0 min 0 W/m² -1,9 °C -0,3 °C 8,0 km/h (2 Bft)
30.01.2026 17:46 21,7 °C -0,3 °C 43 % 89 % 1004,0 hPa 0,0 l/m² 5,2 km/h (1 Bft) O-NO 67 ° 0 min 0 W/m² -1,9 °C -0,3 °C 8,0 km/h (2 Bft)
30.01.2026 17:47 21,7 °C -0,3 °C 43 % 89 % 1004,1 hPa 0,0 l/m² 3,6 km/h (1 Bft) O-NO 76 ° 0 min 0 W/m² -1,9 °C -0,3 °C 4,8 km/h (1 Bft)
30.01.2026 17:48 21,7 °C -0,3 °C 43 % 90 % 1004,0 hPa 0,0 l/m² 3,6 km/h (1 Bft) NO 55 ° 0 min 0 W/m² -1,7 °C -0,3 °C 6,4 km/h (2 Bft)
30.01.2026 17:49 21,7 °C -0,3 °C 43 % 90 % 1004,0 hPa 0,0 l/m² 2,8 km/h (1 Bft) O 84 ° 0 min 0 W/m² -1,7 °C -0,3 °C 6,4 km/h (2 Bft)
30.01.2026 17:51 21,7 °C -0,3 °C 43 % 90 % 1004,1 hPa 0,0 l/m² 3,6 km/h (1 Bft) O-NO 63 ° 0 min 0 W/m² -1,7 °C -0,3 °C 8,0 km/h (2 Bft)
30.01.2026 17:52 21,7 °C -0,3 °C 43 % 90 % 1004,1 hPa 0,0 l/m² 3,1 km/h (1 Bft) O-NO 70 ° 0 min 0 W/m² -1,7 °C -0,3 °C 4,8 km/h (1 Bft)
30.01.2026 17:53 21,7 °C -0,3 °C 43 % 90 % 1004,1 hPa 0,0 l/m² 0,9 km/h (0 Bft) O-NO 65 ° 0 min 0 W/m² -1,7 °C -0,3 °C 3,2 km/h (1 Bft)
30.01.2026 17:55 21,7 °C -0,3 °C 43 % 90 % 1004,0 hPa 0,0 l/m² 1,8 km/h (1 Bft) O-NO 74 ° 0 min 0 W/m² -1,7 °C -0,3 °C 6,4 km/h (2 Bft)
30.01.2026 17:56 21,7 °C -0,3 °C 43 % 90 % 1004,0 hPa 0,0 l/m² 4,5 km/h (1 Bft) O-NO 69 ° 0 min 0 W/m² -1,7 °C -0,3 °C 8,0 km/h (2 Bft)
30.01.2026 17:57 21,7 °C -0,3 °C 43 % 90 % 1004,1 hPa 0,0 l/m² 5,7 km/h (2 Bft) O-NO 78 ° 0 min 0 W/m² -1,7 °C -0,3 °C 8,0 km/h (2 Bft)
30.01.2026 17:58 21,7 °C -0,3 °C 43 % 90 % 1004,0 hPa 0,0 l/m² 4,3 km/h (1 Bft) O 80 ° 0 min 0 W/m² -1,7 °C -0,3 °C 8,0 km/h (2 Bft)
30.01.2026 17:59 21,7 °C -0,3 °C 43 % 90 % 1004,0 hPa 0,0 l/m² 3,0 km/h (1 Bft) NO 50 ° 0 min 0 W/m² -1,7 °C -0,3 °C 4,8 km/h (1 Bft)
30.01.2026 18:01 21,7 °C -0,3 °C 43 % 90 % 1004,0 hPa 0,0 l/m² 4,5 km/h (1 Bft) O 94 ° 0 min 0 W/m² -1,7 °C -0,3 °C 11,3 km/h (2 Bft)
30.01.2026 18:02 21,7 °C -0,3 °C 43 % 90 % 1004,0 hPa 0,0 l/m² 2,3 km/h (1 Bft) O-NO 75 ° 0 min 0 W/m² -1,7 °C -0,3 °C 6,4 km/h (2 Bft)
30.01.2026 18:03 21,7 °C -0,3 °C 43 % 90 % 1004,0 hPa 0,0 l/m² 6,2 km/h (2 Bft) O-NO 76 ° 0 min 0 W/m² -1,7 °C -0,3 °C 8,0 km/h (2 Bft)
30.01.2026 18:05 21,7 °C -0,3 °C 44 % 90 % 1004,1 hPa 0,0 l/m² 2,6 km/h (1 Bft) O 89 ° 0 min 0 W/m² -1,7 °C -0,3 °C 6,4 km/h (2 Bft)
30.01.2026 18:06 21,7 °C -0,3 °C 44 % 90 % 1004,1 hPa 0,0 l/m² 2,6 km/h (1 Bft) O-NO 73 ° 0 min 0 W/m² -1,7 °C -0,3 °C 6,4 km/h (2 Bft)
30.01.2026 18:07 21,7 °C -0,3 °C 44 % 90 % 1004,0 hPa 0,0 l/m² 0,0 km/h (0 Bft) O-NO 73 ° 0 min 0 W/m² -1,7 °C -0,3 °C 0,0 km/h (0 Bft)
30.01.2026 18:08 21,7 °C -0,3 °C 44 % 90 % 1004,0 hPa 0,0 l/m² 6,1 km/h (2 Bft) O 80 ° 0 min 0 W/m² -1,7 °C -0,3 °C 9,7 km/h (2 Bft)
30.01.2026 18:09 21,7 °C -0,3 °C 44 % 90 % 1004,1 hPa 0,0 l/m² 4,2 km/h (1 Bft) O-NO 57 ° 0 min 0 W/m² -1,7 °C -0,3 °C 6,4 km/h (2 Bft)
30.01.2026 18:11 21,7 °C -0,3 °C 44 % 90 % 1004,2 hPa 0,0 l/m² 3,3 km/h (1 Bft) O 88 ° 0 min 0 W/m² -1,7 °C -0,3 °C 6,4 km/h (2 Bft)
30.01.2026 18:12 21,7 °C -0,3 °C 44 % 90 % 1004,2 hPa 0,0 l/m² 1,0 km/h (0 Bft) NO 47 ° 0 min 0 W/m² -1,7 °C -0,3 °C 3,2 km/h (1 Bft)
30.01.2026 18:13 21,7 °C -0,3 °C 44 % 90 % 1004,2 hPa 0,0 l/m² 0,2 km/h (0 Bft) O-NO 68 ° 0 min 0 W/m² -1,7 °C -0,3 °C 1,6 km/h (1 Bft)
30.01.2026 18:15 21,7 °C -0,3 °C 44 % 90 % 1004,1 hPa 0,0 l/m² 2,5 km/h (1 Bft) O 89 ° 0 min 0 W/m² -1,7 °C -0,3 °C 4,8 km/h (1 Bft)
30.01.2026 18:16 21,7 °C -0,3 °C 44 % 90 % 1004,2 hPa 0,0 l/m² 3,9 km/h (1 Bft) O-NO 76 ° 0 min 0 W/m² -1,7 °C -0,3 °C 6,4 km/h (2 Bft)
30.01.2026 18:17 21,7 °C -0,3 °C 44 % 90 % 1004,2 hPa 0,0 l/m² 1,1 km/h (1 Bft) O-NO 76 ° 0 min 0 W/m² -1,7 °C -0,3 °C 3,2 km/h (1 Bft)
30.01.2026 18:18 21,7 °C -0,3 °C 44 % 90 % 1004,2 hPa 0,0 l/m² 4,5 km/h (1 Bft) O 84 ° 0 min 0 W/m² -1,7 °C -0,3 °C 6,4 km/h (2 Bft)
30.01.2026 18:19 21,7 °C -0,3 °C 44 % 90 % 1004,2 hPa 0,0 l/m² 1,1 km/h (1 Bft) O-NO 72 ° 0 min 0 W/m² -1,7 °C -0,3 °C 3,2 km/h (1 Bft)
30.01.2026 18:21 21,7 °C -0,3 °C 44 % 90 % 1003,9 hPa 0,0 l/m² 2,4 km/h (1 Bft) O-NO 75 ° 0 min 0 W/m² -1,7 °C -0,3 °C 6,4 km/h (2 Bft)
30.01.2026 18:22 21,7 °C -0,3 °C 44 % 90 % 1004,0 hPa 0,0 l/m² 1,0 km/h (0 Bft) O-NO 77 ° 0 min 0 W/m² -1,7 °C -0,3 °C 3,2 km/h (1 Bft)
30.01.2026 18:23 21,7 °C -0,3 °C 44 % 90 % 1004,0 hPa 0,0 l/m² 1,1 km/h (1 Bft) O-NO 78 ° 0 min 0 W/m² -1,7 °C -0,3 °C 1,6 km/h (1 Bft)
30.01.2026 18:25 21,7 °C -0,3 °C 44 % 90 % 1004,1 hPa 0,0 l/m² 3,3 km/h (1 Bft) O-NO 72 ° 0 min 0 W/m² -1,7 °C -0,3 °C 6,4 km/h (2 Bft)
30.01.2026 18:26 21,7 °C -0,3 °C 44 % 90 % 1004,1 hPa 0,0 l/m² 5,8 km/h (2 Bft) O-NO 57 ° 0 min 0 W/m² -1,7 °C -0,3 °C 8,0 km/h (2 Bft)
30.01.2026 18:27 21,7 °C -0,3 °C 44 % 90 % 1004,0 hPa 0,0 l/m² 4,9 km/h (1 Bft) O-NO 66 ° 0 min 0 W/m² -1,7 °C -0,3 °C 6,4 km/h (2 Bft)
30.01.2026 18:28 21,7 °C -0,3 °C 44 % 90 % 1004,0 hPa 0,0 l/m² 0,9 km/h (0 Bft) O-NO 70 ° 0 min 0 W/m² -1,7 °C -0,3 °C 4,8 km/h (1 Bft)
30.01.2026 18:29 21,7 °C -0,3 °C 44 % 90 % 1004,0 hPa 0,0 l/m² 1,0 km/h (0 Bft) O-NO 76 ° 0 min 0 W/m² -1,7 °C -0,3 °C 3,2 km/h (1 Bft)
30.01.2026 18:31 21,7 °C -0,3 °C 44 % 90 % 1004,0 hPa 0,0 l/m² 2,3 km/h (1 Bft) NO 53 ° 0 min 0 W/m² -1,7 °C -0,3 °C 6,4 km/h (2 Bft)
30.01.2026 18:32 21,7 °C -0,3 °C 44 % 90 % 1004,0 hPa 0,0 l/m² 4,1 km/h (1 Bft) O 82 ° 0 min 0 W/m² -1,7 °C -0,3 °C 6,4 km/h (2 Bft)
30.01.2026 18:33 21,7 °C -0,3 °C 44 % 90 % 1004,0 hPa 0,0 l/m² 5,6 km/h (2 Bft) O 82 ° 0 min 0 W/m² -1,7 °C -0,3 °C 8,0 km/h (2 Bft)
30.01.2026 18:35 21,7 °C -0,3 °C 44 % 90 % 1004,0 hPa 0,0 l/m² 5,2 km/h (1 Bft) O 79 ° 0 min 0 W/m² -1,7 °C -0,3 °C 6,4 km/h (2 Bft)
30.01.2026 18:36 21,7 °C -0,3 °C 44 % 90 % 1003,9 hPa 0,0 l/m² 3,7 km/h (1 Bft) O-NO 78 ° 0 min 0 W/m² -1,7 °C -0,3 °C 6,4 km/h (2 Bft)
30.01.2026 18:37 21,7 °C -0,3 °C 44 % 90 % 1004,1 hPa 0,0 l/m² 5,6 km/h (2 Bft) O-NO 70 ° 0 min 0 W/m² -1,7 °C -0,3 °C 8,0 km/h (2 Bft)
30.01.2026 18:38 21,7 °C -0,3 °C 44 % 90 % 1004,2 hPa 0,0 l/m² 4,3 km/h (1 Bft) O-NO 78 ° 0 min 0 W/m² -1,7 °C -0,3 °C 6,4 km/h (2 Bft)
30.01.2026 18:39 21,7 °C -0,3 °C 44 % 90 % 1004,2 hPa 0,0 l/m² 4,9 km/h (1 Bft) O 80 ° 0 min 0 W/m² -1,7 °C -0,3 °C 6,4 km/h (2 Bft)
30.01.2026 18:41 21,7 °C -0,3 °C 44 % 90 % 1004,1 hPa 0,0 l/m² 3,2 km/h (1 Bft) O-NO 75 ° 0 min 0 W/m² -1,7 °C -0,3 °C 6,4 km/h (2 Bft)
30.01.2026 18:42 21,7 °C -0,3 °C 44 % 90 % 1004,2 hPa 0,0 l/m² 3,5 km/h (1 Bft) NO 42 ° 0 min 0 W/m² -1,7 °C -0,3 °C 6,4 km/h (2 Bft)
30.01.2026 18:43 21,7 °C -0,3 °C 44 % 90 % 1004,2 hPa 0,0 l/m² 4,3 km/h (1 Bft) O-NO 78 ° 0 min 0 W/m² -1,7 °C -0,3 °C 6,4 km/h (2 Bft)
30.01.2026 18:46 21,7 °C -0,3 °C 44 % 90 % 1004,2 hPa 0,0 l/m² 4,0 km/h (1 Bft) O-NO 62 ° 0 min 0 W/m² -1,7 °C -0,3 °C 6,4 km/h (2 Bft)
30.01.2026 18:47 21,7 °C -0,3 °C 44 % 90 % 1004,2 hPa 0,0 l/m² 3,8 km/h (1 Bft) O-NO 73 ° 0 min 0 W/m² -1,7 °C -0,3 °C 8,0 km/h (2 Bft)
30.01.2026 18:48 21,7 °C -0,3 °C 44 % 90 % 1004,2 hPa 0,0 l/m² 3,9 km/h (1 Bft) O-NO 69 ° 0 min 0 W/m² -1,7 °C -0,3 °C 8,0 km/h (2 Bft)
30.01.2026 18:49 21,7 °C -0,3 °C 44 % 90 % 1004,2 hPa 0,0 l/m² 0,7 km/h (0 Bft) O-NO 57 ° 0 min 0 W/m² -1,7 °C -0,3 °C 3,2 km/h (1 Bft)
30.01.2026 18:51 21,7 °C -0,3 °C 45 % 90 % 1004,3 hPa 0,0 l/m² 5,4 km/h (2 Bft) O-NO 71 ° 0 min 0 W/m² -1,7 °C -0,3 °C 12,9 km/h (3 Bft)
30.01.2026 18:52 21,7 °C -0,3 °C 45 % 90 % 1004,2 hPa 0,0 l/m² 4,5 km/h (1 Bft) O-NO 58 ° 0 min 0 W/m² -1,7 °C -0,3 °C 8,0 km/h (2 Bft)
30.01.2026 18:53 21,7 °C -0,3 °C 45 % 90 % 1004,2 hPa 0,0 l/m² 4,6 km/h (1 Bft) O-NO 67 ° 0 min 0 W/m² -1,7 °C -0,3 °C 6,4 km/h (2 Bft)
30.01.2026 18:55 21,7 °C -0,3 °C 45 % 90 % 1004,2 hPa 0,0 l/m² 5,7 km/h (2 Bft) O 80 ° 0 min 0 W/m² -1,7 °C -0,3 °C 8,0 km/h (2 Bft)
30.01.2026 18:56 21,7 °C -0,3 °C 45 % 90 % 1004,3 hPa 0,0 l/m² 4,7 km/h (1 Bft) O 79 ° 0 min 0 W/m² -1,7 °C -0,3 °C 6,4 km/h (2 Bft)
30.01.2026 18:57 21,7 °C -0,3 °C 45 % 90 % 1004,3 hPa 0,0 l/m² 2,9 km/h (1 Bft) NO 51 ° 0 min 0 W/m² -1,7 °C -0,3 °C 6,4 km/h (2 Bft)
30.01.2026 18:58 21,7 °C -0,3 °C 45 % 90 % 1004,3 hPa 0,0 l/m² 2,5 km/h (1 Bft) O-NO 75 ° 0 min 0 W/m² -1,7 °C -0,3 °C 6,4 km/h (2 Bft)
30.01.2026 18:59 21,7 °C -0,3 °C 45 % 90 % 1004,2 hPa 0,0 l/m² 3,0 km/h (1 Bft) O-NO 65 ° 0 min 0 W/m² -1,7 °C -0,3 °C 6,4 km/h (2 Bft)
30.01.2026 19:01 21,7 °C -0,3 °C 45 % 90 % 1004,3 hPa 0,0 l/m² 4,5 km/h (1 Bft) NO 50 ° 0 min 0 W/m² -1,7 °C -0,3 °C 9,7 km/h (2 Bft)
30.01.2026 19:02 21,7 °C -0,3 °C 45 % 90 % 1004,2 hPa 0,0 l/m² 4,6 km/h (1 Bft) O-NO 76 ° 0 min 0 W/m² -1,7 °C -0,3 °C 11,3 km/h (2 Bft)
30.01.2026 19:03 21,7 °C -0,3 °C 45 % 90 % 1004,2 hPa 0,0 l/m² 6,7 km/h (2 Bft) O-NO 76 ° 0 min 0 W/m² -1,7 °C -0,6 °C 8,0 km/h (2 Bft)
30.01.2026 19:05 21,7 °C -0,3 °C 45 % 90 % 1004,3 hPa 0,0 l/m² 4,9 km/h (1 Bft) O-NO 75 ° 0 min 0 W/m² -1,7 °C -0,3 °C 8,0 km/h (2 Bft)
30.01.2026 19:06 21,7 °C -0,3 °C 45 % 90 % 1004,2 hPa 0,0 l/m² 5,5 km/h (2 Bft) O 79 ° 0 min 0 W/m² -1,7 °C -0,3 °C 6,4 km/h (2 Bft)
30.01.2026 19:08 21,7 °C -0,3 °C 45 % 90 % 1004,2 hPa 0,0 l/m² 5,7 km/h (2 Bft) O 85 ° 0 min 0 W/m² -1,7 °C -0,3 °C 11,3 km/h (2 Bft)
30.01.2026 19:09 21,7 °C -0,3 °C 45 % 90 % 1004,2 hPa 0,0 l/m² 8,7 km/h (2 Bft) O-NO 65 ° 0 min 0 W/m² -1,7 °C -2,6 °C 11,3 km/h (2 Bft)
30.01.2026 19:11 21,7 °C -0,4 °C 45 % 90 % 1004,1 hPa 0,0 l/m² 6,6 km/h (2 Bft) O-NO 73 ° 0 min 0 W/m² -1,8 °C -0,6 °C 11,3 km/h (2 Bft)
30.01.2026 19:12 21,7 °C -0,3 °C 45 % 90 % 1004,2 hPa 0,0 l/m² 5,8 km/h (2 Bft) O-NO 62 ° 0 min 0 W/m² -1,7 °C -0,3 °C 11,3 km/h (2 Bft)
30.01.2026 19:13 21,7 °C -0,4 °C 45 % 90 % 1004,2 hPa 0,0 l/m² 9,0 km/h (2 Bft) O 86 ° 0 min 0 W/m² -1,8 °C -3,0 °C 12,9 km/h (3 Bft)
30.01.2026 19:15 21,7 °C -0,4 °C 45 % 90 % 1004,1 hPa 0,0 l/m² 4,9 km/h (1 Bft) O-NO 69 ° 0 min 0 W/m² -1,8 °C -0,4 °C 9,7 km/h (2 Bft)
30.01.2026 19:16 21,7 °C -0,4 °C 45 % 90 % 1004,1 hPa 0,0 l/m² 7,5 km/h (2 Bft) O-NO 66 ° 0 min 0 W/m² -1,8 °C -1,6 °C 11,3 km/h (2 Bft)
30.01.2026 19:17 21,7 °C -0,4 °C 45 % 90 % 1004,1 hPa 0,0 l/m² 7,6 km/h (2 Bft) O-NO 74 ° 0 min 0 W/m² -1,8 °C -1,7 °C 12,9 km/h (3 Bft)
30.01.2026 19:18 21,7 °C -0,4 °C 45 % 90 % 1004,1 hPa 0,0 l/m² 5,1 km/h (1 Bft) NO 43 ° 0 min 0 W/m² -1,8 °C -0,4 °C 11,3 km/h (2 Bft)
30.01.2026 19:19 21,7 °C -0,4 °C 45 % 90 % 1004,1 hPa 0,0 l/m² 5,0 km/h (1 Bft) O-NO 75 ° 0 min 0 W/m² -1,8 °C -0,4 °C 8,0 km/h (2 Bft)
30.01.2026 19:21 21,7 °C -0,4 °C 45 % 90 % 1004,0 hPa 0,0 l/m² 6,7 km/h (2 Bft) O-NO 67 ° 0 min 0 W/m² -1,8 °C -0,7 °C 9,7 km/h (2 Bft)
30.01.2026 19:22 21,7 °C -0,4 °C 45 % 90 % 1004,0 hPa 0,0 l/m² 4,0 km/h (1 Bft) O-NO 74 ° 0 min 0 W/m² -1,8 °C -0,4 °C 6,4 km/h (2 Bft)
30.01.2026 19:23 21,7 °C -0,4 °C 45 % 90 % 1004,0 hPa 0,0 l/m² 4,5 km/h (1 Bft) O-NO 70 ° 0 min 0 W/m² -1,8 °C -0,4 °C 8,0 km/h (2 Bft)
30.01.2026 19:25 21,7 °C -0,4 °C 45 % 90 % 1004,0 hPa 0,0 l/m² 6,9 km/h (2 Bft) O-NO 63 ° 0 min 0 W/m² -1,8 °C -0,9 °C 12,9 km/h (3 Bft)
30.01.2026 19:26 21,7 °C -0,4 °C 45 % 90 % 1004,0 hPa 0,0 l/m² 5,4 km/h (2 Bft) O 84 ° 0 min 0 W/m² -1,8 °C -0,4 °C 8,0 km/h (2 Bft)
30.01.2026 19:27 21,7 °C -0,4 °C 45 % 90 % 1004,2 hPa 0,0 l/m² 2,3 km/h (1 Bft) O-NO 78 ° 0 min 0 W/m² -1,8 °C -0,4 °C 4,8 km/h (1 Bft)
30.01.2026 19:28 21,7 °C -0,5 °C 45 % 90 % 1004,1 hPa 0,0 l/m² 3,9 km/h (1 Bft) O 84 ° 0 min 0 W/m² -1,9 °C -0,5 °C 6,4 km/h (2 Bft)
30.01.2026 19:29 21,7 °C -0,4 °C 45 % 90 % 1004,1 hPa 0,0 l/m² 4,8 km/h (1 Bft) O-NO 71 ° 0 min 0 W/m² -1,8 °C -0,4 °C 9,7 km/h (2 Bft)
30.01.2026 19:31 21,7 °C -0,5 °C 45 % 90 % 1004,1 hPa 0,0 l/m² 3,6 km/h (1 Bft) O 83 ° 0 min 0 W/m² -1,9 °C -0,5 °C 6,4 km/h (2 Bft)
30.01.2026 19:32 21,7 °C -0,4 °C 45 % 90 % 1004,2 hPa 0,0 l/m² 6,7 km/h (2 Bft) O 85 ° 0 min 0 W/m² -1,8 °C -0,7 °C 9,7 km/h (2 Bft)
30.01.2026 19:33 21,7 °C -0,4 °C 45 % 90 % 1004,2 hPa 0,0 l/m² 5,9 km/h (2 Bft) O 87 ° 0 min 0 W/m² -1,8 °C -0,4 °C 6,4 km/h (2 Bft)
30.01.2026 19:35 21,7 °C -0,5 °C 45 % 90 % 1004,3 hPa 0,0 l/m² 4,3 km/h (1 Bft) O-NO 69 ° 0 min 0 W/m² -1,9 °C -0,5 °C 6,4 km/h (2 Bft)
30.01.2026 19:36 21,7 °C -0,4 °C 45 % 90 % 1004,2 hPa 0,0 l/m² 3,5 km/h (1 Bft) O-NO 63 ° 0 min 0 W/m² -1,8 °C -0,4 °C 6,4 km/h (2 Bft)
30.01.2026 19:37 21,7 °C -0,5 °C 46 % 90 % 1004,3 hPa 0,0 l/m² 5,3 km/h (1 Bft) O-NO 78 ° 0 min 0 W/m² -1,9 °C -0,5 °C 8,0 km/h (2 Bft)
30.01.2026 19:38 21,7 °C -0,5 °C 46 % 90 % 1004,3 hPa 0,0 l/m² 3,0 km/h (1 Bft) O-NO 74 ° 0 min 0 W/m² -1,9 °C -0,5 °C 6,4 km/h (2 Bft)
30.01.2026 19:39 21,7 °C -0,5 °C 46 % 90 % 1004,2 hPa 0,0 l/m² 4,8 km/h (1 Bft) O 85 ° 0 min 0 W/m² -1,9 °C -0,5 °C 11,3 km/h (2 Bft)
30.01.2026 19:41 21,7 °C -0,5 °C 46 % 90 % 1004,3 hPa 0,0 l/m² 4,3 km/h (1 Bft) O-NO 57 ° 0 min 0 W/m² -1,9 °C -0,5 °C 11,3 km/h (2 Bft)
30.01.2026 19:42 21,7 °C -0,5 °C 46 % 90 % 1004,3 hPa 0,0 l/m² 2,9 km/h (1 Bft) O-NO 73 ° 0 min 0 W/m² -1,9 °C -0,5 °C 6,4 km/h (2 Bft)
30.01.2026 19:43 21,7 °C -0,5 °C 46 % 90 % 1004,3 hPa 0,0 l/m² 7,0 km/h (2 Bft) O-NO 78 ° 0 min 0 W/m² -1,9 °C -1,1 °C 8,0 km/h (2 Bft)
30.01.2026 19:45 21,8 °C -0,5 °C 46 % 90 % 1004,3 hPa 0,0 l/m² 3,7 km/h (1 Bft) O 79 ° 0 min 0 W/m² -1,9 °C -0,5 °C 6,4 km/h (2 Bft)
30.01.2026 19:46 21,7 °C -0,4 °C 46 % 90 % 1004,3 hPa 0,0 l/m² 7,7 km/h (2 Bft) O 84 ° 0 min 0 W/m² -1,8 °C -1,8 °C 11,3 km/h (2 Bft)
30.01.2026 19:47 21,8 °C -0,4 °C 46 % 90 % 1004,3 hPa 0,0 l/m² 6,0 km/h (2 Bft) O-NO 67 ° 0 min 0 W/m² -1,8 °C -0,4 °C 8,0 km/h (2 Bft)
30.01.2026 19:48 21,8 °C -0,4 °C 46 % 90 % 1004,3 hPa 0,0 l/m² 5,1 km/h (1 Bft) O-NO 76 ° 0 min 0 W/m² -1,8 °C -0,4 °C 8,0 km/h (2 Bft)
30.01.2026 19:49 21,8 °C -0,4 °C 46 % 90 % 1004,3 hPa 0,0 l/m² 6,0 km/h (2 Bft) O-NO 71 ° 0 min 0 W/m² -1,8 °C -0,4 °C 8,0 km/h (2 Bft)
30.01.2026 19:51 21,8 °C -0,4 °C 46 % 90 % 1004,3 hPa 0,0 l/m² 7,2 km/h (2 Bft) O-NO 78 ° 0 min 0 W/m² -1,8 °C -1,2 °C 12,9 km/h (3 Bft)
30.01.2026 19:52 21,8 °C -0,4 °C 46 % 90 % 1004,3 hPa 0,0 l/m² 5,1 km/h (1 Bft) O-NO 78 ° 0 min 0 W/m² -1,8 °C -0,4 °C 11,3 km/h (2 Bft)
30.01.2026 19:53 21,8 °C -0,4 °C 46 % 90 % 1004,3 hPa 0,0 l/m² 3,3 km/h (1 Bft) O 80 ° 0 min 0 W/m² -1,8 °C -0,4 °C 4,8 km/h (1 Bft)
30.01.2026 19:55 21,8 °C -0,4 °C 46 % 90 % 1004,2 hPa 0,0 l/m² 3,4 km/h (1 Bft) O-NO 73 ° 0 min 0 W/m² -1,8 °C -0,4 °C 6,4 km/h (2 Bft)
30.01.2026 19:56 21,8 °C -0,4 °C 46 % 90 % 1004,2 hPa 0,0 l/m² 8,3 km/h (2 Bft) O-NO 72 ° 0 min 0 W/m² -1,8 °C -2,4 °C 14,5 km/h (3 Bft)
30.01.2026 19:57 21,8 °C -0,4 °C 46 % 90 % 1004,3 hPa 0,0 l/m² 8,0 km/h (2 Bft) O-NO 76 ° 0 min 0 W/m² -1,8 °C -2,1 °C 12,9 km/h (3 Bft)
30.01.2026 19:58 21,8 °C -0,4 °C 46 % 90 % 1004,3 hPa 0,0 l/m² 7,4 km/h (2 Bft) O-NO 65 ° 0 min 0 W/m² -1,8 °C -1,5 °C 11,3 km/h (2 Bft)
30.01.2026 19:59 21,8 °C -0,4 °C 46 % 90 % 1004,2 hPa 0,0 l/m² 6,3 km/h (2 Bft) NO 42 ° 0 min 0 W/m² -1,8 °C -0,4 °C 12,9 km/h (3 Bft)
30.01.2026 20:01 21,8 °C -0,4 °C 46 % 90 % 1004,2 hPa 0,0 l/m² 6,4 km/h (2 Bft) O-NO 67 ° 0 min 0 W/m² -1,8 °C -0,4 °C 12,9 km/h (3 Bft)
30.01.2026 20:02 21,8 °C -0,4 °C 46 % 90 % 1004,2 hPa 0,0 l/m² 5,9 km/h (2 Bft) O-NO 61 ° 0 min 0 W/m² -1,8 °C -0,4 °C 11,3 km/h (2 Bft)
30.01.2026 20:03 21,8 °C -0,4 °C 46 % 90 % 1004,2 hPa 0,0 l/m² 6,0 km/h (2 Bft) NO 55 ° 0 min 0 W/m² -1,8 °C -0,4 °C 8,0 km/h (2 Bft)
30.01.2026 20:05 21,8 °C -0,4 °C 46 % 90 % 1004,2 hPa 0,0 l/m² 6,0 km/h (2 Bft) O-NO 78 ° 0 min 0 W/m² -1,8 °C -0,4 °C 9,7 km/h (2 Bft)
30.01.2026 20:06 21,8 °C -0,4 °C 46 % 90 % 1004,2 hPa 0,0 l/m² 4,1 km/h (1 Bft) O-NO 71 ° 0 min 0 W/m² -1,8 °C -0,4 °C 6,4 km/h (2 Bft)
30.01.2026 20:07 21,8 °C -0,4 °C 46 % 90 % 1004,1 hPa 0,0 l/m² 7,2 km/h (2 Bft) O-NO 67 ° 0 min 0 W/m² -1,8 °C -1,2 °C 12,9 km/h (3 Bft)
30.01.2026 20:08 21,8 °C -0,4 °C 46 % 90 % 1004,1 hPa 0,0 l/m² 5,7 km/h (2 Bft) O 80 ° 0 min 0 W/m² -1,8 °C -0,4 °C 8,0 km/h (2 Bft)
30.01.2026 20:09 21,8 °C -0,4 °C 46 % 90 % 1004,2 hPa 0,0 l/m² 2,9 km/h (1 Bft) NO 46 ° 0 min 0 W/m² -1,8 °C -0,4 °C 4,8 km/h (1 Bft)
30.01.2026 20:11 21,8 °C -0,4 °C 46 % 90 % 1004,1 hPa 0,0 l/m² 7,0 km/h (2 Bft) O-NO 77 ° 0 min 0 W/m² -1,8 °C -1,0 °C 14,5 km/h (3 Bft)
30.01.2026 20:12 21,8 °C -0,3 °C 46 % 90 % 1004,2 hPa 0,0 l/m² 7,7 km/h (2 Bft) O-NO 65 ° 0 min 0 W/m² -1,7 °C -1,7 °C 11,3 km/h (2 Bft)
30.01.2026 20:13 21,8 °C -0,4 °C 46 % 90 % 1004,2 hPa 0,0 l/m² 6,3 km/h (2 Bft) NO 34 ° 0 min 0 W/m² -1,8 °C -0,4 °C 12,9 km/h (3 Bft)
30.01.2026 20:15 21,8 °C -0,3 °C 46 % 90 % 1004,2 hPa 0,0 l/m² 8,3 km/h (2 Bft) O-NO 76 ° 0 min 0 W/m² -1,7 °C -2,3 °C 14,5 km/h (3 Bft)
30.01.2026 20:16 21,8 °C -0,3 °C 46 % 90 % 1004,2 hPa 0,0 l/m² 6,1 km/h (2 Bft) O-NO 73 ° 0 min 0 W/m² -1,7 °C -0,3 °C 11,3 km/h (2 Bft)
30.01.2026 20:17 21,9 °C -0,3 °C 46 % 90 % 1004,2 hPa 0,0 l/m² 5,6 km/h (2 Bft) O 80 ° 0 min 0 W/m² -1,7 °C -0,3 °C 11,3 km/h (2 Bft)
30.01.2026 20:18 21,8 °C -0,3 °C 46 % 90 % 1004,2 hPa 0,0 l/m² 7,5 km/h (2 Bft) O 82 ° 0 min 0 W/m² -1,7 °C -1,5 °C 12,9 km/h (3 Bft)
30.01.2026 20:19 21,8 °C -0,3 °C 46 % 90 % 1004,2 hPa 0,0 l/m² 5,7 km/h (2 Bft) O 86 ° 0 min 0 W/m² -1,7 °C -0,3 °C 8,0 km/h (2 Bft)
30.01.2026 20:21 21,8 °C -0,3 °C 46 % 90 % 1004,2 hPa 0,0 l/m² 7,0 km/h (2 Bft) O 87 ° 0 min 0 W/m² -1,7 °C -0,9 °C 12,9 km/h (3 Bft)
30.01.2026 20:22 21,9 °C -0,3 °C 46 % 90 % 1004,2 hPa 0,0 l/m² 4,8 km/h (1 Bft) O 94 ° 0 min 0 W/m² -1,7 °C -0,3 °C 9,7 km/h (2 Bft)
30.01.2026 20:23 21,9 °C -0,3 °C 46 % 90 % 1004,2 hPa 0,0 l/m² 4,4 km/h (1 Bft) O 90 ° 0 min 0 W/m² -1,7 °C -0,3 °C 8,0 km/h (2 Bft)
30.01.2026 20:25 21,9 °C -0,3 °C 46 % 90 % 1004,1 hPa 0,0 l/m² 4,6 km/h (1 Bft) O-NO 66 ° 0 min 0 W/m² -1,7 °C -0,3 °C 8,0 km/h (2 Bft)
30.01.2026 20:26 21,9 °C -0,3 °C 46 % 90 % 1004,2 hPa 0,0 l/m² 3,0 km/h (1 Bft) O-NO 78 ° 0 min 0 W/m² -1,7 °C -0,3 °C 6,4 km/h (2 Bft)
30.01.2026 20:27 21,9 °C -0,3 °C 46 % 90 % 1004,2 hPa 0,0 l/m² 3,1 km/h (1 Bft) O-NO 71 ° 0 min 0 W/m² -1,7 °C -0,3 °C 8,0 km/h (2 Bft)
30.01.2026 20:28 21,9 °C -0,3 °C 46 % 90 % 1004,2 hPa 0,0 l/m² 8,9 km/h (2 Bft) O 80 ° 0 min 0 W/m² -1,7 °C -2,8 °C 12,9 km/h (3 Bft)
30.01.2026 20:29 21,9 °C -0,3 °C 46 % 90 % 1004,2 hPa 0,0 l/m² 8,7 km/h (2 Bft) O-NO 74 ° 0 min 0 W/m² -1,7 °C -2,6 °C 11,3 km/h (2 Bft)
30.01.2026 20:31 21,9 °C -0,3 °C 46 % 90 % 1004,3 hPa 0,0 l/m² 4,5 km/h (1 Bft) O-NO 72 ° 0 min 0 W/m² -1,7 °C -0,3 °C 11,3 km/h (2 Bft)
30.01.2026 20:32 21,9 °C -0,3 °C 46 % 90 % 1004,2 hPa 0,0 l/m² 7,0 km/h (2 Bft) O-NO 76 ° 0 min 0 W/m² -1,7 °C -0,9 °C 11,3 km/h (2 Bft)
30.01.2026 20:33 21,9 °C -0,3 °C 46 % 90 % 1004,2 hPa 0,0 l/m² 4,8 km/h (1 Bft) O-NO 76 ° 0 min 0 W/m² -1,7 °C -0,3 °C 11,3 km/h (2 Bft)
30.01.2026 20:35 21,9 °C -0,3 °C 46 % 90 % 1004,2 hPa 0,0 l/m² 4,8 km/h (1 Bft) O-NO 74 ° 0 min 0 W/m² -1,7 °C -0,3 °C 8,0 km/h (2 Bft)
30.01.2026 20:36 21,9 °C -0,3 °C 46 % 90 % 1004,3 hPa 0,0 l/m² 5,4 km/h (2 Bft) O-NO 70 ° 0 min 0 W/m² -1,7 °C -0,3 °C 11,3 km/h (2 Bft)
30.01.2026 20:37 21,9 °C -0,3 °C 46 % 90 % 1004,3 hPa 0,0 l/m² 7,8 km/h (2 Bft) O 80 ° 0 min 0 W/m² -1,7 °C -1,8 °C 12,9 km/h (3 Bft)
30.01.2026 20:38 21,9 °C -0,3 °C 46 % 90 % 1004,2 hPa 0,0 l/m² 8,2 km/h (2 Bft) O-NO 70 ° 0 min 0 W/m² -1,7 °C -2,2 °C 11,3 km/h (2 Bft)
30.01.2026 20:39 21,9 °C -0,3 °C 46 % 90 % 1004,2 hPa 0,0 l/m² 4,9 km/h (1 Bft) O 81 ° 0 min 0 W/m² -1,7 °C -0,3 °C 9,7 km/h (2 Bft)
30.01.2026 20:41 21,9 °C -0,3 °C 46 % 90 % 1004,3 hPa 0,0 l/m² 3,8 km/h (1 Bft) O 97 ° 0 min 0 W/m² -1,7 °C -0,3 °C 6,4 km/h (2 Bft)
30.01.2026 20:42 22,0 °C -0,3 °C 46 % 90 % 1004,2 hPa 0,0 l/m² 6,4 km/h (2 Bft) O 84 ° 0 min 0 W/m² -1,7 °C -0,3 °C 12,9 km/h (3 Bft)
30.01.2026 20:43 22,0 °C -0,3 °C 46 % 90 % 1004,2 hPa 0,0 l/m² 3,1 km/h (1 Bft) O-NO 68 ° 0 min 0 W/m² -1,7 °C -0,3 °C 6,4 km/h (2 Bft)
30.01.2026 20:45 22,0 °C -0,3 °C 46 % 90 % 1004,2 hPa 0,0 l/m² 5,6 km/h (2 Bft) O-NO 70 ° 0 min 0 W/m² -1,7 °C -0,3 °C 11,3 km/h (2 Bft)
30.01.2026 20:46 22,0 °C -0,3 °C 46 % 90 % 1004,2 hPa 0,0 l/m² 6,9 km/h (2 Bft) O 83 ° 0 min 0 W/m² -1,7 °C -0,8 °C 11,3 km/h (2 Bft)
30.01.2026 20:47 22,0 °C -0,3 °C 46 % 90 % 1004,3 hPa 0,0 l/m² 7,4 km/h (2 Bft) O 81 ° 0 min 0 W/m² -1,7 °C -1,4 °C 11,3 km/h (2 Bft)
30.01.2026 20:48 22,0 °C -0,3 °C 46 % 90 % 1004,2 hPa 0,0 l/m² 6,8 km/h (2 Bft) O-NO 71 ° 0 min 0 W/m² -1,7 °C -0,7 °C 12,9 km/h (3 Bft)
30.01.2026 20:49 22,0 °C -0,3 °C 46 % 90 % 1004,2 hPa 0,0 l/m² 9,1 km/h (2 Bft) O-NO 72 ° 0 min 0 W/m² -1,7 °C -3,0 °C 14,5 km/h (3 Bft)
30.01.2026 20:51 22,0 °C -0,3 °C 46 % 90 % 1004,2 hPa 0,0 l/m² 3,6 km/h (1 Bft) O 95 ° 0 min 0 W/m² -1,7 °C -0,3 °C 8,0 km/h (2 Bft)
30.01.2026 20:52 22,0 °C -0,3 °C 46 % 90 % 1004,2 hPa 0,0 l/m² 1,9 km/h (1 Bft) O-NO 76 ° 0 min 0 W/m² -1,7 °C -0,3 °C 4,8 km/h (1 Bft)
30.01.2026 20:53 22,0 °C -0,3 °C 46 % 90 % 1004,2 hPa 0,0 l/m² 4,4 km/h (1 Bft) O 82 ° 0 min 0 W/m² -1,7 °C -0,3 °C 6,4 km/h (2 Bft)
30.01.2026 20:55 22,0 °C -0,3 °C 46 % 90 % 1004,3 hPa 0,0 l/m² 4,7 km/h (1 Bft) O 82 ° 0 min 0 W/m² -1,7 °C -0,3 °C 8,0 km/h (2 Bft)
30.01.2026 20:56 22,1 °C -0,3 °C 46 % 90 % 1004,3 hPa 0,0 l/m² 4,7 km/h (1 Bft) O 80 ° 0 min 0 W/m² -1,7 °C -0,3 °C 8,0 km/h (2 Bft)
30.01.2026 20:57 22,0 °C -0,3 °C 46 % 90 % 1004,3 hPa 0,0 l/m² 3,1 km/h (1 Bft) O 88 ° 0 min 0 W/m² -1,7 °C -0,3 °C 4,8 km/h (1 Bft)
30.01.2026 20:58 22,0 °C -0,3 °C 46 % 90 % 1004,4 hPa 0,0 l/m² 4,7 km/h (1 Bft) O 90 ° 0 min 0 W/m² -1,7 °C -0,3 °C 11,3 km/h (2 Bft)
30.01.2026 20:59 22,0 °C -0,3 °C 46 % 90 % 1004,4 hPa 0,0 l/m² 4,5 km/h (1 Bft) O-NO 70 ° 0 min 0 W/m² -1,7 °C -0,3 °C 9,7 km/h (2 Bft)
30.01.2026 21:01 22,1 °C -0,3 °C 46 % 90 % 1004,4 hPa 0,0 l/m² 3,1 km/h (1 Bft) O-NO 74 ° 0 min 0 W/m² -1,7 °C -0,3 °C 6,4 km/h (2 Bft)
30.01.2026 21:02 22,1 °C -0,3 °C 46 % 90 % 1004,4 hPa 0,0 l/m² 0,7 km/h (0 Bft) O-NO 66 ° 0 min 0 W/m² -1,7 °C -0,3 °C 3,2 km/h (1 Bft)
30.01.2026 21:03 22,1 °C -0,3 °C 46 % 91 % 1004,4 hPa 0,0 l/m² 1,6 km/h (1 Bft) O 92 ° 0 min 0 W/m² -1,6 °C -0,3 °C 3,2 km/h (1 Bft)
30.01.2026 21:05 22,1 °C -0,3 °C 46 % 90 % 1004,4 hPa 0,0 l/m² 1,0 km/h (0 Bft) O 90 ° 0 min 0 W/m² -1,7 °C -0,3 °C 3,2 km/h (1 Bft)
30.01.2026 21:06 22,1 °C -0,3 °C 46 % 91 % 1004,5 hPa 0,0 l/m² 0,2 km/h (0 Bft) O 90 ° 0 min 0 W/m² -1,6 °C -0,3 °C 1,6 km/h (1 Bft)
30.01.2026 21:08 22,1 °C -0,3 °C 46 % 90 % 1004,4 hPa 0,0 l/m² 0,0 km/h (0 Bft) O 93 ° 0 min 0 W/m² -1,7 °C -0,3 °C 0,0 km/h (0 Bft)
30.01.2026 21:09 22,1 °C -0,3 °C 46 % 91 % 1004,4 hPa 0,0 l/m² 1,1 km/h (1 Bft) O 84 ° 0 min 0 W/m² -1,6 °C -0,3 °C 3,2 km/h (1 Bft)
30.01.2026 21:11 22,1 °C -0,3 °C 46 % 91 % 1004,4 hPa 0,0 l/m² 1,2 km/h (1 Bft) O 88 ° 0 min 0 W/m² -1,6 °C -0,3 °C 3,2 km/h (1 Bft)
30.01.2026 21:12 22,1 °C -0,3 °C 46 % 91 % 1004,4 hPa 0,0 l/m² 2,2 km/h (1 Bft) O 95 ° 0 min 0 W/m² -1,6 °C -0,3 °C 3,2 km/h (1 Bft)
30.01.2026 21:13 22,1 °C -0,3 °C 46 % 91 % 1004,4 hPa 0,0 l/m² 3,2 km/h (1 Bft) O 81 ° 0 min 0 W/m² -1,6 °C -0,3 °C 6,4 km/h (2 Bft)
30.01.2026 21:15 22,1 °C -0,3 °C 47 % 90 % 1004,4 hPa 0,0 l/m² 4,5 km/h (1 Bft) O 84 ° 0 min 0 W/m² -1,7 °C -0,3 °C 8,0 km/h (2 Bft)
30.01.2026 21:16 22,1 °C -0,3 °C 46 % 91 % 1004,4 hPa 0,0 l/m² 4,3 km/h (1 Bft) O-NO 76 ° 0 min 0 W/m² -1,6 °C -0,3 °C 6,4 km/h (2 Bft)
30.01.2026 21:17 22,1 °C -0,3 °C 47 % 91 % 1004,4 hPa 0,0 l/m² 4,5 km/h (1 Bft) O-NO 74 ° 0 min 0 W/m² -1,6 °C -0,3 °C 6,4 km/h (2 Bft)
30.01.2026 21:18 22,1 °C -0,3 °C 47 % 91 % 1004,3 hPa 0,0 l/m² 5,2 km/h (1 Bft) O-NO 68 ° 0 min 0 W/m² -1,6 °C -0,3 °C 8,0 km/h (2 Bft)
30.01.2026 21:19 22,1 °C -0,3 °C 47 % 91 % 1004,3 hPa 0,0 l/m² 5,9 km/h (2 Bft) O-NO 68 ° 0 min 0 W/m² -1,6 °C -0,3 °C 11,3 km/h (2 Bft)
30.01.2026 21:21 22,1 °C -0,3 °C 47 % 90 % 1004,2 hPa 0,0 l/m² 4,3 km/h (1 Bft) O 82 ° 0 min 0 W/m² -1,7 °C -0,3 °C 8,0 km/h (2 Bft)
30.01.2026 21:22 22,1 °C -0,3 °C 47 % 91 % 1004,3 hPa 0,0 l/m² 6,6 km/h (2 Bft) O-NO 75 ° 0 min 0 W/m² -1,6 °C -0,5 °C 11,3 km/h (2 Bft)
30.01.2026 21:23 22,1 °C -0,3 °C 47 % 91 % 1004,3 hPa 0,0 l/m² 8,3 km/h (2 Bft) O-NO 77 ° 0 min 0 W/m² -1,6 °C -2,3 °C 11,3 km/h (2 Bft)
30.01.2026 21:25 22,1 °C -0,3 °C 47 % 91 % 1004,2 hPa 0,0 l/m² 5,7 km/h (2 Bft) O 82 ° 0 min 0 W/m² -1,6 °C -0,3 °C 14,5 km/h (3 Bft)
30.01.2026 21:26 22,1 °C -0,3 °C 47 % 91 % 1004,2 hPa 0,0 l/m² 7,5 km/h (2 Bft) O-NO 69 ° 0 min 0 W/m² -1,6 °C -1,5 °C 14,5 km/h (3 Bft)
30.01.2026 21:27 22,1 °C -0,3 °C 47 % 91 % 1004,2 hPa 0,0 l/m² 8,5 km/h (2 Bft) O-NO 63 ° 0 min 0 W/m² -1,6 °C -2,4 °C 11,3 km/h (2 Bft)
30.01.2026 21:28 22,1 °C -0,3 °C 47 % 91 % 1004,2 hPa 0,0 l/m² 6,9 km/h (2 Bft) O-NO 64 ° 0 min 0 W/m² -1,6 °C -0,8 °C 12,9 km/h (3 Bft)
30.01.2026 21:29 22,1 °C -0,3 °C 47 % 91 % 1004,3 hPa 0,0 l/m² 7,1 km/h (2 Bft) O-NO 78 ° 0 min 0 W/m² -1,6 °C -1,0 °C 11,3 km/h (2 Bft)
30.01.2026 21:31 22,2 °C -0,3 °C 47 % 91 % 1004,3 hPa 0,0 l/m² 7,2 km/h (2 Bft) O-NO 71 ° 0 min 0 W/m² -1,6 °C -1,1 °C 12,9 km/h (3 Bft)
30.01.2026 21:32 22,2 °C -0,3 °C 47 % 90 % 1004,2 hPa 0,0 l/m² 9,9 km/h (2 Bft) O-NO 71 ° 0 min 0 W/m² -1,7 °C -3,7 °C 14,5 km/h (3 Bft)
30.01.2026 21:33 22,2 °C -0,3 °C 47 % 91 % 1004,2 hPa 0,0 l/m² 5,2 km/h (1 Bft) O 82 ° 0 min 0 W/m² -1,6 °C -0,3 °C 8,0 km/h (2 Bft)
30.01.2026 21:35 22,2 °C -0,3 °C 47 % 90 % 1004,3 hPa 0,0 l/m² 4,5 km/h (1 Bft) O 84 ° 0 min 0 W/m² -1,7 °C -0,3 °C 8,0 km/h (2 Bft)
30.01.2026 21:36 22,2 °C -0,3 °C 47 % 90 % 1004,3 hPa 0,0 l/m² 8,9 km/h (2 Bft) O-NO 76 ° 0 min 0 W/m² -1,7 °C -2,8 °C 16,1 km/h (3 Bft)
30.01.2026 21:37 22,2 °C -0,3 °C 47 % 91 % 1004,3 hPa 0,0 l/m² 9,3 km/h (2 Bft) O-NO 77 ° 0 min 0 W/m² -1,6 °C -3,2 °C 11,3 km/h (2 Bft)
30.01.2026 21:38 22,1 °C -0,3 °C 47 % 90 % 1004,3 hPa 0,0 l/m² 10,5 km/h (2 Bft) NO 53 ° 0 min 0 W/m² -1,7 °C -4,2 °C 14,5 km/h (3 Bft)
30.01.2026 21:39 22,2 °C -0,3 °C 47 % 90 % 1004,3 hPa 0,0 l/m² 7,2 km/h (2 Bft) O-NO 72 ° 0 min 0 W/m² -1,7 °C -1,1 °C 11,3 km/h (2 Bft)
30.01.2026 21:41 22,2 °C -0,3 °C 47 % 90 % 1004,3 hPa 0,0 l/m² 6,7 km/h (2 Bft) O 79 ° 0 min 0 W/m² -1,7 °C -0,6 °C 12,9 km/h (3 Bft)
30.01.2026 21:42 22,2 °C -0,4 °C 46 % 90 % 1004,3 hPa 0,0 l/m² 9,3 km/h (2 Bft) O-NO 61 ° 0 min 0 W/m² -1,8 °C -3,3 °C 14,5 km/h (3 Bft)
30.01.2026 21:43 22,2 °C -0,4 °C 46 % 90 % 1004,3 hPa 0,0 l/m² 5,8 km/h (2 Bft) O-NO 64 ° 0 min 0 W/m² -1,8 °C -0,4 °C 9,7 km/h (2 Bft)
30.01.2026 21:46 22,2 °C -0,4 °C 43 % 90 % 1004,3 hPa 0,0 l/m² 5,9 km/h (2 Bft) O-NO 76 ° 0 min 0 W/m² -1,8 °C -0,4 °C 12,9 km/h (3 Bft)
30.01.2026 21:47 22,2 °C -0,4 °C 44 % 90 % 1004,3 hPa 0,0 l/m² 6,9 km/h (2 Bft) O-NO 78 ° 0 min 0 W/m² -1,8 °C -0,9 °C 12,9 km/h (3 Bft)
30.01.2026 21:48 22,1 °C -0,4 °C 44 % 90 % 1004,3 hPa 0,0 l/m² 7,9 km/h (2 Bft) O 86 ° 0 min 0 W/m² -1,8 °C -2,0 °C 12,9 km/h (3 Bft)
30.01.2026 21:49 22,1 °C -0,4 °C 44 % 90 % 1004,3 hPa 0,0 l/m² 7,7 km/h (2 Bft) O-NO 59 ° 0 min 0 W/m² -1,8 °C -1,8 °C 11,3 km/h (2 Bft)
30.01.2026 21:51 22,1 °C -0,4 °C 44 % 90 % 1004,3 hPa 0,0 l/m² 7,4 km/h (2 Bft) O 83 ° 0 min 0 W/m² -1,8 °C -1,5 °C 12,9 km/h (3 Bft)
30.01.2026 21:52 22,1 °C -0,4 °C 44 % 90 % 1004,3 hPa 0,0 l/m² 7,2 km/h (2 Bft) O 80 ° 0 min 0 W/m² -1,8 °C -1,2 °C 11,3 km/h (2 Bft)
30.01.2026 21:53 22,1 °C -0,4 °C 44 % 90 % 1004,3 hPa 0,0 l/m² 7,5 km/h (2 Bft) O-NO 66 ° 0 min 0 W/m² -1,8 °C -1,6 °C 12,9 km/h (3 Bft)
30.01.2026 21:55 22,1 °C -0,5 °C 44 % 90 % 1004,2 hPa 0,0 l/m² 8,5 km/h (2 Bft) O-NO 73 ° 0 min 0 W/m² -1,9 °C -2,7 °C 14,5 km/h (3 Bft)
30.01.2026 21:56 22,1 °C -0,5 °C 44 % 90 % 1004,2 hPa 0,0 l/m² 6,4 km/h (2 Bft) O-NO 76 ° 0 min 0 W/m² -1,9 °C -0,5 °C 9,7 km/h (2 Bft)
30.01.2026 21:57 22,1 °C -0,5 °C 44 % 90 % 1004,2 hPa 0,0 l/m² 5,8 km/h (2 Bft) O 81 ° 0 min 0 W/m² -1,9 °C -0,5 °C 8,0 km/h (2 Bft)
30.01.2026 21:58 22,1 °C -0,5 °C 44 % 90 % 1004,2 hPa 0,0 l/m² 8,4 km/h (2 Bft) O 82 ° 0 min 0 W/m² -1,9 °C -2,6 °C 14,5 km/h (3 Bft)
30.01.2026 21:59 22,1 °C -0,6 °C 44 % 90 % 1004,2 hPa 0,0 l/m² 11,1 km/h (2 Bft) O-NO 76 ° 0 min 0 W/m² -2,0 °C -5,0 °C 14,5 km/h (3 Bft)
30.01.2026 22:01 22,1 °C -0,6 °C 44 % 90 % 1004,3 hPa 0,0 l/m² 8,6 km/h (2 Bft) O 86 ° 0 min 0 W/m² -2,0 °C -2,9 °C 14,5 km/h (3 Bft)
30.01.2026 22:02 22,1 °C -0,6 °C 44 % 90 % 1004,3 hPa 0,0 l/m² 11,2 km/h (2 Bft) O-NO 76 ° 0 min 0 W/m² -2,0 °C -5,1 °C 14,5 km/h (3 Bft)
30.01.2026 22:03 22,1 °C -0,6 °C 44 % 90 % 1004,3 hPa 0,0 l/m² 9,5 km/h (2 Bft) O-NO 78 ° 0 min 0 W/m² -2,0 °C -3,7 °C 11,3 km/h (2 Bft)
30.01.2026 22:04 22,1 °C -0,7 °C 44 % 90 % 1004,3 hPa 0,0 l/m² 4,2 km/h (1 Bft) O-SO 103 ° 0 min 0 W/m² -2,1 °C -0,7 °C 8,0 km/h (2 Bft)
30.01.2026 22:05 22,1 °C -0,6 °C 44 % 90 % 1004,3 hPa 0,0 l/m² 7,0 km/h (2 Bft) O-NO 68 ° 0 min 0 W/m² -2,0 °C -1,2 °C 8,0 km/h (2 Bft)
30.01.2026 22:06 22,1 °C -0,7 °C 44 % 90 % 1004,4 hPa 0,0 l/m² 3,3 km/h (1 Bft) O 83 ° 0 min 0 W/m² -2,1 °C -0,7 °C 6,4 km/h (2 Bft)
30.01.2026 22:07 22,1 °C -0,7 °C 44 % 90 % 1004,3 hPa 0,0 l/m² 7,3 km/h (2 Bft) O-NO 69 ° 0 min 0 W/m² -2,1 °C -1,7 °C 12,9 km/h (3 Bft)
30.01.2026 22:08 22,1 °C -0,7 °C 44 % 90 % 1004,4 hPa 0,0 l/m² 5,0 km/h (1 Bft) O 80 ° 0 min 0 W/m² -2,1 °C -0,7 °C 8,0 km/h (2 Bft)
30.01.2026 22:09 22,1 °C -0,7 °C 44 % 90 % 1004,3 hPa 0,0 l/m² 6,2 km/h (2 Bft) O-NO 58 ° 0 min 0 W/m² -2,1 °C -0,7 °C 11,3 km/h (2 Bft)
30.01.2026 22:11 22,1 °C -0,7 °C 44 % 90 % 1004,4 hPa 0,0 l/m² 2,7 km/h (1 Bft) O 80 ° 0 min 0 W/m² -2,1 °C -0,7 °C 6,4 km/h (2 Bft)
30.01.2026 22:12 22,1 °C -0,7 °C 44 % 90 % 1004,4 hPa 0,0 l/m² 0,9 km/h (0 Bft) O 84 ° 0 min 0 W/m² -2,1 °C -0,7 °C 6,4 km/h (2 Bft)
30.01.2026 22:13 22,1 °C -0,7 °C 44 % 90 % 1004,4 hPa 0,0 l/m² 4,6 km/h (1 Bft) O-NO 75 ° 0 min 0 W/m² -2,1 °C -0,7 °C 8,0 km/h (2 Bft)
30.01.2026 22:15 22,1 °C -0,8 °C 44 % 90 % 1004,5 hPa 0,0 l/m² 1,7 km/h (1 Bft) O-NO 78 ° 0 min 0 W/m² -2,2 °C -0,8 °C 6,4 km/h (2 Bft)
30.01.2026 22:16 22,1 °C -0,8 °C 44 % 90 % 1004,4 hPa 0,0 l/m² 2,5 km/h (1 Bft) O 79 ° 0 min 0 W/m² -2,2 °C -0,8 °C 6,4 km/h (2 Bft)
30.01.2026 22:17 22,1 °C -0,8 °C 44 % 90 % 1004,4 hPa 0,0 l/m² 0,1 km/h (0 Bft) O 80 ° 0 min 0 W/m² -2,2 °C -0,8 °C 1,6 km/h (1 Bft)
30.01.2026 22:18 22,1 °C -0,8 °C 44 % 90 % 1004,4 hPa 0,0 l/m² 3,9 km/h (1 Bft) O 94 ° 0 min 0 W/m² -2,2 °C -0,8 °C 6,4 km/h (2 Bft)
30.01.2026 22:19 22,1 °C -0,8 °C 44 % 90 % 1004,4 hPa 0,0 l/m² 1,5 km/h (1 Bft) O-NO 73 ° 0 min 0 W/m² -2,2 °C -0,8 °C 4,8 km/h (1 Bft)
30.01.2026 22:21 22,1 °C -0,8 °C 44 % 90 % 1004,4 hPa 0,0 l/m² 2,5 km/h (1 Bft) NO 34 ° 0 min 0 W/m² -2,2 °C -0,8 °C 6,4 km/h (2 Bft)
30.01.2026 22:22 22,1 °C -0,8 °C 44 % 90 % 1004,4 hPa 0,0 l/m² 1,8 km/h (1 Bft) O-NO 78 ° 0 min 0 W/m² -2,2 °C -0,8 °C 3,2 km/h (1 Bft)
30.01.2026 22:23 22,1 °C -0,8 °C 44 % 90 % 1004,4 hPa 0,0 l/m² 0,1 km/h (0 Bft) O-NO 71 ° 0 min 0 W/m² -2,2 °C -0,8 °C 1,6 km/h (1 Bft)
30.01.2026 22:25 22,1 °C -0,8 °C 44 % 90 % 1004,4 hPa 0,0 l/m² 0,0 km/h (0 Bft) O 98 ° 0 min 0 W/m² -2,2 °C -0,8 °C 1,6 km/h (1 Bft)
30.01.2026 22:26 22,1 °C -0,8 °C 44 % 90 % 1004,4 hPa 0,0 l/m² 0,8 km/h (0 Bft) O 88 ° 0 min 0 W/m² -2,2 °C -0,8 °C 4,8 km/h (1 Bft)
30.01.2026 22:27 22,1 °C -0,8 °C 44 % 90 % 1004,4 hPa 0,0 l/m² 0,9 km/h (0 Bft) O-NO 73 ° 0 min 0 W/m² -2,2 °C -0,8 °C 3,2 km/h (1 Bft)
30.01.2026 22:28 22,1 °C -0,8 °C 44 % 90 % 1004,4 hPa 0,0 l/m² 0,2 km/h (0 Bft) O-NO 62 ° 0 min 0 W/m² -2,2 °C -0,8 °C 1,6 km/h (1 Bft)
30.01.2026 22:29 22,1 °C -0,8 °C 44 % 90 % 1004,4 hPa 0,0 l/m² 0,0 km/h (0 Bft) NO 46 ° 0 min 0 W/m² -2,2 °C -0,8 °C 0,0 km/h (0 Bft)
30.01.2026 22:31 22,1 °C -0,8 °C 44 % 90 % 1004,5 hPa 0,0 l/m² 1,1 km/h (1 Bft) NO 51 ° 0 min 0 W/m² -2,2 °C -0,8 °C 3,2 km/h (1 Bft)
30.01.2026 22:32 22,1 °C -0,8 °C 44 % 90 % 1004,4 hPa 0,0 l/m² 0,8 km/h (0 Bft) O-NO 72 ° 0 min 0 W/m² -2,2 °C -0,8 °C 4,8 km/h (1 Bft)
30.01.2026 22:33 22,1 °C -0,8 °C 44 % 90 % 1004,4 hPa 0,0 l/m² 2,0 km/h (1 Bft) O-NO 57 ° 0 min 0 W/m² -2,2 °C -0,8 °C 4,8 km/h (1 Bft)
30.01.2026 22:35 22,1 °C -0,8 °C 44 % 90 % 1004,4 hPa 0,0 l/m² 1,9 km/h (1 Bft) O 86 ° 0 min 0 W/m² -2,2 °C -0,8 °C 4,8 km/h (1 Bft)
30.01.2026 22:36 22,1 °C -0,8 °C 44 % 90 % 1004,5 hPa 0,0 l/m² 1,1 km/h (1 Bft) O-NO 63 ° 0 min 0 W/m² -2,2 °C -0,8 °C 3,2 km/h (1 Bft)
30.01.2026 22:37 22,1 °C -0,8 °C 44 % 90 % 1004,5 hPa 0,0 l/m² 2,4 km/h (1 Bft) O-NO 68 ° 0 min 0 W/m² -2,2 °C -0,8 °C 4,8 km/h (1 Bft)
30.01.2026 22:38 22,1 °C -0,8 °C 45 % 90 % 1004,4 hPa 0,0 l/m² 0,8 km/h (0 Bft) O-NO 76 ° 0 min 0 W/m² -2,2 °C -0,8 °C 4,8 km/h (1 Bft)
30.01.2026 22:39 22,1 °C -0,8 °C 44 % 90 % 1004,5 hPa 0,0 l/m² 0,1 km/h (0 Bft) O-NO 76 ° 0 min 0 W/m² -2,2 °C -0,8 °C 1,6 km/h (1 Bft)
30.01.2026 22:41 22,1 °C -0,8 °C 45 % 90 % 1004,5 hPa 0,0 l/m² 0,3 km/h (0 Bft) O-NO 57 ° 0 min 0 W/m² -2,2 °C -0,8 °C 1,6 km/h (1 Bft)
30.01.2026 22:42 22,1 °C -0,8 °C 45 % 90 % 1004,5 hPa 0,0 l/m² 0,1 km/h (0 Bft) O 81 ° 0 min 0 W/m² -2,2 °C -0,8 °C 1,6 km/h (1 Bft)
30.01.2026 22:43 22,1 °C -0,8 °C 45 % 90 % 1004,5 hPa 0,0 l/m² 0,1 km/h (0 Bft) O 82 ° 0 min 0 W/m² -2,2 °C -0,8 °C 1,6 km/h (1 Bft)
30.01.2026 22:45 22,1 °C -0,8 °C 45 % 90 % 1004,5 hPa 0,0 l/m² 0,3 km/h (0 Bft) O 95 ° 0 min 0 W/m² -2,2 °C -0,8 °C 3,2 km/h (1 Bft)
30.01.2026 22:46 22,1 °C -0,8 °C 45 % 90 % 1004,4 hPa 0,0 l/m² 0,0 km/h (0 Bft) O-NO 73 ° 0 min 0 W/m² -2,2 °C -0,8 °C 0,0 km/h (0 Bft)
30.01.2026 22:47 22,1 °C -0,8 °C 45 % 90 % 1004,5 hPa 0,0 l/m² 2,4 km/h (1 Bft) O 82 ° 0 min 0 W/m² -2,2 °C -0,8 °C 4,8 km/h (1 Bft)
30.01.2026 22:48 22,1 °C -0,9 °C 45 % 90 % 1004,5 hPa 0,0 l/m² 2,5 km/h (1 Bft) O-NO 73 ° 0 min 0 W/m² -2,3 °C -0,9 °C 3,2 km/h (1 Bft)
30.01.2026 22:49 22,1 °C -0,8 °C 45 % 91 % 1004,5 hPa 0,0 l/m² 2,7 km/h (1 Bft) O-NO 64 ° 0 min 0 W/m² -2,1 °C -0,8 °C 4,8 km/h (1 Bft)
30.01.2026 22:51 22,1 °C -0,8 °C 45 % 91 % 1004,5 hPa 0,0 l/m² 2,6 km/h (1 Bft) O 79 ° 0 min 0 W/m² -2,1 °C -0,8 °C 6,4 km/h (2 Bft)
30.01.2026 22:52 22,1 °C -0,9 °C 45 % 91 % 1004,5 hPa 0,0 l/m² 1,4 km/h (1 Bft) O-NO 69 ° 0 min 0 W/m² -2,2 °C -0,9 °C 3,2 km/h (1 Bft)
30.01.2026 22:53 22,1 °C -0,9 °C 45 % 91 % 1004,5 hPa 0,0 l/m² 2,6 km/h (1 Bft) O 90 ° 0 min 0 W/m² -2,2 °C -0,9 °C 6,4 km/h (2 Bft)
30.01.2026 22:55 22,1 °C -0,8 °C 45 % 91 % 1004,5 hPa 0,0 l/m² 3,8 km/h (1 Bft) O-NO 69 ° 0 min 0 W/m² -2,1 °C -0,8 °C 6,4 km/h (2 Bft)
30.01.2026 22:56 22,1 °C -0,8 °C 45 % 91 % 1004,4 hPa 0,0 l/m² 2,3 km/h (1 Bft) O 79 ° 0 min 0 W/m² -2,1 °C -0,8 °C 4,8 km/h (1 Bft)
30.01.2026 22:57 22,1 °C -0,8 °C 45 % 91 % 1004,4 hPa 0,0 l/m² 2,8 km/h (1 Bft) O-NO 75 ° 0 min 0 W/m² -2,1 °C -0,8 °C 6,4 km/h (2 Bft)
30.01.2026 22:58 22,1 °C -0,8 °C 45 % 91 % 1004,5 hPa 0,0 l/m² 3,1 km/h (1 Bft) O-NO 73 ° 0 min 0 W/m² -2,1 °C -0,8 °C 6,4 km/h (2 Bft)
30.01.2026 22:59 22,1 °C -0,8 °C 45 % 91 % 1004,5 hPa 0,0 l/m² 5,7 km/h (2 Bft) NO 46 ° 0 min 0 W/m² -2,1 °C -0,8 °C 11,3 km/h (2 Bft)
30.01.2026 23:01 22,1 °C -0,8 °C 45 % 91 % 1004,4 hPa 0,0 l/m² 6,1 km/h (2 Bft) NO 49 ° 0 min 0 W/m² -2,1 °C -0,8 °C 11,3 km/h (2 Bft)
30.01.2026 23:02 22,1 °C -0,8 °C 45 % 91 % 1004,4 hPa 0,0 l/m² 4,7 km/h (1 Bft) O-NO 76 ° 0 min 0 W/m² -2,1 °C -0,8 °C 9,7 km/h (2 Bft)
30.01.2026 23:03 22,1 °C -0,8 °C 45 % 91 % 1004,4 hPa 0,0 l/m² 10,1 km/h (2 Bft) O 82 ° 0 min 0 W/m² -2,1 °C -4,4 °C 12,9 km/h (3 Bft)
30.01.2026 23:05 22,1 °C -0,8 °C 45 % 91 % 1004,4 hPa 0,0 l/m² 7,5 km/h (2 Bft) O 89 ° 0 min 0 W/m² -2,1 °C -2,0 °C 12,9 km/h (3 Bft)
30.01.2026 23:06 22,1 °C -0,8 °C 45 % 91 % 1004,4 hPa 0,0 l/m² 8,4 km/h (2 Bft) O-NO 67 ° 0 min 0 W/m² -2,1 °C -2,9 °C 12,9 km/h (3 Bft)
30.01.2026 23:08 22,1 °C -0,8 °C 45 % 91 % 1004,4 hPa 0,0 l/m² 6,8 km/h (2 Bft) O 87 ° 0 min 0 W/m² -2,1 °C -1,2 °C 12,9 km/h (3 Bft)
30.01.2026 23:09 22,1 °C -0,8 °C 45 % 91 % 1004,4 hPa 0,0 l/m² 5,8 km/h (2 Bft) O-NO 73 ° 0 min 0 W/m² -2,1 °C -0,8 °C 11,3 km/h (2 Bft)
30.01.2026 23:11 22,1 °C -0,8 °C 45 % 91 % 1004,5 hPa 0,0 l/m² 5,9 km/h (2 Bft) O-NO 76 ° 0 min 0 W/m² -2,1 °C -0,8 °C 12,9 km/h (3 Bft)
30.01.2026 23:12 22,1 °C -0,8 °C 45 % 91 % 1004,5 hPa 0,0 l/m² 3,8 km/h (1 Bft) O-NO 77 ° 0 min 0 W/m² -2,1 °C -0,8 °C 8,0 km/h (2 Bft)
30.01.2026 23:13 22,1 °C -0,8 °C 45 % 91 % 1004,5 hPa 0,0 l/m² 3,3 km/h (1 Bft) O-NO 78 ° 0 min 0 W/m² -2,1 °C -0,8 °C 8,0 km/h (2 Bft)
30.01.2026 23:15 22,1 °C -0,8 °C 45 % 91 % 1004,5 hPa 0,0 l/m² 3,2 km/h (1 Bft) O-NO 64 ° 0 min 0 W/m² -2,1 °C -0,8 °C 8,0 km/h (2 Bft)
30.01.2026 23:16 22,1 °C -0,8 °C 45 % 91 % 1004,5 hPa 0,0 l/m² 3,2 km/h (1 Bft) O-NO 67 ° 0 min 0 W/m² -2,1 °C -0,8 °C 8,0 km/h (2 Bft)
30.01.2026 23:17 22,1 °C -0,8 °C 45 % 91 % 1004,5 hPa 0,0 l/m² 1,6 km/h (1 Bft) O-NO 67 ° 0 min 0 W/m² -2,1 °C -0,8 °C 3,2 km/h (1 Bft)
30.01.2026 23:22 22,1 °C -0,8 °C 45 % 91 % 1004,5 hPa 0,0 l/m² 5,0 km/h (1 Bft) O-NO 78 ° 0 min 0 W/m² -2,1 °C -0,8 °C 8,0 km/h (2 Bft)
30.01.2026 23:24 22,1 °C -0,8 °C 45 % 91 % 1004,5 hPa 0,0 l/m² 2,3 km/h (1 Bft) O 83 ° 0 min 0 W/m² -2,1 °C -0,8 °C 9,7 km/h (2 Bft)
30.01.2026 23:25 22,1 °C -0,8 °C 45 % 91 % 1004,5 hPa 0,0 l/m² 3,1 km/h (1 Bft) O 89 ° 0 min 0 W/m² -2,1 °C -0,8 °C 4,8 km/h (1 Bft)
30.01.2026 23:27 22,1 °C -0,8 °C 45 % 91 % 1004,5 hPa 0,0 l/m² 2,6 km/h (1 Bft) NO 55 ° 0 min 0 W/m² -2,1 °C -0,8 °C 6,4 km/h (2 Bft)
30.01.2026 23:29 22,1 °C -0,8 °C 45 % 91 % 1004,6 hPa 0,0 l/m² 3,4 km/h (1 Bft) O-NO 61 ° 0 min 0 W/m² -2,1 °C -0,8 °C 8,0 km/h (2 Bft)
30.01.2026 23:30 22,1 °C -0,8 °C 45 % 91 % 1004,5 hPa 0,0 l/m² 2,9 km/h (1 Bft) O-NO 77 ° 0 min 0 W/m² -2,1 °C -0,8 °C 4,8 km/h (1 Bft)
30.01.2026 23:32 22,1 °C -0,8 °C 45 % 91 % 1004,6 hPa 0,0 l/m² 3,1 km/h (1 Bft) O-NO 67 ° 0 min 0 W/m² -2,1 °C -0,8 °C 6,4 km/h (2 Bft)
30.01.2026 23:34 22,1 °C -0,8 °C 45 % 91 % 1004,5 hPa 0,0 l/m² 3,5 km/h (1 Bft) O 80 ° 0 min 0 W/m² -2,1 °C -0,8 °C 6,4 km/h (2 Bft)
30.01.2026 23:36 22,1 °C -0,8 °C 45 % 91 % 1004,6 hPa 0,0 l/m² 2,8 km/h (1 Bft) NO 53 ° 0 min 0 W/m² -2,1 °C -0,8 °C 6,4 km/h (2 Bft)
30.01.2026 23:38 22,1 °C -0,8 °C 45 % 91 % 1004,5 hPa 0,0 l/m² 2,7 km/h (1 Bft) O-NO 78 ° 0 min 0 W/m² -2,1 °C -0,8 °C 6,4 km/h (2 Bft)
30.01.2026 23:40 22,1 °C -0,8 °C 45 % 91 % 1004,6 hPa 0,0 l/m² 2,8 km/h (1 Bft) O-NO 66 ° 0 min 0 W/m² -2,1 °C -0,8 °C 6,4 km/h (2 Bft)
30.01.2026 23:41 22,1 °C -0,8 °C 45 % 91 % 1004,5 hPa 0,0 l/m² 2,7 km/h (1 Bft) NO 49 ° 0 min 0 W/m² -2,1 °C -0,8 °C 6,4 km/h (2 Bft)
30.01.2026 23:42 22,1 °C -0,9 °C 45 % 91 % 1004,5 hPa 0,0 l/m² 2,9 km/h (1 Bft) O 84 ° 0 min 0 W/m² -2,2 °C -0,9 °C 4,8 km/h (1 Bft)
30.01.2026 23:44 22,1 °C -0,9 °C 45 % 91 % 1004,5 hPa 0,0 l/m² 3,7 km/h (1 Bft) O-NO 69 ° 0 min 0 W/m² -2,2 °C -0,9 °C 8,0 km/h (2 Bft)
30.01.2026 23:46 22,1 °C -0,8 °C 45 % 91 % 1004,5 hPa 0,0 l/m² 4,1 km/h (1 Bft) O-NO 71 ° 0 min 0 W/m² -2,1 °C -0,8 °C 8,0 km/h (2 Bft)
30.01.2026 23:48 22,1 °C -0,9 °C 45 % 91 % 1004,6 hPa 0,0 l/m² 4,8 km/h (1 Bft) O-NO 74 ° 0 min 0 W/m² -2,2 °C -0,9 °C 8,0 km/h (2 Bft)
30.01.2026 23:50 22,1 °C -0,9 °C 45 % 91 % 1004,7 hPa 0,0 l/m² 1,7 km/h (1 Bft) O 86 ° 0 min 0 W/m² -2,2 °C -0,9 °C 3,2 km/h (1 Bft)
30.01.2026 23:51 22,1 °C -0,8 °C 45 % 91 % 1004,7 hPa 0,0 l/m² 1,4 km/h (1 Bft) O 82 ° 0 min 0 W/m² -2,1 °C -0,8 °C 8,0 km/h (2 Bft)
30.01.2026 23:52 22,1 °C -0,9 °C 45 % 91 % 1004,7 hPa 0,0 l/m² 3,5 km/h (1 Bft) O-NO 72 ° 0 min 0 W/m² -2,2 °C -0,9 °C 4,8 km/h (1 Bft)
30.01.2026 23:54 22,1 °C -0,9 °C 45 % 91 % 1004,7 hPa 0,0 l/m² 2,4 km/h (1 Bft) O-NO 76 ° 0 min 0 W/m² -2,2 °C -0,9 °C 4,8 km/h (1 Bft)
30.01.2026 23:56 22,2 °C -0,8 °C 45 % 91 % 1004,7 hPa 0,0 l/m² 0,2 km/h (0 Bft) O 79 ° 0 min 0 W/m² -2,1 °C -0,8 °C 1,6 km/h (1 Bft)
30.01.2026 23:58 22,1 °C -0,8 °C 45 % 91 % 1004,7 hPa 0,0 l/m² 1,7 km/h (1 Bft) O-NO 77 ° 0 min 0 W/m² -2,1 °C -0,8 °C 4,8 km/h (1 Bft)
_ Min-Zeit 16:07 07:25 15:49 16:23 05:29 - 22:46 - - - - 07:25 11:38 22:46
Minimum _ 21,6 °C -2,3 °C 37 % 88 % 1002,6 hPa - 0,0 km/h (0 Bft) - - - - -3,6 °C -8,9 °C 0,0 km/h (0 Bft)
_ Max-Zeit 14:59 15:12 06:12 10:12 23:58 15:27 14:43 - - 12:06 13:03 14:29 14:52 15:25
Maximum _ 22,4 °C 0,2 °C 49 % 92 % 1004,7 hPa 0,2 l/m² 16,4 km/h
O (3 Bft)
- - 5 min 190 W/m² -1,5 °C 0,2 °C 22,5 km/h
O-NO (4 Bft)
Durchschnitt _ 22,1 °C -1,1 °C 46 % 90 % 1003,6 hPa #0,8 l/m² 6,9 km/h (2 Bft) O-NO - #4:32 h 25 W/m² -2,5 °C -2,6 °C 11,7 km/h (2 Bft)
© 2009 Mathias Hoßbach